Date time  Uvelocity_cm/s Vvelocity_cm/s W_velocity_cm/s horizontalSpeedCareful_cm/s TotalSpeedCareful_cm/s HorizontalWindDirection_deg WindElevation_deg SpeedOfSound_cm/sec Temperature_Kelvin pressure_mb2009/04/23 16:59:59.9     390    415    201    570    604  43.2  20.2  34218  290.54 0854.37
2009/04/23 17:00:00.0     314    406    195    514    549  37.8  21.8  34224  290.65 0854.37
2009/04/23 17:00:00.1      81    479    171    486    515   9.7  20.2  34216  290.51 0854.37
2009/04/23 17:00:00.2      21    411     60    412    417   3.0   8.3  34208  290.38 0854.37
2009/04/23 17:00:00.3      69    477    -88    483    491   8.3 -10.4  34192  290.10 0854.37
2009/04/23 17:00:00.4    -196    678     71    706    710 343.8   5.8  34176  289.84 0854.37
2009/04/23 17:00:00.5    -130    905     44    915    917 351.8   2.8  34140  289.23 0854.37
2009/04/23 17:00:00.6     -16    768    106    769    777 358.8   7.9  34170  289.73 0854.37
2009/04/23 17:00:00.7     -64    692     74    696    700 354.7   6.1  34150  289.39 0854.37
2009/04/23 17:00:00.8       0    617    240    618    662   0.0  22.4  34220  290.59 0854.37
2009/04/23 17:00:00.9     111    587    186    598    627  10.7  17.3  34260  291.27 0854.37
2009/04/23 17:00:01.0     345    552    307    651    719  32.0  27.1  34138  289.20 0854.37
2009/04/23 17:00:01.1     393    623    409    737    842  32.3  31.4  34160  289.58 0854.37
2009/04/23 17:00:01.2     532    540    302    759    816  44.5  23.0  34136  289.17 0854.37
2009/04/23 17:00:01.3     573    453    419    731    842  51.7  32.4  34202  290.28 0854.37
2009/04/23 17:00:01.4     608    413    245    735    776  55.8  18.5  34128  289.04 0854.37
2009/04/23 17:00:01.5     681    633    330    930    988  47.1  19.6  34074  288.13 0854.37
2009/04/23 17:00:01.6     410    589     18    718    719  34.9   1.5  34066  287.98 0854.37
2009/04/23 17:00:01.7     387    573   -192    692    718  34.1 -20.2  34084  288.30 0854.37
2009/04/23 17:00:01.8     260    651    249    702    746  21.8  19.6  34074  288.10 0854.37
2009/04/23 17:00:01.9     -41    535    300    537    615 355.5  31.6  34080  288.22 0854.37
2009/04/23 17:00:02.0      91    553      6    561    562   9.4   0.7  34066  287.99 0854.37
2009/04/23 17:00:02.1     100    453   -122    465    481  12.5 -14.8  34070  288.05 0854.37
2009/04/23 17:00:02.2    -371    461    -86    593    600 321.2  -8.3  34060  287.87 0854.37
2009/04/23 17:00:02.3    -443    550    -23    707    708 321.2  -1.9  34068  288.00 0854.37
2009/04/23 17:00:02.4    -110    416     21    431    432 345.2   2.9  34072  288.07 0854.37
2009/04/23 17:00:02.5     -30    283   -102    285    303 353.8 -19.7  34072  288.09 0854.37
2009/04/23 17:00:02.6    -171    298    -80    344    354 330.1 -13.1  34068  288.03 0854.37
2009/04/23 17:00:02.7    -180    364     17    407    408 333.7   2.5  34068  288.01 0854.37
2009/04/23 17:00:02.8     -87    559    176    566    593 351.1  17.3  34070  288.05 0854.37
2009/04/23 17:00:02.9      69    489    144    495    516   8.1  16.3  34064  287.96 0854.37
2009/04/23 17:00:03.0     461    407     97    616    624  48.6   9.0  34074  288.11 0854.37
2009/04/23 17:00:03.1     523    484     83    713    718  47.2   6.7  34064  287.96 0854.37
2009/04/23 17:00:03.2     399    491   -169    633    656  39.1 -15.0  34070  288.05 0854.37
2009/04/23 17:00:03.3     309    365   -187    479    514  40.3 -26.8  34068  288.03 0854.37
2009/04/23 17:00:03.4     504    342   -117    610    622  55.8 -10.9  34064  287.94 0854.37
2009/04/23 17:00:03.5     295    305   -258    425    497  44.1 -38.6  34066  287.98 0854.37
2009/04/23 17:00:03.6     293    362   -161    466    494  39.0 -19.1  34058  287.85 0854.37
2009/04/23 17:00:03.7     444    358    -22    571    572  51.2  -2.2  34066  287.98 0854.37
2009/04/23 17:00:03.8     316     87    -30    328    330  74.6  -5.4  34058  287.86 0854.37
2009/04/23 17:00:03.9     216     58   -253    224    337  74.9 -58.3  34068  288.00 0854.37
2009/04/23 17:00:04.0     214      3    -82    215    230  89.1 -26.1  34048  287.69 0854.37
2009/04/23 17:00:04.1      22     65    -19     69     72  19.2 -15.5  34070  288.06 0854.37
2009/04/23 17:00:04.2      39    -39     11     56     58 135.0  11.0  34070  288.04 0854.37
2009/04/23 17:00:04.3    -109    -93    -81    144    165 229.6 -36.3  34064  287.94 0854.37
2009/04/23 17:00:04.4      41   -204    -59    209    217 168.7 -20.2  34066  287.99 0854.37
2009/04/23 17:00:04.5     224     93    140    243    280  67.3  32.7  34052  287.73 0854.37
2009/04/23 17:00:04.6     280    349    158    448    476  38.8  19.5  34042  287.58 0854.38
2009/04/23 17:00:04.7     284    290    138    407    431  44.4  18.8  34064  287.95 0854.38
2009/04/23 17:00:04.8     201    335     91    391    402  31.0  13.2  34058  287.86 0854.38
2009/04/23 17:00:04.9     271    264    -15    379    380  45.8  -2.3  34068  288.01 0854.38
2009/04/23 17:00:05.0     222    215     96    310    325  46.0  17.3  34064  287.93 0854.38
2009/04/23 17:00:05.1    -117    236     93    264    279 333.5  20.0  34060  287.87 0854.38
2009/04/23 17:00:05.2      63    377     92    383    394   9.6  13.6  34058  287.84 0854.38
2009/04/23 17:00:05.3     122    456     55    473    477  15.1   6.7  34052  287.73 0854.38
2009/04/23 17:00:05.4     144    435    107    459    472  18.4  13.2  34048  287.68 0854.38
2009/04/23 17:00:05.5     123    447     40    464    466  15.4   5.0  34056  287.81 0854.38
2009/04/23 17:00:05.6      35    455     65    457    462   4.5   8.1  34066  287.97 0854.38
2009/04/23 17:00:05.7      26    344    146    345    374   4.4  24.3  34060  287.88 0854.38
2009/04/23 17:00:05.8      18    286    122    287    311   3.6  24.3  34058  287.85 0854.38
2009/04/23 17:00:05.9      14    317    110    318    337   2.7  19.2  34072  288.08 0854.38
2009/04/23 17:00:06.0      31    360    124    362    383   5.0  18.9  34102  288.60 0854.38
2009/04/23 17:00:06.1     -95    339     96    353    366 344.3  15.3  34112  288.76 0854.38
2009/04/23 17:00:06.2     -59    296     53    302    307 348.7  10.1  34110  288.73 0854.38
2009/04/23 17:00:06.3    -224    237     92    327    340 316.7  15.8  34102  288.60 0854.38
2009/04/23 17:00:06.4    -287    119    148    311    344 292.6  27.2  34154  289.47 0854.38
2009/04/23 17:00:06.5    -103    190    -17    217    218 331.5  -4.6  34134  289.13 0854.38
2009/04/23 17:00:06.6      36    152    123    157    199  13.3  42.0  34150  289.40 0854.38
2009/04/23 17:00:06.7     140      8    166    141    217  86.5  55.4  34126  288.99 0854.38
2009/04/23 17:00:06.8      35    219    117    222    250   9.1  30.1  34086  288.31 0854.38
2009/04/23 17:00:06.9     -35    338     80    340    350 354.0  13.3  34090  288.37 0854.38
2009/04/23 17:00:07.0     -57    401    173    406    441 351.9  24.6  34192  290.11 0854.38
2009/04/23 17:00:07.1      -7    510    159    511    536 359.1  17.3  34130  289.07 0854.38
2009/04/23 17:00:07.2     132    356    218    380    438  20.4  32.6  34130  289.07 0854.38
2009/04/23 17:00:07.3     121    592    182    605    632  11.6  16.8  34180  289.91 0854.38
2009/04/23 17:00:07.4     152    485    169    509    537  17.4  18.4  34154  289.46 0854.38
2009/04/23 17:00:07.5     195    607     96    638    646  17.8   8.6  34078  288.18 0854.38
2009/04/23 17:00:07.6     144    559     14    578    579  14.5   1.4  34138  289.20 0854.38
2009/04/23 17:00:07.7     131    437     33    457    459  16.7   4.2  34194  290.16 0854.38
2009/04/23 17:00:07.8     104    385    163    399    431  15.2  23.5  34136  289.16 0854.38
2009/04/23 17:00:07.9      44    521    320    524    613   4.9  34.4  34118  288.85 0854.38
2009/04/23 17:00:08.0     214    418    334    470    576  27.2  39.0  34196  290.19 0854.38
2009/04/23 17:00:08.1     267    428    387    505    636  32.0  41.4  34258  291.22 0854.38
2009/04/23 17:00:08.2     503    342    243    609    655  55.8  23.0  34184  289.98 0854.38
2009/04/23 17:00:08.3     578    357    159    680    699  58.3  13.2  34184  289.97 0854.38
2009/04/23 17:00:08.4     613    566    132    835    846  47.3   9.0  34102  288.58 0854.38
2009/04/23 17:00:08.5     414    689    117    805    814  31.0   8.3  34052  287.74 0854.38
2009/04/23 17:00:08.6     439    696     12    823    824  32.2   0.9  34048  287.66 0854.38
2009/04/23 17:00:08.7     353    636    -34    728    729  29.0  -2.7  34054  287.78 0854.38
2009/04/23 17:00:08.8     432    579     -3    723    724  36.8  -0.3  34054  287.78 0854.38
2009/04/23 17:00:08.9     143    554     83    573    580  14.5   8.3  34056  287.82 0854.38
2009/04/23 17:00:09.0     -24    528     -5    529    530 357.4  -0.6  34066  287.97 0854.38
2009/04/23 17:00:09.1      42    238   -113    242    267  10.2 -31.5  34068  288.02 0854.38
2009/04/23 17:00:09.2      46    231    -99    236    255  11.3 -28.5  34068  288.00 0854.38
2009/04/23 17:00:09.3      25    357    -80    358    367   4.0 -12.7  34072  288.08 0854.38
2009/04/23 17:00:09.4     118    448    -88    464    473  14.8 -10.8  34100  288.57 0854.38
2009/04/23 17:00:09.5     177    418   -104    455    467  23.0 -12.9  34222  290.61 0854.38
2009/04/23 17:00:09.6     474    387    233    613    655  50.8  21.8  34162  289.62 0854.38
2009/04/23 17:00:09.7     310    363    234    478    532  40.6  28.0  34186  290.01 0854.38
2009/04/23 17:00:09.8     474    572    115    743    752  39.6   8.8  34102  288.58 0854.38
2009/04/23 17:00:09.9     489    587     79    765    769  39.8   5.9  34110  288.72 0854.38
2009/04/23 17:00:10.0     373    450    134    585    601  39.7  12.9  34078  288.19 0854.38
2009/04/23 17:00:10.1     253    518     53    577    580  26.1   5.3  34078  288.20 0854.38
2009/04/23 17:00:10.2     335    380   -139    507    526  41.4 -15.4  34126  289.01 0854.38
2009/04/23 17:00:10.3     360    384   -146    527    547  43.2 -15.5  34104  288.62 0854.38
2009/04/23 17:00:10.4     365    400   -120    542    556  42.4 -12.5  34080  288.23 0854.38
2009/04/23 17:00:10.5     331    488   -135    590    606  34.2 -12.9  34092  288.41 0854.38
2009/04/23 17:00:10.6     411    195    -23    455    456  64.6  -3.0  34148  289.36 0854.39
2009/04/23 17:00:10.7     242    267     43    361    364  42.2   6.9  34130  289.08 0854.39
2009/04/23 17:00:10.8     250    266    118    366    385  43.2  17.9  34156  289.52 0854.39
2009/04/23 17:00:10.9     560    199     87    595    602  70.4   8.3  34122  288.92 0854.39
2009/04/23 17:00:11.0     513    204   -136    553    570  68.3 -13.9  34100  288.57 0854.39
2009/04/23 17:00:11.1     532    360    -41    643    645  55.9  -3.7  34164  289.64 0854.39
2009/04/23 17:00:11.2     472    300     88    560    568  57.6   9.0  34160  289.58 0854.39
2009/04/23 17:00:11.3     424    398    130    582    597  46.8  12.6  34198  290.22 0854.39
2009/04/23 17:00:11.4     583    349    132    680    693  59.1  11.0  34160  289.56 0854.39
2009/04/23 17:00:11.5     385    238    -52    453    457  58.2  -6.6  34120  288.90 0854.39
2009/04/23 17:00:11.6     451    292    225    538    583  57.0  24.1  34250  291.09 0854.39
2009/04/23 17:00:11.7     558    201    357    594    693  70.2  33.8  34238  290.89 0854.39
2009/04/23 17:00:11.8     388    177    275    427    507  65.5  35.9  34252  291.12 0854.39
2009/04/23 17:00:11.9     341    245    212    420    470  54.3  28.8  34218  290.56 0854.39
2009/04/23 17:00:12.0     622    431    122    757    767  55.3   9.2  34148  289.38 0854.39
2009/04/23 17:00:12.1     564    535    183    778    800  46.5  13.2  34154  289.46 0854.39
2009/04/23 17:00:12.2     599    138     74    615    620  77.0   6.9  34214  290.48 0854.39
2009/04/23 17:00:12.4     571    136    115    587    599  76.6  11.1  34144  289.30 0854.39
2009/04/23 17:00:12.5     511    207    257    552    608  67.9  26.7  34154  289.47 0854.39
2009/04/23 17:00:12.6     649    212    169    683    704  71.9  13.9  34192  290.11 0854.39
2009/04/23 17:00:12.7     680    226     54    717    719  71.6   4.3  34232  290.79 0854.39
2009/04/23 17:00:12.8     688     42     33    690    691  86.5   2.8  34204  290.31 0854.39
2009/04/23 17:00:12.9     558    125    297    572    644  77.3  29.6  34274  291.52 0854.39
2009/04/23 17:00:13.0     502    203    276    542    608  67.9  29.2  34296  291.87 0854.39
2009/04/23 17:00:13.1     460    123    357    477    595  75.0  40.6  34286  291.71 0854.39
2009/04/23 17:00:13.2     724    210    285    754    806  73.8  21.7  34222  290.64 0854.39
2009/04/23 17:00:13.3     560    210    329    599    683  69.4  31.3  34218  290.54 0854.39
2009/04/23 17:00:13.4     700    189    290    726    781  74.9  23.0  34192  290.12 0854.39
2009/04/23 17:00:13.5     682    207    181    714    737  73.1  14.3  34222  290.64 0854.39
2009/04/23 17:00:13.6     607    459    172    762    782  52.9  12.8  34110  288.73 0854.39
2009/04/23 17:00:13.7     465    465    143    658    674  45.0  12.3  34128  289.04 0854.39
2009/04/23 17:00:13.8     565    395    125    690    702  55.0  10.3  34208  290.39 0854.39
2009/04/23 17:00:13.9     615    318    143    693    708  62.6  11.7  34214  290.50 0854.39
2009/04/23 17:00:14.0     478    284    124    557    571  59.3  12.6  34220  290.60 0854.39
2009/04/23 17:00:14.1     449    279     82    529    536  58.1   8.8  34204  290.31 0854.39
2009/04/23 17:00:14.2     449    290     17    535    536  57.1   1.9  34194  290.16 0854.39
2009/04/23 17:00:14.3     393    275     27    480    481  55.0   3.3  34106  288.66 0854.39
2009/04/23 17:00:14.4     505    194    116    542    555  68.9  12.2  34222  290.63 0854.39
2009/04/23 17:00:14.5     516    317    134    606    621  58.4  12.5  34222  290.62 0854.39
2009/04/23 17:00:14.6     432    206    154    479    504  64.5  17.8  34266  291.36 0854.39
2009/04/23 17:00:14.7     321    252    136    409    432  51.9  18.5  34194  290.14 0854.39
2009/04/23 17:00:14.8     227    317    271    390    474  35.6  38.1  34214  290.48 0854.39
2009/04/23 17:00:14.9     320    258    297    412    507  51.1  39.3  34252  291.13 0854.39
2009/04/23 17:00:15.0     355    487    217    604    641  36.1  20.6  34166  289.69 0854.39
2009/04/23 17:00:15.1     583    431    227    726    761  53.5  17.4  34118  288.85 0854.39
2009/04/23 17:00:15.2     568    338    214    662    696  59.3  17.9  34130  289.07 0854.39
2009/04/23 17:00:15.3     528    378    130    650    663  54.4  11.3  34092  288.41 0854.39
2009/04/23 17:00:15.4     519    423    139    670    685  50.8  11.8  34132  289.10 0854.39
2009/04/23 17:00:15.5     458    329     73    564    569  54.3   7.4  34086  288.31 0854.39
2009/04/23 17:00:15.6     351    301     90    463    472  49.3  11.1  34102  288.59 0854.39
2009/04/23 17:00:15.7     416    387    186    569    599  47.1  18.1  34144  289.29 0854.39
2009/04/23 17:00:15.8     698    328    136    772    785  64.8  10.0  34114  288.78 0854.39
2009/04/23 17:00:15.9     679    287    101    738    745  67.1   7.8  34174  289.80 0854.39
2009/04/23 17:00:16.0     505    259    176    568    595  62.8  17.3  34166  289.68 0854.39
2009/04/23 17:00:16.1     593    275    106    654    663  65.1   9.2  34128  289.02 0854.39
2009/04/23 17:00:16.2     607    196     44    638    640  72.1   4.0  34178  289.87 0854.39
2009/04/23 17:00:16.3     707     15     61    708    711  88.7   5.0  34208  290.37 0854.39
2009/04/23 17:00:16.4     776    -81     50    781    783  96.0   3.7  34140  289.22 0854.39
2009/04/23 17:00:16.5     405   -457   -204    611    644 138.5 -23.6  34126  288.99 0854.39
2009/04/23 17:00:16.6     -93   -236    -62    254    262 201.6 -13.9  34104  288.63 0854.39
2009/04/23 17:00:16.7    -177    156   -290    237    374 311.4 -60.9  34104  288.64 0854.40
2009/04/23 17:00:16.8     157    384   -391    416    570  22.3 -52.4  34114  288.79 0854.40
2009/04/23 17:00:16.9     397    394    -31    560    561  45.2  -3.2  34122  288.94 0854.40
2009/04/23 17:00:17.0     490    258     28    554    555  62.2   2.9  34094  288.47 0854.40
2009/04/23 17:00:17.1     396    236   -175    462    494  59.2 -26.1  34104  288.64 0854.40
2009/04/23 17:00:17.2     315    376    -71    491    497  39.9  -8.2  34090  288.39 0854.40
2009/04/23 17:00:17.3     321    261   -128    414    434  50.9 -17.2  34074  288.11 0854.40
2009/04/23 17:00:17.4     342    475   -152    586    606  35.7 -14.6  34088  288.36 0854.40
2009/04/23 17:00:17.5     663    466    -63    811    814  54.9  -4.5  34100  288.55 0854.40
2009/04/23 17:00:17.6     561    403   -136    692    706  54.3 -11.1  34084  288.29 0854.40
2009/04/23 17:00:17.7     726    510   -136    888    899  54.9  -8.7  34104  288.61 0854.40
2009/04/23 17:00:17.8     875    220   -157    903    917  75.9  -9.9  34112  288.77 0854.40
2009/04/23 17:00:17.9     578    107   -319    588    668  79.5 -35.2  34092  288.43 0854.40
2009/04/23 17:00:18.0     472   -221   -386    522    649 115.1 -44.5  34094  288.46 0854.40
2009/04/23 17:00:18.1     450     82   -565    458    727  79.7 -61.4  34092  288.42 0854.40
2009/04/23 17:00:18.2     447     96   -209    458    503  77.8 -30.7  34074  288.13 0854.40
2009/04/23 17:00:18.3     288     63   -127    295    321  77.6 -29.2  34074  288.10 0854.40
2009/04/23 17:00:18.4      99   -162   -264    190    325 148.6 -65.2  34096  288.48 0854.40
2009/04/23 17:00:18.5      88   -147   -366    172    404 149.0 -77.5  34114  288.79 0854.40
2009/04/23 17:00:18.6     203   -202   -370    287    468 134.8 -62.9  34138  289.19 0854.40
2009/04/23 17:00:18.7     108    -13   -218    109    243  97.0 -76.1  34126  289.01 0854.39
2009/04/23 17:00:18.8    -137     65   -327    152    360 295.4 -77.9  34098  288.53 0854.39
2009/04/23 17:00:18.9     -21    -32   -225     39    228 212.6 -90.0  34106  288.65 0854.39
2009/04/23 17:00:19.0    -136    -42   -219    143    261 252.7 -68.5  34106  288.65 0854.39
2009/04/23 17:00:19.1     -24    140    -64    143    156 350.2 -30.1  34104  288.64 0854.39
2009/04/23 17:00:19.2     -18    122     49    124    133 351.5  22.5  34104  288.62 0854.39
2009/04/23 17:00:19.3    -134    158    -17    208    209 319.7  -4.9  34122  288.94 0854.39
2009/04/23 17:00:19.4    -102     84     88    133    159 309.6  36.7  34118  288.86 0854.39
2009/04/23 17:00:19.5    -177    -54    115    186    218 252.9  34.8  34118  288.87 0854.39
2009/04/23 17:00:19.6    -260   -191    -75    323    332 233.6 -13.1  34130  289.08 0854.39
2009/04/23 17:00:19.7    -124   -283   -100    310    325 203.6 -23.0  34114  288.80 0854.38
2009/04/23 17:00:19.8    -225    -58    130    233    266 255.4  31.4  34126  289.00 0854.38
2009/04/23 17:00:19.9    -180    -45     82    186    203 255.8  25.1  34130  289.08 0854.38
2009/04/23 17:00:20.0    -130    -22     59    132    144 260.3  25.7  34116  288.82 0854.38
2009/04/23 17:00:20.1      75    -28    -82     81    115 110.8 -53.5  34114  288.79 0854.38
2009/04/23 17:00:20.2     146    347     20    377    378  22.8   3.1  34088  288.35 0854.38
2009/04/23 17:00:20.3     -78    302     68    312    320 345.5  12.3  34090  288.37 0854.38
2009/04/23 17:00:20.4     -73    424    -16    431    432 350.2  -2.2  34094  288.46 0854.38
2009/04/23 17:00:20.5     197    297     18    357    358  33.6   3.0  34102  288.60 0854.38
2009/04/23 17:00:20.6     156    245    112    291    311  32.6  22.0  34108  288.70 0854.38
2009/04/23 17:00:20.7     222    338    -61    405    410  33.4  -8.6  34106  288.65 0854.38
2009/04/23 17:00:20.8     272    320    -76    421    428  40.4 -10.3  34106  288.67 0854.38
2009/04/23 17:00:20.9     229    255    -31    344    346  41.9  -5.2  34090  288.38 0854.38
2009/04/23 17:00:21.0     294    243     29    382    383  50.4   4.4  34090  288.37 0854.38
2009/04/23 17:00:21.1     307    187     29    360    362  58.6   4.7  34094  288.44 0854.38
2009/04/23 17:00:21.2     247    281    101    375    389  41.3  15.2  34086  288.33 0854.38
2009/04/23 17:00:21.3     188    338    -12    388    389  29.1  -1.9  34080  288.23 0854.38
2009/04/23 17:00:21.4     -93    340   -111    353    371 344.7 -17.5  34088  288.35 0854.38
2009/04/23 17:00:21.5    -169    398    -86    433    442 337.0 -11.3  34084  288.29 0854.38
2009/04/23 17:00:21.6    -308    320   -144    445    468 316.1 -17.9  34090  288.39 0854.38
2009/04/23 17:00:21.7    -133    323     32    350    352 337.5   5.3  34096  288.50 0854.38
2009/04/23 17:00:21.8    -257    310     -8    404    405 320.3  -1.2  34108  288.70 0854.38
2009/04/23 17:00:21.9     -36    265    115    268    291 352.2  24.9  34126  289.00 0854.38
2009/04/23 17:00:22.0    -281    243     33    372    374 310.8   5.1  34108  288.69 0854.38
2009/04/23 17:00:22.1    -260    358   -108    443    457 324.0 -13.8  34086  288.33 0854.38
2009/04/23 17:00:22.2    -219     87     16    236    237 291.8   3.9  34100  288.54 0854.38
2009/04/23 17:00:22.3    -265    162    -39    311    314 301.5  -7.2  34102  288.58 0854.38
2009/04/23 17:00:22.4    -295    139    -12    327    328 295.3  -2.2  34102  288.59 0854.38
2009/04/23 17:00:22.5    -450    285    -15    533    534 302.4  -1.7  34106  288.67 0854.38
2009/04/23 17:00:22.6    -448    431   -188    622    649 313.9 -21.7  34102  288.60 0854.38
2009/04/23 17:00:22.7    -120    446     81    463    471 344.9  10.0  34116  288.81 0854.38
2009/04/23 17:00:22.8     122    439    112    456    470  15.6  13.9  34114  288.79 0854.38
2009/04/23 17:00:22.9     255    345     78    430    438  36.5  10.3  34116  288.82 0854.38
2009/04/23 17:00:23.0     343    291     79    451    459  49.7  10.0  34146  289.33 0854.38
2009/04/23 17:00:23.1     271    317    -38    418    420  40.6  -5.3  34066  287.99 0854.38
2009/04/23 17:00:23.2     166    222    -79    278    289  36.7 -20.7  34078  288.19 0854.38
2009/04/23 17:00:23.3      66    183      0    195    196  19.8   0.2  34086  288.31 0854.38
2009/04/23 17:00:23.4     128    207    149    244    285  31.6  34.4  34094  288.44 0854.38
2009/04/23 17:00:23.5      21    350    159    351    385   3.5  26.2  34188  290.06 0854.38
2009/04/23 17:00:23.6      30    283    183    285    338   6.2  35.6  34194  290.15 0854.38
2009/04/23 17:00:23.7     -36    135    167    140    217 344.8  56.1  34182  289.94 0854.38
2009/04/23 17:00:23.8     -55    138     80    149    169 338.1  30.6  34176  289.85 0854.38
2009/04/23 17:00:23.9     -75     45     89     88    125 301.1  50.1  34184  289.99 0854.38
2009/04/23 17:00:24.0    -106    -26     69    110    129 256.3  35.5  34196  290.19 0854.38
2009/04/23 17:00:24.1    -229    -96     91    249    265 247.2  21.0  34158  289.53 0854.38
2009/04/23 17:00:24.2    -268    -37    131    271    301 262.1  27.3  34150  289.39 0854.38
2009/04/23 17:00:24.3    -423    162    -60    454    458 291.0  -7.6  34136  289.16 0854.38
2009/04/23 17:00:24.4    -312    120   -201    335    390 291.1 -38.2  34068  288.01 0854.38
2009/04/23 17:00:24.5    -319    -36   -164    322    361 263.4 -33.6  34096  288.49 0854.38
2009/04/23 17:00:24.6    -352    125      4    374    375 289.6   0.7  34094  288.47 0854.38
2009/04/23 17:00:24.7    -302    124     51    327    332 292.3   9.0  34082  288.25 0854.38
2009/04/23 17:00:24.8    -361    152     10    392    393 292.8   1.5  34114  288.79 0854.38
2009/04/23 17:00:24.9    -454    165    -19    484    485 290.0  -2.3  34122  288.93 0854.38
2009/04/23 17:00:25.0    -260    234    137    351    376 312.0  22.7  34136  289.15 0854.38
2009/04/23 17:00:25.1    -230    297    140    376    401 322.3  21.4  34148  289.38 0854.38
2009/04/23 17:00:25.2    -215    259    -10    337    338 320.4  -1.7  34152  289.42 0854.38
2009/04/23 17:00:25.3    -366    225    -31    430    432 301.6  -4.1  34140  289.22 0854.38
2009/04/23 17:00:25.4    -362    362   -104    513    524 315.0 -11.5  34172  289.79 0854.38
2009/04/23 17:00:25.5    -271    674    139    727    741 338.1  10.8  34148  289.36 0854.38
2009/04/23 17:00:25.6    -142    683    148    698    714 348.2  12.0  34134  289.13 0854.38
2009/04/23 17:00:25.7    -338    455    416    568    704 323.4  39.8  34150  289.41 0854.38
2009/04/23 17:00:25.8     -22    481    298    482    566 357.3  34.6  34128  289.04 0854.38
2009/04/23 17:00:25.9    -170    478    169    508    536 340.4  18.4  34138  289.21 0854.38
2009/04/23 17:00:26.0    -259    574    143    630    647 335.7  12.8  34188  290.06 0854.38
2009/04/23 17:00:26.1    -304    548    118    627    639 331.0  10.7  34212  290.45 0854.38
2009/04/23 17:00:26.2      16    448     74    449    456   2.1   9.4  34170  289.75 0854.38
2009/04/23 17:00:26.3      60    621    213    625    661   5.6  18.8  34142  289.25 0854.38
2009/04/23 17:00:26.4     142    594    274    611    669  13.5  25.7  34140  289.23 0854.38
2009/04/23 17:00:26.5     253    580    128    634    647  23.6  11.5  34164  289.64 0854.38
2009/04/23 17:00:26.6     290    595      8    663    664  26.0   0.7  34154  289.48 0854.38
2009/04/23 17:00:26.7     458    529    -68    700    704  40.9  -5.6  34094  288.45 0854.38
2009/04/23 17:00:26.8     242    576   -204    626    658  22.8 -23.2  34142  289.28 0854.38
2009/04/23 17:00:26.9     209    459   -155    505    528  24.5 -21.9  34130  289.07 0854.38
2009/04/23 17:00:27.0       6    489    -72    490    496   0.8  -8.4  34110  288.73 0854.38
2009/04/23 17:00:27.1    -187    487   -148    522    543 339.0 -15.9  34114  288.79 0854.38
2009/04/23 17:00:27.2     -84    516   -164    524    549 350.7 -22.3  34068  288.01 0854.38
2009/04/23 17:00:27.3       9    790   -236    791    826   0.7 -16.6  34066  287.98 0854.38
2009/04/23 17:00:27.4      87    656   -154    662    680   7.6 -13.1  34064  287.94 0854.38
2009/04/23 17:00:27.5     184    529   -144    561    580  19.2 -14.4  34044  287.61 0854.38
2009/04/23 17:00:27.6     213    489   -139    534    552  23.6 -14.7  34050  287.72 0854.38
2009/04/23 17:00:27.7      95    479   -137    489    508  11.2 -15.7  34056  287.81 0854.37
2009/04/23 17:00:27.8     -26    469   -148    470    492 356.8 -22.5  34072  288.08 0854.37
2009/04/23 17:00:27.9    -102    575   -135    585    601 349.9 -13.0  34076  288.15 0854.37
2009/04/23 17:00:28.0    -440    499    -53    666    669 318.6  -4.6  34082  288.26 0854.37
2009/04/23 17:00:28.1    -415    408    -19    583    584 314.5  -1.9  34072  288.09 0854.37
2009/04/23 17:00:28.2    -314    293   -215    430    480 313.0 -32.9  34062  287.91 0854.37
2009/04/23 17:00:28.3    -454     35   -222    456    507 274.5 -32.3  34072  288.07 0854.37
2009/04/23 17:00:28.4    -206     75   -167    220    276 290.2 -45.3  34054  287.78 0854.37
2009/04/23 17:00:28.5    -104    116    -97    157    184 318.1 -39.4  34072  288.09 0854.37
2009/04/23 17:00:28.6     -61    131    -85    145    168 335.1 -37.5  34074  288.11 0854.37
2009/04/23 17:00:28.7     -34    211    -98    214    235 350.7 -30.6  34082  288.26 0854.37
2009/04/23 17:00:28.8     -56    185    -81    194    210 343.1 -28.5  34082  288.25 0854.37
2009/04/23 17:00:28.9     -65    195    -77    206    219 341.5 -25.7  34080  288.23 0854.37
2009/04/23 17:00:29.0     -48    178    -60    185    194 344.9 -23.6  34074  288.13 0854.37
2009/04/23 17:00:29.1      35    236    -30    239    241   8.5  -7.3  34070  288.04 0854.37
2009/04/23 17:00:29.2     172    214     69    275    284  38.7  14.2  34070  288.05 0854.37
2009/04/23 17:00:29.3      79    266     73    278    288  16.7  14.7  34084  288.27 0854.37
2009/04/23 17:00:29.4     143    343    256    372    451  22.7  37.9  34084  288.28 0854.37
2009/04/23 17:00:29.5     151    328    245    362    437  24.8  37.4  34070  288.04 0854.37
2009/04/23 17:00:29.6     186    385     87    428    438  25.9  11.6  34060  287.87 0854.37
2009/04/23 17:00:29.7     184    359    141    404    429  27.2  19.3  34062  287.90 0854.35
2009/04/23 17:00:29.8     142    297     80    330    340  25.5  13.7  34052  287.76 0854.35
2009/04/23 17:00:29.9     191    246    156    312    348  37.8  28.5  34058  287.83 0854.35
2009/04/23 17:00:30.0     138    229    117    268    292  31.0  25.1  34056  287.80 0854.35
2009/04/23 17:00:30.1      85    143    204    167    263  30.7  56.4  34080  288.21 0854.35
2009/04/23 17:00:30.2      74    172    156    188    244  23.2  43.8  34074  288.13 0854.35
2009/04/23 17:00:30.3      67    141     63    157    169  25.3  23.0  34066  287.98 0854.35
2009/04/23 17:00:30.4      18    136    134    138    192   7.6  49.4  34068  288.01 0854.35
2009/04/23 17:00:30.5     -46    -24    132     53    142 242.0  77.1  34092  288.42 0854.35
2009/04/23 17:00:30.6     -42     67    170     80    187 327.5  73.1  34082  288.26 0854.35
2009/04/23 17:00:30.7       0     56    209     57    216 359.1  84.8  34068  288.03 0854.35
2009/04/23 17:00:30.8      11     62    205     64    214  10.7  82.0  34076  288.16 0854.35
2009/04/23 17:00:30.9      12    190    207    191    281   3.6  52.2  34088  288.34 0854.35
2009/04/23 17:00:31.0      97    -58    270    114    293 121.1  76.0  34088  288.36 0854.35
2009/04/23 17:00:31.1     373   -190    254    419    489 117.0  34.1  34076  288.15 0854.35
2009/04/23 17:00:31.2     167    -28    209    170    269  99.5  56.4  34080  288.22 0854.35
2009/04/23 17:00:31.3     -33     11     95     35    101 288.6  79.2  34098  288.53 0854.35
2009/04/23 17:00:31.4    -102    182    166    209    266 330.6  42.7  34088  288.34 0854.35
2009/04/23 17:00:31.5     -73    201     -7    215    216 340.0  -2.1  34084  288.28 0854.35
2009/04/23 17:00:31.6     -76    294    -55    304    310 345.5 -10.4  34080  288.21 0854.35
2009/04/23 17:00:31.7      16    432      6    433    434   2.2   0.8  34096  288.48 0854.34
2009/04/23 17:00:31.8    -179    410     71    448    454 336.4   9.0  34086  288.33 0854.34
2009/04/23 17:00:31.9    -198    309    118    368    387 327.4  17.8  34084  288.30 0854.34
2009/04/23 17:00:32.0     -83    321    142    332    361 345.4  24.6  34076  288.15 0854.34
2009/04/23 17:00:32.1     120    461    137    477    497  14.6  16.0  34122  288.93 0854.34
2009/04/23 17:00:32.2      80    465     27    473    474   9.8   3.3  34078  288.20 0854.34
2009/04/23 17:00:32.3     148    424    -29    450    451  19.3  -3.8  34102  288.58 0854.34
2009/04/23 17:00:32.4     147    191    123    242    271  37.6  28.7  34128  289.02 0854.34
2009/04/23 17:00:32.5      55    221    214    228    312  14.0  48.2  34114  288.78 0854.34
2009/04/23 17:00:32.6    -113    203     54    233    240 331.0  13.2  34092  288.41 0854.34
2009/04/23 17:00:32.7     -29    162    189    165    250 349.8  54.3  34082  288.25 0854.34
2009/04/23 17:00:32.8    -154    288    303    327    445 331.8  47.8  34092  288.43 0854.34
2009/04/23 17:00:32.9    -194    228    174    300    346 319.5  32.8  34096  288.50 0854.34
2009/04/23 17:00:33.0     -73    220    196    233    304 341.5  44.1  34102  288.58 0854.34
2009/04/23 17:00:33.1    -235    236    126    334    356 315.1  21.6  34138  289.21 0854.34
2009/04/23 17:00:33.2    -225    257     74    342    351 318.8  12.3  34158  289.54 0854.34
2009/04/23 17:00:33.3    -315    180     19    364    365 299.8   3.1  34190  290.08 0854.34
2009/04/23 17:00:33.4    -337    118     42    358    361 289.3   6.7  34192  290.10 0854.34
2009/04/23 17:00:33.5    -289    127      4    316    317 293.7   0.8  34128  289.02 0854.34
2009/04/23 17:00:33.6    -327    247     51    411    415 307.1   7.1  34184  289.97 0854.34
2009/04/23 17:00:33.7    -287    287     27    407    408 315.0   3.8  34162  289.61 0854.31
2009/04/23 17:00:33.8    -215    322    176    388    426 326.3  26.2  34198  290.22 0854.31
2009/04/23 17:00:33.9    -274    273     25    387    388 314.9   3.7  34182  289.93 0854.31
2009/04/23 17:00:34.0    -216    378     -2    436    437 330.3  -0.3  34186  290.02 0854.31
2009/04/23 17:00:34.1    -184    369     87    413    423 333.5  12.0  34196  290.17 0854.31
2009/04/23 17:00:34.2    -219    347     58    411    416 327.7   8.1  34196  290.17 0854.31
2009/04/23 17:00:34.3    -164    276    150    322    355 329.3  26.9  34202  290.30 0854.31
2009/04/23 17:00:34.4     141    309    120    340    360  24.6  20.2  34214  290.50 0854.31
2009/04/23 17:00:34.5     162    424    158    454    480  20.9  20.0  34218  290.54 0854.31
2009/04/23 17:00:34.6     106    423    205    437    482  14.1  27.1  34192  290.12 0854.31
2009/04/23 17:00:34.7     109    493    226    506    554  12.5  25.7  34176  289.85 0854.31
2009/04/23 17:00:34.8     142    435    153    458    484  18.1  18.5  34198  290.23 0854.31
2009/04/23 17:00:34.9     116    506    188    520    554  12.9  19.9  34194  290.14 0854.31
2009/04/23 17:00:35.0     177    535    170    564    590  18.3  16.8  34216  290.53 0854.31
2009/04/23 17:00:35.1     270    405      1    488    489  33.7   0.2  34218  290.54 0854.31
2009/04/23 17:00:35.2     288    289    122    409    428  44.9  16.7  34278  291.57 0854.31
2009/04/23 17:00:35.3     229    360    173    427    460  32.5  23.2  34280  291.60 0854.31
2009/04/23 17:00:35.4     507    302     17    591    592  59.3   1.7  34210  290.41 0854.31
2009/04/23 17:00:35.5     736    381    266    829    871  62.6  17.8  34168  289.71 0854.31
2009/04/23 17:00:35.6     822    437    177    931    948  62.0  10.8  34088  288.34 0854.31
2009/04/23 17:00:35.7     761    557    164    944    959  53.8   9.9  34084  288.30 0854.29
2009/04/23 17:00:35.8     677    412     98    793    800  58.7   7.1  34128  289.03 0854.29
2009/04/23 17:00:35.9     608    537    -52    812    814  48.6  -3.7  34134  289.14 0854.29
2009/04/23 17:00:36.0     718    483    -57    866    868  56.1  -3.8  34122  288.92 0854.29
2009/04/23 17:00:36.1     829    408    -30    924    925  63.8  -1.9  34072  288.09 0854.29
2009/04/23 17:00:36.2     704    545    224    891    919  52.3  14.2  34194  290.14 0854.29
2009/04/23 17:00:36.3     659    494     78    824    828  53.1   5.5  34108  288.69 0854.29
2009/04/23 17:00:36.4     927    518    185   1063   1080  60.8   9.9  34208  290.37 0854.29
2009/04/23 17:00:36.5     906    498    182   1034   1051  61.2  10.0  34124  288.95 0854.29
2009/04/23 17:00:36.6     491    381    -88    622    629  52.2  -8.1  34118  288.87 0854.29
2009/04/23 17:00:36.7     359    242   -282    434    517  56.0 -40.4  34068  288.03 0854.29
2009/04/23 17:00:36.8     435    389   -205    584    620  48.2 -19.4  34070  288.04 0854.29
2009/04/23 17:00:36.9     505    410   -296    651    715  50.9 -30.6  34084  288.28 0854.29
2009/04/23 17:00:37.0     417    352   -350    546    648  49.8 -40.1  34070  288.06 0854.29
2009/04/23 17:00:37.1     326    326   -382    462    599  45.0 -48.1  34076  288.16 0854.29
2009/04/23 17:00:37.2     291    428   -355    518    627  34.3 -42.2  34068  288.00 0854.29
2009/04/23 17:00:37.3     375    351   -316    514    603  46.9 -38.9  34070  288.04 0854.29
2009/04/23 17:00:37.4     300    359   -155    469    493  39.9 -23.6  34072  288.07 0854.29
2009/04/23 17:00:37.5     325    354   -124    481    497  42.5 -14.5  34070  288.05 0854.29
2009/04/23 17:00:37.6     147    514   -206    535    573  16.0 -26.5  34058  287.86 0854.29
2009/04/23 17:00:37.7     189    441   -200    480    520  23.2 -28.5  34052  287.73 0854.33
2009/04/23 17:00:37.8     372    280   -239    466    523  53.0 -33.7  34044  287.61 0854.33
2009/04/23 17:00:37.9     263    272   -210    379    433  44.1 -35.8  34044  287.62 0854.33
2009/04/23 17:00:38.0     288    265    -64    392    398  47.4  -9.3  34038  287.52 0854.33
2009/04/23 17:00:38.1     288    197    -15    350    351  55.6  -2.5  34044  287.62 0854.33
2009/04/23 17:00:38.3     298    136     29    328    330  65.5   5.2  34048  287.66 0854.33
2009/04/23 17:00:38.3     206    125      3    242    243  58.7   0.8  34050  287.70 0854.33
2009/04/23 17:00:38.4     181    193     67    265    274  43.2  14.2  34058  287.83 0854.33
2009/04/23 17:00:38.5     182    126     43    222    227  55.4  11.0  34056  287.81 0854.33
2009/04/23 17:00:38.6     201    118     29    234    236  59.6   7.2  34052  287.75 0854.33
2009/04/23 17:00:38.7     212    139    -21    254    255  56.7  -4.9  34062  287.90 0854.33
2009/04/23 17:00:38.8     172    158      4    234    235  47.3   1.0  34062  287.92 0854.33
2009/04/23 17:00:38.9     268    126     65    297    305  64.8  12.4  34068  288.00 0854.33
2009/04/23 17:00:39.0     223     16     56    224    232  85.7  14.2  34070  288.04 0854.33
2009/04/23 17:00:39.1     246     25     69    248    258  84.1  15.6  34098  288.53 0854.33
2009/04/23 17:00:39.2     195    -11     76    196    210  93.3  22.3  34152  289.43 0854.33
2009/04/23 17:00:39.3     193     27    104    195    221  82.0  30.3  34128  289.04 0854.33
2009/04/23 17:00:39.4     147    -37    128    152    198 104.2  44.3  34170  289.74 0854.33
2009/04/23 17:00:39.5      45     74    176     87    196  31.2  71.9  34172  289.77 0854.33
2009/04/23 17:00:39.6      57     65    153     87    176  41.0  68.1  34192  290.11 0854.33
2009/04/23 17:00:39.7      18    -17     82     25     85 133.3  82.8  34198  290.21 0854.31
2009/04/23 17:00:39.8       9      0     54     10     54  90.0  90.0  34208  290.40 0854.31
2009/04/23 17:00:39.9     -23    -19      5     30     31 230.4  11.0  34204  290.33 0854.31
2009/04/23 17:00:40.0    -100    -57     13    116    117 240.2   6.9  34186  290.01 0854.31
2009/04/23 17:00:40.2     -82    -95     25    126    129 221.0  11.6  34142  289.28 0854.31
2009/04/23 17:00:40.3    -117    -55     13    130    131 244.8   5.9  34154  289.46 0854.31
2009/04/23 17:00:40.4     -48    -12     53     50     72 255.8  52.1  34162  289.60 0854.31
2009/04/23 17:00:40.5     -81    -92     75    123    144 221.4  35.0  34166  289.69 0854.31
2009/04/23 17:00:40.6    -153    -26     61    156    167 260.3  22.3  34182  289.96 0854.31
2009/04/23 17:00:40.7    -177    -46     -9    184    185 255.2  -2.8  34150  289.41 0854.31
2009/04/23 17:00:40.8    -210    -53     -8    217    218 255.8  -2.3  34118  288.87 0854.26
2009/04/23 17:00:40.9    -180    -72    -68    195    206 248.0 -24.0  34086  288.33 0854.26
2009/04/23 17:00:41.0     -47    -97    -70    108    128 205.9 -40.0  34084  288.28 0854.26
2009/04/23 17:00:41.1     -91   -117    -58    149    159 217.9 -26.4  34100  288.55 0854.26
2009/04/23 17:00:41.2     -37   -164    -44    169    175 192.9 -14.7  34100  288.57 0854.26
2009/04/23 17:00:41.3      26   -216     38    218    222 173.1   9.9  34096  288.50 0854.26
2009/04/23 17:00:41.4     -63   -190    113    201    230 198.5  31.6  34098  288.52 0854.26
2009/04/23 17:00:41.5    -215    -65     77    225    238 253.2  18.9  34110  288.73 0854.26
2009/04/23 17:00:41.6    -212    -29      8    215    216 262.0   2.3  34104  288.62 0854.26
2009/04/23 17:00:41.7    -187    -98     41    212    216 242.2  11.0  34112  288.75 0854.26
2009/04/23 17:00:41.8    -117   -130     57    176    186 221.9  18.1  34118  288.87 0854.26
2009/04/23 17:00:41.9    -198   -207    -56    287    293 223.7 -11.1  34112  288.75 0854.26
2009/04/23 17:00:42.0    -211   -223     19    308    309 223.4   3.6  34116  288.81 0854.26
2009/04/23 17:00:42.1    -225   -186     46    293    297 230.4   9.0  34120  288.88 0854.26
2009/04/23 17:00:42.2     -89   -295     60    309    315 196.9  11.0  34116  288.81 0854.26
2009/04/23 17:00:42.3    -169   -246     98    299    315 214.5  18.2  34112  288.76 0854.26
2009/04/23 17:00:42.4    -183   -247     16    308    309 216.5   3.1  34120  288.90 0854.26
2009/04/23 17:00:42.5    -156   -263    147    306    339 210.7  27.3  34142  289.26 0854.26
2009/04/23 17:00:42.6    -161   -286     79    329    339 209.4  13.6  34138  289.21 0854.26
2009/04/23 17:00:42.7    -108   -241    107    265    285 204.1  23.1  34140  289.22 0854.26
2009/04/23 17:00:42.8     -89   -263    147    278    314 198.7  30.1  34140  289.22 0854.30
2009/04/23 17:00:42.9    -124   -195    122    232    262 212.5  30.2  34152  289.42 0854.30
2009/04/23 17:00:43.0    -123   -264    175    292    340 204.9  33.8  34146  289.34 0854.30
2009/04/23 17:00:43.1     -72   -205    113    218    245 199.4  29.3  34142  289.25 0854.30
2009/04/23 17:00:43.2     -35   -177    115    181    214 191.3  35.5  34158  289.55 0854.30
2009/04/23 17:00:43.3     -64   -234    159    243    290 195.4  36.0  34160  289.58 0854.30
2009/04/23 17:00:43.4     -56   -189    112    198    227 196.7  31.9  34156  289.52 0854.30
2009/04/23 17:00:43.5     -16   -191     90    192    212 184.9  27.1  34154  289.48 0854.30
2009/04/23 17:00:43.6     -23   -187    136    189    232 187.1  39.5  34176  289.84 0854.30
2009/04/23 17:00:43.7     -30   -150    140    154    208 191.6  47.1  34166  289.69 0854.30
2009/04/23 17:00:43.8       0   -172    191    173    257 180.2  53.2  34168  289.71 0854.30
2009/04/23 17:00:43.9      -7   -250    176    251    306 181.8  38.5  34128  289.02 0854.30
2009/04/23 17:00:44.0      16   -214    204    215    296 175.5  48.0  34146  289.32 0854.30
2009/04/23 17:00:44.1      88   -244    204    260    330 160.2  42.1  34148  289.37 0854.30
2009/04/23 17:00:44.2      73   -221    189    233    300 161.7  43.5  34154  289.46 0854.30
2009/04/23 17:00:44.3       8   -159    151    160    220 176.9  48.2  34134  289.14 0854.30
2009/04/23 17:00:44.4       9    -91    126     92    156 174.2  60.5  34168  289.72 0854.30
2009/04/23 17:00:44.5      30    -64    149     72    165 154.5  72.4  34168  289.72 0854.30
2009/04/23 17:00:44.6      66     22     91     70    114  71.6  58.5  34216  290.52 0854.30
2009/04/23 17:00:44.7     238    117    117    266    290  63.8  25.2  34214  290.49 0854.30
2009/04/23 17:00:44.8     380    126    140    401    424  71.6  20.0  34210  290.43 0854.34
2009/04/23 17:00:44.9     178    187    150    259    299  43.7  32.7  34208  290.37 0854.34
2009/04/23 17:00:45.0     187     90    114    208    237  64.2  31.3  34200  290.25 0854.34
2009/04/23 17:00:45.1     244    109    273    268    382  65.8  50.6  34222  290.64 0854.34
2009/04/23 17:00:45.2     162    117    178    201    268  54.1  46.2  34200  290.24 0854.34
2009/04/23 17:00:45.3      21    179    225    181    288   6.9  57.1  34212  290.44 0854.34
2009/04/23 17:00:45.4    -124    262    243    291    379 334.6  44.1  34230  290.76 0854.34
2009/04/23 17:00:45.5    -126    236    220    268    346 331.9  43.7  34232  290.80 0854.34
2009/04/23 17:00:45.6     -97    189     81    213    227 332.9  21.7  34234  290.82 0854.34
2009/04/23 17:00:45.7     -95    221     16    241    242 336.6   3.9  34236  290.87 0854.34
2009/04/23 17:00:45.8    -101    273    138    292    322 339.7  27.2  34218  290.54 0854.34
2009/04/23 17:00:45.9      -7    169     14    170    171 357.3   4.9  34226  290.69 0854.34
2009/04/23 17:00:46.0     -36    214     75    218    231 350.4  19.2  34216  290.53 0854.34
2009/04/23 17:00:46.1    -173    171    103    244    264 314.7  24.2  34204  290.32 0854.34
2009/04/23 17:00:46.2    -375    149    143    404    429 291.7  19.6  34204  290.31 0854.34
2009/04/23 17:00:46.3    -352    165    141    389    413 295.1  20.9  34210  290.41 0854.34
2009/04/23 17:00:46.4    -346    277     95    444    455 308.6  12.1  34184  289.99 0854.34
2009/04/23 17:00:46.5    -288    290     31    410    412 315.2   4.4  34138  289.21 0854.34
2009/04/23 17:00:46.6    -208    321     19    383    384 327.0   2.9  34150  289.40 0854.34
2009/04/23 17:00:46.7    -112    529     83    541    548 348.0   8.8  34156  289.51 0854.34
2009/04/23 17:00:46.8     -60    488    126    492    508 352.9  14.4  34176  289.84 0854.34
2009/04/23 17:00:46.9     -14    422    153    423    449 358.0  20.9  34196  290.19 0854.34
2009/04/23 17:00:47.0     119    488     82    503    510  13.8   9.3  34216  290.51 0854.34
2009/04/23 17:00:47.1     186    464     -2    500    501  21.9  -0.3  34264  291.34 0854.34
2009/04/23 17:00:47.2      79    603     34    609    610   7.5   3.3  34168  289.71 0854.34
2009/04/23 17:00:47.3      10    646    175    647    671   0.9  15.2  34180  289.90 0854.34
2009/04/23 17:00:47.4      81    669    313    674    743   7.0  26.7  34142  289.27 0854.34
2009/04/23 17:00:47.5     180    518     97    549    558  19.2  10.1  34170  289.74 0854.34
2009/04/23 17:00:47.6     164    577     91    600    607  15.9   8.7  34240  290.93 0854.34
2009/04/23 17:00:47.7     393    354    257    530    589  48.0  27.8  34274  291.51 0854.34
2009/04/23 17:00:47.8     528    266    211    592    628  63.3  20.4  34262  291.30 0854.34
2009/04/23 17:00:47.9     465    648    177    798    818  35.7  12.5  34070  288.04 0854.34
2009/04/23 17:00:48.0     615    590    181    853    873  46.2  12.0  34102  288.58 0854.34
2009/04/23 17:00:48.1     538    885    112   1036   1043  31.3   6.2  34074  288.12 0854.34
2009/04/23 17:00:48.2     523    806    186    962    980  33.0  11.0  34078  288.20 0854.34
2009/04/23 17:00:48.3     518    710     27    879    880  36.1   1.8  34072  288.08 0854.34
2009/04/23 17:00:48.4     600    724     75    941    945  39.6   4.6  34060  287.88 0854.34
2009/04/23 17:00:48.5     686    652     96    947    952  46.5   5.8  34052  287.73 0854.34
2009/04/23 17:00:48.6     630    683     40    930    931  42.7   2.5  34076  288.14 0854.34
2009/04/23 17:00:48.7     556    737     30    924    925  37.0   1.9  34072  288.09 0854.34
2009/04/23 17:00:48.8     665    632     -4    918    919  46.5  -0.3  34048  287.69 0854.32
2009/04/23 17:00:48.9     802    623    -12   1016   1017  52.2  -0.7  34068  288.03 0854.32
2009/04/23 17:00:49.0     671    194   -235    699    737  73.9 -23.6  34126  289.01 0854.32
2009/04/23 17:00:49.1     538    340   -126    637    650  57.7 -11.2  34100  288.57 0854.32
2009/04/23 17:00:49.2     449    514    -38    683    685  41.1  -3.2  34078  288.17 0854.32
2009/04/23 17:00:49.3     538    470     76    715    720  48.8   6.1  34068  288.03 0854.32
2009/04/23 17:00:49.4     636    471     20    792    793  53.5   1.5  34060  287.87 0854.32
2009/04/23 17:00:49.5     652    342    286    737    790  62.3  22.3  34062  287.90 0854.32
2009/04/23 17:00:49.6     448    353    231    571    615  51.8  23.1  34072  288.07 0854.32
2009/04/23 17:00:49.7     163    542    -60    567    571  16.8  -6.1  34072  288.09 0854.32
2009/04/23 17:00:49.8     185    713   -197    737    763  14.6 -15.0  34070  288.06 0854.32
2009/04/23 17:00:49.9     415    716    -59    828    830  30.1  -4.1  34074  288.13 0854.32
2009/04/23 17:00:50.0     195    607    -97    638    646  17.8  -8.7  34074  288.10 0854.32
2009/04/23 17:00:50.1     -59    495   -105    499    510 353.2 -11.9  34072  288.07 0854.32
2009/04/23 17:00:50.2     -48    362   -154    366    397 352.4 -28.6  34036  287.49 0854.32
2009/04/23 17:00:50.3     -38    634   -137    636    651 356.5 -12.2  34062  287.91 0854.32
2009/04/23 17:00:50.4     120    515   -150    529    551  13.1 -15.9  34068  288.01 0854.32
2009/04/23 17:00:50.5    -126    590   -144    604    621 347.9 -13.4  34050  287.71 0854.32
2009/04/23 17:00:50.6     -89    452   -244    461    521 348.8 -34.5  34042  287.56 0854.32
2009/04/23 17:00:50.7     -31    429   -279    431    513 355.8 -40.4  34046  287.63 0854.32
2009/04/23 17:00:50.8      19    420   -237    421    483   2.6 -36.4  34046  287.65 0854.33
2009/04/23 17:00:50.9    -178    319   -119    366    384 330.8 -23.3  34044  287.61 0854.33
2009/04/23 17:00:51.0    -432    183   -164    470    499 293.0 -19.3  34056  287.80 0854.33
2009/04/23 17:00:51.1    -386    121   -261    405    481 287.4 -40.3  34054  287.77 0854.33
2009/04/23 17:00:51.2    -376    123   -229    396    457 288.2 -37.1  34052  287.75 0854.33
2009/04/23 17:00:51.3    -225    193   -211    297    364 310.7 -43.4  34056  287.81 0854.33
2009/04/23 17:00:51.4    -109    318   -130    337    361 341.1 -26.6  34058  287.83 0854.33
2009/04/23 17:00:51.5    -190    120    -65    225    234 302.4 -21.2  34066  287.99 0854.33
2009/04/23 17:00:51.6     -59     92     64    110    127 327.4  32.9  34066  287.98 0854.33
2009/04/23 17:00:51.7     -94   -217   -101    237    257 203.6 -28.7  34070  288.05 0854.33
2009/04/23 17:00:51.8    -273    -75   -119    284    307 254.5 -28.5  34056  287.82 0854.33
2009/04/23 17:00:51.9     -40   -135   -194    141    239 196.5 -64.9  34066  287.99 0854.33
2009/04/23 17:00:52.0    -282   -265   -264    388    469 226.8 -42.0  34070  288.06 0854.33
2009/04/23 17:00:52.1    -216   -307   -422    376    565 215.2 -58.1  34068  288.00 0854.33
2009/04/23 17:00:52.2    -138   -609   -293    625    690 192.8 -31.4  34058  287.85 0854.33
2009/04/23 17:00:52.3    -306   -685    -98    751    758 204.1  -7.5  34064  287.94 0854.33
2009/04/23 17:00:52.4     -82   -523    -85    530    537 189.0  -9.1  34066  287.97 0854.33
2009/04/23 17:00:52.5      11   -355     57    356    361 178.2   9.2  34058  287.86 0854.33
2009/04/23 17:00:52.6     139   -205    189    248    311 145.8  41.2  34066  287.97 0854.33
2009/04/23 17:00:52.7     -70   -142    198    159    253 206.3  57.3  34070  288.04 0854.33
2009/04/23 17:00:52.8    -208    -74     96    221    240 250.3  25.1  34068  288.00 0854.34
2009/04/23 17:00:52.9    -380     -2    134    381    404 269.6  19.4  34064  287.94 0854.34
2009/04/23 17:00:53.0    -424     -3    150    425    451 269.5  19.5  34068  288.02 0854.34
2009/04/23 17:00:53.1    -451     22      8    452    453 272.8   1.1  34062  287.92 0854.34
2009/04/23 17:00:53.2    -450    175    -37    484    486 291.3  -4.4  34066  287.98 0854.34
2009/04/23 17:00:53.3    -369    156    -66    401    407 293.0  -9.3  34080  288.23 0854.34
2009/04/23 17:00:53.4    -324    165     20    364    365 297.0   3.3  34074  288.11 0854.34
2009/04/23 17:00:53.5    -147    168    -12    224    225 318.8  -3.2  34094  288.47 0854.34
2009/04/23 17:00:53.6    -109     13    -47    110    119 277.0 -28.5  34082  288.25 0854.34
2009/04/23 17:00:53.7      15    -13    -86     20     88 131.3 -90.0  34086  288.31 0854.34
2009/04/23 17:00:53.8    -147   -137    -17    202    203 227.1  -4.9  34080  288.23 0854.34
2009/04/23 17:00:53.9    -436   -214     75    486    492 243.8   8.8  34078  288.18 0854.34
2009/04/23 17:00:54.0    -424   -184     47    463    466 246.5   5.9  34076  288.15 0854.34
2009/04/23 17:00:54.1    -637    -54     47    640    642 265.1   4.2  34066  287.98 0854.34
2009/04/23 17:00:54.2    -670   -246   -186    715    739 249.8 -14.6  34070  288.05 0854.34
2009/04/23 17:00:54.3    -779   -109    174    787    807 262.0  12.5  34076  288.15 0854.34
2009/04/23 17:00:54.4    -555     89   -118    563    576 279.1 -11.9  34078  288.17 0854.34
2009/04/23 17:00:54.5    -351     26    -36    352    354 274.4  -5.9  34092  288.42 0854.34
2009/04/23 17:00:54.6     -48    -16    222     51    227 251.6  87.5  34110  288.72 0854.34
2009/04/23 17:00:54.7    -216   -109    158    243    289 243.1  36.0  34086  288.31 0854.34
2009/04/23 17:00:54.8    -265   -168     31    314    316 237.6   5.8  34084  288.27 0854.36
2009/04/23 17:00:54.9     -88    -91     -9    127    128 224.1  -4.1  34082  288.26 0854.36
2009/04/23 17:00:55.0       9    124     37    125    131   4.5  16.8  34072  288.08 0854.36
2009/04/23 17:00:55.1      94    -44    227    104    249 115.3  74.0  34086  288.31 0854.36
2009/04/23 17:00:55.2     -43   -127    153    135    204 198.7  54.2  34090  288.40 0854.36
2009/04/23 17:00:55.3      15   -109    114    111    159 171.9  50.7  34088  288.36 0854.36
2009/04/23 17:00:55.4      66    -92    112    114    159 144.0  50.0  34086  288.33 0854.36
2009/04/23 17:00:55.5     173   -240    168    297    341 144.2  32.0  34086  288.32 0854.36
2009/04/23 17:00:55.6     172   -132    177    218    280 127.5  43.5  34078  288.17 0854.36
2009/04/23 17:00:55.7     148    -71    206    165    263 115.8  57.1  34084  288.27 0854.36
2009/04/23 17:00:55.8      93     -7    177     94    200  94.4  70.0  34080  288.21 0854.36
2009/04/23 17:00:55.9      31   -156    143    160    214 168.5  46.4  34076  288.14 0854.36
2009/04/23 17:00:56.0      77   -147     72    167    181 152.4  24.6  34070  288.04 0854.36
2009/04/23 17:00:56.1     107   -151     90    186    206 144.8  27.3  34072  288.08 0854.36
2009/04/23 17:00:56.2      76   -209    112    223    249 159.9  28.5  34072  288.07 0854.36
2009/04/23 17:00:56.3     -95   -263    103    280    298 200.0  21.0  34074  288.12 0854.36
2009/04/23 17:00:56.4    -114   -341    116    360    379 198.6  17.9  34074  288.13 0854.36
2009/04/23 17:00:56.5    -172   -349     91    390    401 206.3  13.1  34082  288.25 0854.36
2009/04/23 17:00:56.6    -241   -405     -7    472    473 210.8  -0.9  34084  288.30 0854.36
2009/04/23 17:00:56.7    -372   -371    -69    526    531 225.1  -7.5  34074  288.11 0854.36
2009/04/23 17:00:56.8    -683   -226   -146    720    735 251.7 -11.5  34066  287.98 0854.38
2009/04/23 17:00:56.9   -1059   -590   -116   1213   1219 240.9  -5.5  34038  287.52 0854.38
2009/04/23 17:00:57.0    -758   -365   -162    842    858 244.2 -10.9  34050  287.70 0854.38
2009/04/23 17:00:57.1    -457   -463   -319    651    724 224.6 -32.4  34052  287.73 0854.38
2009/04/23 17:00:57.2    -204   -613     11    646    647 198.4   1.0  34110  288.71 0854.38
2009/04/23 17:00:57.3    -284   -426   -161    513    537 213.7 -22.5  34068  288.03 0854.38
2009/04/23 17:00:57.4    -246   -278   -357    372    515 221.5 -53.2  34054  287.78 0854.38
2009/04/23 17:00:57.5    -311   -180   -326    360    485 239.9 -51.3  34080  288.23 0854.38
2009/04/23 17:00:57.6     -58   -336   -334    342    478 189.8 -53.8  34080  288.21 0854.38
2009/04/23 17:00:57.7     -66   -285   -206    293    358 193.1 -43.0  34084  288.27 0854.38
2009/04/23 17:00:57.8     -25   -102    -44    106    114 193.8 -28.0  34086  288.33 0854.38
2009/04/23 17:00:57.9       0    -60     34     61     69 180.0  31.4  34078  288.20 0854.38
2009/04/23 17:00:58.0     -12   -149     23    150    152 184.9   9.0  34074  288.11 0854.38
2009/04/23 17:00:58.1     314   -321    213    450    497 135.7  27.1  34064  287.95 0854.38
2009/04/23 17:00:58.2     412   -275    377    496    623 123.7  41.1  34076  288.14 0854.38
2009/04/23 17:00:58.3      82    -81    249    116    274 134.9  73.2  34102  288.58 0854.38
2009/04/23 17:00:58.4     194   -258    358    324    482 143.0  53.3  34080  288.21 0854.38
2009/04/23 17:00:58.5     254   -285    404    382    556 138.3  51.9  34092  288.42 0854.38
2009/04/23 17:00:58.6     111   -125    272    168    319 138.6  65.4  34106  288.66 0854.38
2009/04/23 17:00:58.7      60   -232    264    240    356 165.3  53.2  34084  288.29 0854.38
2009/04/23 17:00:58.8      12   -219     83    220    235 176.9  21.5  34078  288.18 0854.36
2009/04/23 17:00:58.9     117    -69    -90    136    163 120.7 -40.9  34082  288.25 0854.36
2009/04/23 17:00:59.0     201    -58    311    210    375 106.2  62.7  34092  288.42 0854.36
2009/04/23 17:00:59.1     190    -32    306    193    361  99.7  64.7  34096  288.49 0854.36
2009/04/23 17:00:59.2     151     50    140    160    212  71.4  45.8  34084  288.30 0854.36
2009/04/23 17:00:59.3      -2    157    100    158    186 359.1  35.5  34092  288.42 0854.36
2009/04/23 17:00:59.4     -37    113    -12    119    120 341.7  -6.2  34092  288.43 0854.36
2009/04/23 17:00:59.5     121    237    165    267    313  27.0  34.8  34096  288.49 0854.36
2009/04/23 17:00:59.6      71    356    204    364    417  11.3  31.6  34096  288.50 0854.36
2009/04/23 17:00:59.7      64    213    160    223    274  16.9  39.5  34124  288.97 0854.36
2009/04/23 17:00:59.8    -124    174    110    214    240 324.4  29.3  34106  288.65 0854.36
2009/04/23 17:00:59.9     -85     23     12     89     90 285.1   8.0  34114  288.79 0854.36
2009/04/23 17:01:00.0    -151     43    113    157    193 285.9  39.3  34116  288.82 0854.36
2009/04/23 17:01:00.1    -138    317   -102    346    360 336.5 -21.5  34100  288.57 0854.36
2009/04/23 17:01:00.2    -225     -3     -4    226    227 269.2  -1.3  34108  288.70 0854.36
2009/04/23 17:01:00.3    -258    -12    -42    259    263 267.2  -9.3  34110  288.73 0854.36
2009/04/23 17:01:00.4    -221    -51    -54    227    234 257.0 -13.4  34114  288.80 0854.36
2009/04/23 17:01:00.5    -200    -84    -21    217    219 247.2  -5.6  34104  288.62 0854.36
2009/04/23 17:01:00.6    -281     36    -15    284    285 277.5  -3.1  34106  288.66 0854.36
2009/04/23 17:01:00.7    -275    -47     -6    279    280 260.3  -1.3  34110  288.73 0854.36
2009/04/23 17:01:00.8    -237    231     46    332    336 314.3   7.9  34116  288.81 0854.34
2009/04/23 17:01:00.9    -250    211    -13    328    329 310.2  -2.3  34116  288.81 0854.34
2009/04/23 17:01:01.0    -180    168    148    247    287 313.1  33.5  34120  288.90 0854.34
2009/04/23 17:01:01.1    -162    -82    149    182    235 243.1  43.7  34108  288.70 0854.34
2009/04/23 17:01:01.2    -212      0    108    213    238 270.0  29.1  34104  288.62 0854.34
2009/04/23 17:01:01.3    -318    -44     98    321    336 262.1  17.0  34112  288.76 0854.34
2009/04/23 17:01:01.4    -344     74    146    352    381 282.2  23.8  34100  288.57 0854.34
2009/04/23 17:01:01.5    -201     58    106    210    235 286.2  28.7  34108  288.69 0854.34
2009/04/23 17:01:01.6    -133     -4     96    134    164 267.9  39.1  34124  288.97 0854.34
2009/04/23 17:01:01.7     -43     58     92     73    117 323.0  56.9  34122  288.92 0854.34
2009/04/23 17:01:01.8     -31      1     67     32     74 272.6  73.1  34126  288.99 0854.31
2009/04/23 17:01:01.9    -158    -23     21    160    162 261.6   7.5  34112  288.77 0854.31
2009/04/23 17:01:02.0    -123   -127    -15    178    179 224.1  -4.9  34112  288.75 0854.31
2009/04/23 17:01:02.1    -136   -130    -38    189    194 226.2 -11.6  34112  288.75 0854.31
2009/04/23 17:01:02.2     -67   -105    -29    125    129 212.6 -13.4  34114  288.79 0854.31
2009/04/23 17:01:02.3     -48    -49    -84     69    108 224.2 -60.8  34110  288.74 0854.31
2009/04/23 17:01:02.4     -53    -48    -48     72     86 227.8 -40.9  34110  288.72 0854.31
2009/04/23 17:01:02.5     -42    -39    -28     58     64 226.9 -31.7  34112  288.75 0854.31
2009/04/23 17:01:02.6      21      9     -1     23     24  66.5  -3.1  34110  288.74 0854.31
2009/04/23 17:01:02.7      34     31     -1     47     48  47.8  -1.3  34116  288.84 0854.31
2009/04/23 17:01:02.8      35    -35     -6     50     51 135.0  -7.2  34112  288.75 0854.31
2009/04/23 17:01:02.9      85    -44     33     96    102 117.5  19.4  34112  288.77 0854.31
2009/04/23 17:01:03.0     137    -87     68    163    176 122.5  23.8  34108  288.69 0854.31
2009/04/23 17:01:03.1     169    -77     84    186    204 114.6  25.9  34110  288.74 0854.31
2009/04/23 17:01:03.2      77   -181     35    197    201 156.8  10.1  34110  288.72 0854.31
2009/04/23 17:01:03.3      24   -248    -33    250    253 174.4  -7.7  34118  288.85 0854.31
2009/04/23 17:01:03.4     189   -341     39    390    393 151.0   5.8  34138  289.20 0854.31
2009/04/23 17:01:03.5     169   -305     -7    349    350 151.0  -1.2  34146  289.33 0854.31
2009/04/23 17:01:03.6     239   -194     -5    308    309 129.1  -1.1  34134  289.14 0854.31
2009/04/23 17:01:03.7      94    -49     -4    107    108 117.5  -2.2  34124  288.97 0854.31
2009/04/23 17:01:03.8     -53   -132    -74    143    161 201.9 -33.9  34120  288.91 0854.34
2009/04/23 17:01:03.9      47   -119     77    129    150 158.2  33.5  34120  288.89 0854.34
2009/04/23 17:01:04.0     105   -172    -61    202    212 148.4 -17.0  34116  288.84 0854.34
2009/04/23 17:01:04.1       9   -215    -56    216    224 177.4 -14.7  34118  288.87 0854.34
2009/04/23 17:01:04.2      38   -276    -95    279    294 172.0 -23.8  34114  288.78 0854.34
2009/04/23 17:01:04.3      26   -247   -130    249    280 173.8 -33.9  34108  288.68 0854.34
2009/04/23 17:01:04.4     214   -227   -271    312    413 136.7 -49.9  34132  289.11 0854.34
2009/04/23 17:01:04.5     188    -52   -164    196    255 105.7 -48.5  34118  288.87 0854.34
2009/04/23 17:01:04.6     134     32   -123    138    184  76.3 -50.8  34136  289.16 0854.34
2009/04/23 17:01:04.7     374    -73   -147    382    409 101.1 -26.5  34134  289.13 0854.34
2009/04/23 17:01:04.8     449    102     58    461    465  77.1   7.2  34144  289.31 0854.34
2009/04/23 17:01:04.9     305     42    167    308    350  82.1  30.9  34140  289.23 0854.34
2009/04/23 17:01:05.0     301     -7    150    302    337  91.5  28.4  34122  288.92 0854.34
2009/04/23 17:01:05.1     280    -75     81    290    302 105.1  15.6  34144  289.29 0854.34
2009/04/23 17:01:05.2     329     -5     76    330    339  90.9  13.1  34152  289.42 0854.34
2009/04/23 17:01:05.3     176    -55    133    185    227 107.3  39.5  34154  289.48 0854.34
2009/04/23 17:01:05.4     143     65    121    158    199  65.6  41.4  34206  290.36 0854.34
2009/04/23 17:01:05.5     184     36     88    188    207  78.8  27.1  34174  289.80 0854.34
2009/04/23 17:01:05.6     120    -10      6    121    122  95.2   3.3  34174  289.80 0854.34
2009/04/23 17:01:05.7     -61    -51     53     80     95 230.4  36.0  34174  289.82 0854.34
2009/04/23 17:01:05.8      -4   -271    110    272    293 181.0  23.1  34156  289.49 0854.36
2009/04/23 17:01:05.9      99   -214    135    236    271 155.1  32.4  34202  290.27 0854.36
2009/04/23 17:01:06.0      75   -203    185    217    285 159.5  44.8  34200  290.26 0854.36
2009/04/23 17:01:06.1      23   -281    218    282    356 175.3  41.6  34198  290.20 0854.36
2009/04/23 17:01:06.2     -18   -237    187    238    302 184.4  42.2  34182  289.95 0854.36
2009/04/23 17:01:06.3    -119   -237    216    266    342 206.7  43.5  34194  290.15 0854.36
2009/04/23 17:01:06.4    -153   -284    178    323    368 208.3  31.3  34146  289.33 0854.36
2009/04/23 17:01:06.5     -71   -217    127    229    261 198.3  31.4  34164  289.63 0854.36
2009/04/23 17:01:06.6    -103   -159    217    190    288 213.0  54.3  34180  289.92 0854.36
2009/04/23 17:01:06.7     -79   -202     98    217    238 201.4  25.9  34164  289.65 0854.36
2009/04/23 17:01:06.8     -33    -99    112    105    153 198.5  52.1  34158  289.53 0854.36
2009/04/23 17:01:06.9     -51    -54    127     75    147 223.2  66.8  34194  290.14 0854.36
2009/04/23 17:01:07.0      34    143     70    147    162  13.4  27.2  34180  289.91 0854.36
2009/04/23 17:01:07.1     -12    114    113    115    161 353.8  49.8  34156  289.50 0854.36
2009/04/23 17:01:07.2     115   -104    106    156    188 132.2  37.6  34190  290.08 0854.36
2009/04/23 17:01:07.3     204     73    207    217    299  70.3  48.7  34148  289.36 0854.36
2009/04/23 17:01:07.4     268    115    230    292    371  66.7  42.2  34146  289.35 0854.36
2009/04/23 17:01:07.5     175    130    222    219    311  53.4  50.2  34150  289.39 0854.36
2009/04/23 17:01:07.6      -9    -28    103     30    107 198.7  83.3  34178  289.87 0854.36
2009/04/23 17:01:07.7     -24      0     96     25     99 270.0  84.9  34182  289.96 0854.36
2009/04/23 17:01:07.9    -114      1      0    115    116 270.8   0.2  34156  289.50 0854.38
2009/04/23 17:01:08.0    -153     36     98    158    185 283.3  35.2  34166  289.67 0854.38
2009/04/23 17:01:08.1    -145     52    105    155    187 290.0  37.3  34174  289.82 0854.38
2009/04/23 17:01:08.2    -170     86    103    191    217 296.9  31.0  34172  289.79 0854.38
2009/04/23 17:01:08.3     -94    148     95    176    200 327.7  30.8  34172  289.77 0854.38
2009/04/23 17:01:08.4    -123     66    165    140    216 298.4  55.6  34174  289.80 0854.38
2009/04/23 17:01:08.5     -97    145    170    175    243 326.2  49.4  34192  290.11 0854.38
2009/04/23 17:01:08.6    -116     72    145    137    199 302.0  51.6  34184  289.99 0854.38
2009/04/23 17:01:08.7    -214      4    127    215    249 271.3  33.5  34164  289.64 0854.38
2009/04/23 17:01:08.8    -172   -162    117    237    264 226.9  28.2  34128  289.02 0854.38
2009/04/23 17:01:08.9    -195   -183    119    268    293 226.8  25.3  34124  288.97 0854.38
2009/04/23 17:01:09.0    -169   -179     92    247    263 223.4  21.0  34130  289.05 0854.38
2009/04/23 17:01:09.1    -101   -149    112    181    212 214.1  35.2  34128  289.04 0854.38
2009/04/23 17:01:09.2     -70   -226    107    237    260 197.4  26.2  34140  289.24 0854.38
2009/04/23 17:01:09.3     -78   -176     86    193    211 204.1  25.3  34152  289.45 0854.38
2009/04/23 17:01:09.4     -55    -91    137    107    173 211.2  57.9  34148  289.38 0854.38
2009/04/23 17:01:09.5      48    -76     97     91    133 147.5  51.6  34150  289.40 0854.38
2009/04/23 17:01:09.6     119    -27     58    123    135 102.8  27.1  34152  289.45 0854.38
2009/04/23 17:01:09.7     114      8     35    115    121  85.7  17.3  34150  289.41 0854.38
2009/04/23 17:01:09.8     153    -35   -129    158    203 103.2 -47.9  34146  289.35 0854.38
2009/04/23 17:01:09.9     215     89    -85    233    248  67.4 -25.3  34162  289.59 0854.38
2009/04/23 17:01:10.0     251     14     57    252    259  86.7  12.9  34166  289.68 0854.38
2009/04/23 17:01:10.1     275     50    -20    280    281  79.6  -4.1  34150  289.39 0854.38
2009/04/23 17:01:10.2     356     72    157    364    396  78.4  24.8  34172  289.76 0854.38
2009/04/23 17:01:10.3     265     69    130    274    303  75.4  27.2  34174  289.81 0854.38
2009/04/23 17:01:10.4     225    108    195    250    317  64.2  41.9  34188  290.03 0854.38
2009/04/23 17:01:10.5     172     99    289    199    350  60.0  62.4  34222  290.61 0854.38
2009/04/23 17:01:10.6     137    146    211    201    291  43.3  51.4  34234  290.82 0854.38
2009/04/23 17:01:10.7     140    115    224    182    288  50.5  56.4  34224  290.66 0854.38
2009/04/23 17:01:10.8     138     79    214    160    267  60.2  59.6  34206  290.36 0854.38
2009/04/23 17:01:10.9      98     72    155    122    197  53.6  57.9  34212  290.45 0854.38
2009/04/23 17:01:11.0      51    -31    180     60    189 121.5  81.0  34234  290.82 0854.38
2009/04/23 17:01:11.1     -39     78    131     88    157 333.3  63.2  34200  290.25 0854.38
2009/04/23 17:01:11.2      17    197    195    198    277   5.1  49.9  34174  289.80 0854.38
2009/04/23 17:01:11.3     150    116    264    190    325  52.2  60.8  34176  289.85 0854.38
2009/04/23 17:01:11.4     -31    244    127    246    276 352.7  29.3  34212  290.46 0854.38
2009/04/23 17:01:11.5      21      9    281     23    281  66.5  90.0  34214  290.50 0854.38
2009/04/23 17:01:11.6     -21    -21    273     30    274 225.0  90.0  34226  290.69 0854.38
2009/04/23 17:01:11.7     -78    141     99    162    189 331.1  34.4  34224  290.67 0854.38
2009/04/23 17:01:11.8     -76    161    165    179    243 334.6  47.9  34228  290.72 0854.38
2009/04/23 17:01:11.9     -73     -4    139     74    157 266.5  70.0  34238  290.91 0854.42
2009/04/23 17:01:12.0     -58    -65    174     88    194 221.4  71.4  34212  290.45 0854.42
2009/04/23 17:01:12.1     -41     14    145     44    151 289.1  82.8  34200  290.26 0854.42
2009/04/23 17:01:12.2      48   -102    168    113    202 154.5  63.2  34186  290.01 0854.42
2009/04/23 17:01:12.3     146    -26    319    149    352 100.1  73.2  34192  290.10 0854.42
2009/04/23 17:01:12.4     134    -70    273    152    312 117.5  68.5  34186  290.02 0854.42
2009/04/23 17:01:12.5     255    -39    261    258    366  98.8  50.2  34182  289.93 0854.42
2009/04/23 17:01:12.6     499     88   -129    507    524  80.0 -14.3  34174  289.81 0854.42
2009/04/23 17:01:12.7     411    118   -135    428    450  73.9 -17.6  34176  289.83 0854.42
2009/04/23 17:01:12.8     330    102     43    346    349  72.7   7.1  34168  289.71 0854.42
2009/04/23 17:01:12.9     294     -4    179    295    345  90.8  34.2  34168  289.72 0854.42
2009/04/23 17:01:13.0     466    102    149    478    501  77.6  17.4  34162  289.59 0854.42
2009/04/23 17:01:13.1     566    157    353    588    685  74.5  33.7  34092  288.43 0854.42
2009/04/23 17:01:13.2     420   -111    173    435    468 104.8  22.9  34136  289.17 0854.42
2009/04/23 17:01:13.3     419    -52    215    423    474  97.1  29.2  34134  289.12 0854.42
2009/04/23 17:01:13.4     507    111    249    520    576  77.6  27.3  34112  288.77 0854.42
2009/04/23 17:01:13.5     442    276    235    522    572  58.0  25.9  34096  288.50 0854.42
2009/04/23 17:01:13.6     421    363    229    557    602  49.2  23.6  34072  288.09 0854.42
2009/04/23 17:01:13.7     299    332    255    447    514  42.0  32.3  34114  288.79 0854.42
2009/04/23 17:01:13.8     232    370    163    437    466  32.1  21.3  34112  288.77 0854.42
2009/04/23 17:01:13.9     274    265     89    382    393  45.9  13.2  34134  289.13 0854.43
2009/04/23 17:01:14.0     519    185    121    552    566  70.3  12.4  34152  289.45 0854.43
2009/04/23 17:01:14.1     450    261    157    521    545  59.9  16.8  34094  288.45 0854.43
2009/04/23 17:01:14.2     325    273    269    425    502  49.9  35.5  34104  288.62 0854.43
2009/04/23 17:01:14.3     309    224    283    382    475  54.0  40.2  34106  288.65 0854.43
2009/04/23 17:01:14.4     287    233     12    370    371  50.9   1.9  34110  288.74 0854.43
2009/04/23 17:01:14.5     413    210    -97    464    475  63.0 -11.9  34162  289.59 0854.43
2009/04/23 17:01:14.6     635    312    -60    708    711  63.8  -4.9  34158  289.55 0854.43
2009/04/23 17:01:14.7     460    463    140    653    668  44.8  12.1  34212  290.44 0854.43
2009/04/23 17:01:14.8     620    461     -2    773    774  53.4  -0.2  34106  288.66 0854.43
2009/04/23 17:01:14.9     650    368    -66    748    752  60.5  -5.1  34118  288.87 0854.43
2009/04/23 17:01:15.0     407    388    100    563    572  46.4  10.1  34120  288.88 0854.43
2009/04/23 17:01:15.1     441    438     54    622    625  45.2   5.0  34188  290.03 0854.43
2009/04/23 17:01:15.2     514    312     72    602    607  58.7   6.9  34246  291.04 0854.43
2009/04/23 17:01:15.3     217    353    226    415    472  31.6  30.9  34206  290.34 0854.43
2009/04/23 17:01:15.4     151    191    140    244    281  38.3  32.4  34178  289.86 0854.43
2009/04/23 17:01:15.5     175    421    186    457    493  22.6  23.4  34172  289.78 0854.43
2009/04/23 17:01:15.6      35    395     22    397    398   5.2   3.2  34156  289.50 0854.43
2009/04/23 17:01:15.7     122    471     94    487    497  14.6  11.0  34156  289.49 0854.43
2009/04/23 17:01:15.8     185    319    193    369    416  30.1  30.0  34146  289.32 0854.43
2009/04/23 17:01:15.9     213    431    106    481    493  26.3  12.5  34150  289.40 0854.41
2009/04/23 17:01:16.0     132    381     40    404    406  19.2   5.7  34166  289.68 0854.41
2009/04/23 17:01:16.1      91    345      6    357    358  14.9   1.0  34174  289.81 0854.41
2009/04/23 17:01:16.2     146    222     -1    266    267  33.4  -0.3  34166  289.66 0854.41
2009/04/23 17:01:16.3     153    143     85    210    226  46.8  23.1  34166  289.67 0854.41
2009/04/23 17:01:16.4     148    166    -59    223    231  41.7 -15.0  34166  289.67 0854.41
2009/04/23 17:01:16.5      29    316     63    318    325   5.4  11.3  34160  289.56 0854.41
2009/04/23 17:01:16.6     190    197     58    274    281  43.9  12.1  34166  289.66 0854.41
2009/04/23 17:01:16.7     442    196     -3    484    485  66.1  -0.4  34156  289.50 0854.41
2009/04/23 17:01:16.8     684    322    100    756    763  64.8   7.6  34220  290.60 0854.41
2009/04/23 17:01:16.9     684    234    255    724    768  71.1  19.4  34186  290.02 0854.41
2009/04/23 17:01:17.0     755    153    149    771    786  78.5  11.0  34156  289.51 0854.41
2009/04/23 17:01:17.1     763    237    175    800    820  72.7  12.4  34132  289.09 0854.41
2009/04/23 17:01:17.2     620    113     86    631    637  79.7   7.8  34140  289.23 0854.41
2009/04/23 17:01:17.3     527    212     -2    569    570  68.0  -0.3  34134  289.12 0854.41
2009/04/23 17:01:17.4     212    448    188    496    530  25.3  21.8  34136  289.18 0854.41
2009/04/23 17:01:17.5     120    281     14    306    307  23.2   2.8  34146  289.32 0854.41
2009/04/23 17:01:17.6     225    225    135    319    346  45.0  24.3  34128  289.04 0854.41
2009/04/23 17:01:17.7     285    249    118    379    397  48.9  17.3  34118  288.86 0854.41
2009/04/23 17:01:17.8     187    411     34    452    454  24.5   4.3  34134  289.14 0854.41
2009/04/23 17:01:17.9     220    344     20    409    410  32.6   2.9  34182  289.95 0854.39
2009/04/23 17:01:18.0     106    329     88    346    358  17.9  14.3  34210  290.42 0854.39
2009/04/23 17:01:18.1      59    215     94    224    242  15.4  24.1  34220  290.58 0854.39
2009/04/23 17:01:18.2     131    108    102    170    198  50.5  33.7  34230  290.77 0854.39
2009/04/23 17:01:18.3     146    201    211    249    326  36.1  44.7  34252  291.12 0854.39
2009/04/23 17:01:18.4      89    223    182    241    302  21.8  40.7  34276  291.55 0854.39
2009/04/23 17:01:18.5     261    371    128    454    472  35.1  15.8  34158  289.54 0854.39
2009/04/23 17:01:18.6     446    272    146    523    544  58.6  15.6  34202  290.28 0854.39
2009/04/23 17:01:18.7     489    309      9    579    580  57.7   0.9  34188  290.03 0854.39
2009/04/23 17:01:18.8     510    245    185    566    596  64.3  18.1  34220  290.59 0854.39
2009/04/23 17:01:18.9     205    500    147    541    561  22.3  15.3  34140  289.23 0854.39
2009/04/23 17:01:19.0     153    425     47    452    455  19.8   6.0  34144  289.29 0854.39
2009/04/23 17:01:19.1     364    438     -2    570    571  39.7  -0.3  34154  289.46 0854.39
2009/04/23 17:01:19.2     489    259    -18    554    555  62.1  -1.9  34166  289.67 0854.39
2009/04/23 17:01:19.3     364    202     90    417    427  61.0  12.3  34190  290.09 0854.39
2009/04/23 17:01:19.4     594    257     74    648    653  66.6   6.6  34180  289.92 0854.39
2009/04/23 17:01:19.5     582    211     98    620    628  70.1   9.0  34198  290.23 0854.39
2009/04/23 17:01:19.6     729    213     51    760    762  73.7   3.9  34124  288.96 0854.39
2009/04/23 17:01:19.7     715    100    304    723    784  82.0  24.2  34140  289.23 0854.39
2009/04/23 17:01:19.8     726    148    354    742    822  78.4  27.3  34166  289.66 0854.39
2009/04/23 17:01:19.9     637   -198    139    668    683 107.3  11.8  34184  289.99 0854.40
2009/04/23 17:01:20.0     726     55    114    728    738  85.7   8.9  34160  289.56 0854.40
2009/04/23 17:01:20.1     636    130    222    650    688  78.4  18.9  34166  289.68 0854.40
2009/04/23 17:01:20.2     561    187    181    592    620  71.5  17.0  34104  288.61 0854.40
2009/04/23 17:01:20.3     484     33     81    486    493  86.1   9.5  34166  289.69 0854.40
2009/04/23 17:01:20.4     401     23    172    402    437  86.7  24.6  34168  289.72 0854.40
2009/04/23 17:01:20.5     552    -29     87    553    560  93.0   9.0  34160  289.58 0854.40
2009/04/23 17:01:20.6     574     89    172    582    608  81.1  16.5  34130  289.07 0854.40
2009/04/23 17:01:20.7     653     72    180    658    683  83.6  15.3  34172  289.77 0854.40
2009/04/23 17:01:20.8     617      8    265    618    672  89.2  24.8  34174  289.81 0854.40
2009/04/23 17:01:20.9     407   -334    363    527    639 129.4  37.9  34200  290.24 0854.40
2009/04/23 17:01:21.0     265   -144    331    302    448 118.6  53.0  34156  289.49 0854.40
2009/04/23 17:01:21.1     371   -135    183    396    436 110.1  26.5  34188  290.05 0854.40
2009/04/23 17:01:21.2     444    -90    262    454    524 101.6  32.7  34216  290.51 0854.40
2009/04/23 17:01:21.3     499     39    130    501    518  85.5  14.6  34208  290.39 0854.40
2009/04/23 17:01:21.4     462    142    225    484    533  72.9  26.7  34186  290.00 0854.40
2009/04/23 17:01:21.5     339    260    205    428    474  52.5  27.3  34176  289.85 0854.40
2009/04/23 17:01:21.6     599    -34    366    600    702  93.3  34.3  34184  289.99 0854.40
2009/04/23 17:01:21.7     518     77    311    524    609  81.5  33.5  34166  289.66 0854.40
2009/04/23 17:01:21.8     527     56    192    531    564  83.9  20.7  34156  289.50 0854.40
2009/04/23 17:01:21.9     482     48    189    485    520  84.2  22.5  34134  289.12 0854.37
2009/04/23 17:01:22.0     282     45    166    286    330  80.8  32.9  34148  289.37 0854.37
2009/04/23 17:01:22.1     460     59    165    464    492  82.6  20.4  34142  289.28 0854.37
2009/04/23 17:01:22.2     470     30    231    471    524  86.3  28.1  34120  288.88 0854.37
2009/04/23 17:01:22.3     442     98    234    453    509  77.4  29.3  34088  288.35 0854.37
2009/04/23 17:01:22.4     421     64    257    426    497  81.3  34.0  34112  288.76 0854.37
2009/04/23 17:01:22.5     393    -13    288    394    488  92.0  39.7  34120  288.90 0854.37
2009/04/23 17:01:22.6     423     59    117    428    444  82.0  15.3  34112  288.77 0854.37
2009/04/23 17:01:22.7     324     92    135    337    363  74.1  23.0  34126  288.99 0854.37
2009/04/23 17:01:22.8     369     26    213    370    426  85.9  32.4  34126  288.99 0854.37
2009/04/23 17:01:22.9     154    -60    228    166    282 111.3  60.5  34138  289.19 0854.41
2009/04/23 17:01:23.0     315   -175    236    361    431 119.1  36.4  34146  289.34 0854.41
2009/04/23 17:01:23.1     142   -117    251    185    311 129.5  60.1  34156  289.51 0854.41
2009/04/23 17:01:23.2     168    -20    149    170    226  97.0  45.8  34186  290.02 0854.41
2009/04/23 17:01:23.3     242    -34    189    245    309  98.1  41.7  34198  290.20 0854.41
2009/04/23 17:01:23.4     220     -3    191    221    292  91.0  45.6  34190  290.09 0854.41
2009/04/23 17:01:23.5      70     60    150     93    176  49.6  65.1  34208  290.40 0854.41
2009/04/23 17:01:23.6      -9     61     71     62     94 351.1  54.3  34198  290.23 0854.41
2009/04/23 17:01:23.7    -128    -31      6    132    133 256.3   2.9  34180  289.92 0854.41
2009/04/23 17:01:23.8    -116    -60     47    131    139 242.5  20.4  34184  289.97 0854.41
2009/04/23 17:01:23.9     -41   -115    140    123    186 199.6  54.3  34160  289.58 0854.41
2009/04/23 17:01:24.0     -43   -124     51    132    141 199.2  22.5  34150  289.40 0854.41
2009/04/23 17:01:24.1       0      6     90      7     90   4.5  90.0  34160  289.57 0854.41
2009/04/23 17:01:24.2     147      6    182    148    234  87.4  56.6  34162  289.62 0854.41
2009/04/23 17:01:24.3     189    -80    182    206    274 113.1  45.9  34114  288.80 0854.41
2009/04/23 17:01:24.4     172   -109    156    204    256 122.4  41.2  34118  288.87 0854.41
2009/04/23 17:01:24.5     164   -249    185    299    351 146.6  34.8  34110  288.74 0854.41
2009/04/23 17:01:24.6     130   -219    217    255    334 149.3  44.8  34118  288.87 0854.41
2009/04/23 17:01:24.7      82    -87    127    120    174 136.7  51.4  34122  288.94 0854.41
2009/04/23 17:01:24.8     252   -160    140    299    330 122.5  27.0  34132  289.09 0854.41
2009/04/23 17:01:24.9     261   -149    207    301    365 119.8  37.8  34146  289.35 0854.35
2009/04/23 17:01:25.0     245   -161    174    294    341 123.3  33.5  34146  289.34 0854.35
2009/04/23 17:01:25.1     211   -118    219    242    326 119.3  46.8  34144  289.31 0854.35
2009/04/23 17:01:25.2      20   -256    247    257    356 175.5  48.8  34160  289.56 0854.35
2009/04/23 17:01:25.3      -2   -301    202    302    363 180.5  37.0  34164  289.64 0854.35
2009/04/23 17:01:25.4      83   -229    131    244    276 159.9  30.6  34158  289.53 0854.35
2009/04/23 17:01:25.5      23   -138    148    141    204 170.2  51.4  34160  289.58 0854.35
2009/04/23 17:01:25.6      32   -159     86    163    184 168.4  30.3  34150  289.40 0854.35
2009/04/23 17:01:25.7     -10   -134     27    135    138 184.5  11.6  34150  289.41 0854.35
2009/04/23 17:01:25.8     -91   -147     49    174    181 211.9  15.8  34154  289.48 0854.35
2009/04/23 17:01:25.9    -181   -206     54    275    281 221.2  11.1  34154  289.46 0854.35
2009/04/23 17:01:26.0     -75   -281      0    291    292 195.1   0.0  34134  289.14 0854.35
2009/04/23 17:01:26.1      30   -147    -32    151    155 168.4 -12.2  34148  289.38 0854.35
2009/04/23 17:01:26.2     120     20     20    122    124  80.4   9.5  34146  289.35 0854.35
2009/04/23 17:01:26.3     110    166    -29    200    203  33.6  -8.2  34164  289.63 0854.35
2009/04/23 17:01:26.4      -8    188    -59    189    197 357.3 -22.3  34150  289.40 0854.35
2009/04/23 17:01:26.5    -154    351   -130    384    405 336.3 -23.7  34136  289.16 0854.35
2009/04/23 17:01:26.6    -145    426   -221    451    502 341.2 -32.4  34146  289.35 0854.35
2009/04/23 17:01:26.7      85    284     -8    297    298  16.7  -1.6  34154  289.47 0854.35
2009/04/23 17:01:26.8      55    308   -203    314    373  10.2 -40.1  34146  289.32 0854.35
2009/04/23 17:01:26.9     -32    138   -248    142    285 346.6 -72.1  34108  288.68 0854.28
2009/04/23 17:01:27.0    -130    190   -247    231    338 325.7 -56.5  34090  288.37 0854.28
2009/04/23 17:01:27.1      84    313   -248    325    408  15.1 -45.7  34096  288.50 0854.28
2009/04/23 17:01:27.2      92    230   -288    248    380  21.8 -59.4  34144  289.30 0854.28
2009/04/23 17:01:27.3     158    271   -166    314    355  30.3 -34.6  34152  289.45 0854.28
2009/04/23 17:01:27.4     223    174    -78    284    295  52.0 -15.4  34266  291.36 0854.28
2009/04/23 17:01:27.5     127    168   -216    211    301  37.2 -55.1  34164  289.64 0854.28
2009/04/23 17:01:27.6     203     85   -108    221    245  67.2 -32.2  34160  289.58 0854.28
2009/04/23 17:01:27.7     -29     93     26     98    102 342.6  15.2  34174  289.82 0854.28
2009/04/23 17:01:27.8    -199      3    -75    200    213 270.9 -25.4  34158  289.55 0854.28
2009/04/23 17:01:27.9    -130    -35    -76    135    154 254.9 -35.8  34158  289.55 0854.28
2009/04/23 17:01:28.0    -156      2   -112    157    192 270.9 -43.5  34162  289.62 0854.28
2009/04/23 17:01:28.1    -183   -124   -154    222    270 235.9 -42.4  34136  289.15 0854.28
2009/04/23 17:01:28.2    -110   -152   -231    189    298 216.0 -60.8  34140  289.22 0854.28
2009/04/23 17:01:28.3     111   -249   -139    273    306 155.9 -33.6  34168  289.70 0854.28
2009/04/23 17:01:28.4     217   -263    176    342    384 140.5  29.3  34200  290.25 0854.28
2009/04/23 17:01:28.5     259   -225    270    344    437 131.0  42.1  34204  290.33 0854.28
2009/04/23 17:01:28.6     211   -210    197    298    357 134.8  36.6  34178  289.87 0854.28
2009/04/23 17:01:28.7     129   -342    209    366    421 159.2  32.3  34188  290.04 0854.28
2009/04/23 17:01:28.8     130   -393    202    414    460 161.7  27.9  34182  289.95 0854.28
2009/04/23 17:01:28.9       2   -404    282    405    493 179.7  38.3  34162  289.61 0854.26
2009/04/23 17:01:29.0     -40   -270    198    274    338 188.5  39.5  34160  289.56 0854.26
2009/04/23 17:01:29.1    -136   -285    141    316    346 205.5  25.7  34202  290.30 0854.26
2009/04/23 17:01:29.2     -42   -206     57    211    219 191.5  15.2  34178  289.87 0854.26
2009/04/23 17:01:29.3      50   -149     88    158    180 161.3  31.4  34124  288.96 0854.26
2009/04/23 17:01:29.4     124    -36    128    130    182 106.4  50.0  34144  289.30 0854.26
2009/04/23 17:01:29.5     218    -18    265    219    343  94.8  56.3  34140  289.22 0854.26
2009/04/23 17:01:29.6      38   -101    236    109    259 159.1  73.8  34166  289.67 0854.26
2009/04/23 17:01:29.7      29    -62    222     69    232 154.7  82.3  34148  289.36 0854.26
2009/04/23 17:01:29.8     -92   -145    182    172    250 212.5  51.6  34148  289.36 0854.26
2009/04/23 17:01:29.9     -90   -170    169    193    256 208.1  45.8  34120  288.90 0854.26
2009/04/23 17:01:30.0    -106   -197    163    224    277 208.3  39.7  34136  289.17 0854.26
2009/04/23 17:01:30.1     -94   -131    180    162    242 215.8  53.3  34144  289.30 0854.26
2009/04/23 17:01:30.2    -109     23     58    112    126 281.9  29.3  34152  289.45 0854.26
2009/04/23 17:01:30.3     -60     73     91     95    131 320.4  49.0  34158  289.53 0854.26
2009/04/23 17:01:30.4      -6    146     71    147    163 357.3  27.8  34152  289.45 0854.26
2009/04/23 17:01:30.5     -12    126     78    127    149 354.2  35.0  34148  289.38 0854.26
2009/04/23 17:01:30.6       2     55    -31     56     64   2.7 -35.8  34154  289.48 0854.26
2009/04/23 17:01:30.7     -41    107     31    115    120 338.6  15.3  34142  289.26 0854.26
2009/04/23 17:01:30.8       0     68     83     69    107   0.0  56.3  34142  289.26 0854.26
2009/04/23 17:01:30.9      33    112    -12    117    118  16.5  -6.2  34130  289.06 0854.19
2009/04/23 17:01:31.0     133    106    -19    171    173  51.4  -6.5  34124  288.97 0854.19
2009/04/23 17:01:31.2     113     10    -28    114    118  84.8 -13.9  34130  289.08 0854.19
2009/04/23 17:01:31.2     162      4    -53    163    171  88.3 -23.6  34136  289.18 0854.19
2009/04/23 17:01:31.3     103    -47    -53    114    125 114.8 -31.0  34148  289.38 0854.19
2009/04/23 17:01:31.4     132    -57   -122    144    188 113.5 -48.7  34146  289.33 0854.19
2009/04/23 17:01:31.5     124    -80   -127    148    195 122.9 -49.2  34152  289.45 0854.19
2009/04/23 17:01:31.6      99    -63   -115    118    164 122.4 -54.2  34140  289.24 0854.19
2009/04/23 17:01:31.7     189    -84    -57    207    215 114.0 -15.5  34146  289.33 0854.19
2009/04/23 17:01:31.8     126   -208    -31    244    247 148.8  -7.3  34156  289.51 0854.19
2009/04/23 17:01:31.9     102   -123     46    161    168 140.3  16.0  34148  289.36 0854.19
2009/04/23 17:01:32.0      57   -117     55    131    142 154.1  23.6  34162  289.60 0854.19
2009/04/23 17:01:32.1      55   -233    118    240    267 166.6  28.2  34170  289.73 0854.19
2009/04/23 17:01:32.2      18   -180    125    181    219 174.2  38.0  34166  289.67 0854.19
2009/04/23 17:01:32.3    -119   -169    214    208    298 215.2  50.9  34182  289.95 0854.19
2009/04/23 17:01:32.4    -126   -190     35    229    232 213.6   8.9  34174  289.82 0854.19
2009/04/23 17:01:32.5    -111   -235    -61    260    268 205.3 -13.3  34168  289.71 0854.19
2009/04/23 17:01:32.6    -142   -147     94    205    225 224.1  26.6  34178  289.89 0854.19
2009/04/23 17:01:32.7    -174   -191     27    259    261 222.4   6.1  34178  289.88 0854.19
2009/04/23 17:01:32.8    -140   -228     57    268    275 211.6  12.1  34172  289.76 0854.19
2009/04/23 17:01:32.9    -145   -281     89    317    330 207.3  15.7  34162  289.59 0854.17
2009/04/23 17:01:33.0    -161   -341     83    378    388 205.3  12.4  34148  289.38 0854.17
2009/04/23 17:01:33.1    -299   -261    -51    398    402 228.9  -7.3  34172  289.76 0854.17
2009/04/23 17:01:33.2    -265   -265     39    375    378 225.0   6.1  34164  289.64 0854.17
2009/04/23 17:01:33.3    -211   -242     10    322    323 221.0   1.9  34172  289.78 0854.17
2009/04/23 17:01:33.4    -222   -339     40    406    408 213.3   5.7  34152  289.43 0854.17
2009/04/23 17:01:33.5    -263   -363     30    449    450 215.9   3.9  34164  289.63 0854.17
2009/04/23 17:01:33.6    -320   -309    -17    446    447 226.0  -2.2  34166  289.68 0854.17
2009/04/23 17:01:33.7    -314   -270    -64    415    420 229.3  -8.8  34170  289.73 0854.17
2009/04/23 17:01:33.8    -292   -296    -43    416    419 224.6  -6.0  34160  289.58 0854.17
2009/04/23 17:01:33.9    -303   -266     56    404    409 228.7   8.0  34158  289.53 0854.17
2009/04/23 17:01:34.1    -345   -211     36    405    407 238.5   5.2  34176  289.85 0854.17
2009/04/23 17:01:34.1    -292   -268     16    397    398 227.4   2.4  34146  289.33 0854.17
2009/04/23 17:01:34.3    -341   -192    -15    392    393 240.6  -2.2  34156  289.50 0854.17
2009/04/23 17:01:34.3    -347   -171    -21    387    388 243.7  -3.1  34164  289.65 0854.17
2009/04/23 17:01:34.5    -350   -129    -21    374    375 249.7  -3.3  34178  289.89 0854.17
2009/04/23 17:01:34.6    -313    -99    -28    329    331 252.5  -4.9  34188  290.04 0854.17
2009/04/23 17:01:34.7    -259   -176    -61    314    320 235.8 -11.0  34158  289.53 0854.17
2009/04/23 17:01:34.8    -308   -165    -53    350    355 241.7  -8.7  34158  289.55 0854.17
2009/04/23 17:01:34.9    -265   -184    -68    323    331 235.1 -11.9  34172  289.76 0854.17
2009/04/23 17:01:35.0    -330   -182    -25    377    378 241.1  -3.9  34164  289.64 0854.18
2009/04/23 17:01:35.1    -323   -147    -93    356    368 245.5 -14.7  34178  289.86 0854.18
2009/04/23 17:01:35.2    -277    -75    -79    288    299 254.9 -15.4  34164  289.64 0854.18
2009/04/23 17:01:35.3    -108     51     -2    120    121 295.3  -1.2  34166  289.67 0854.18
2009/04/23 17:01:35.4     -23      7    -37     25     44 288.4 -68.0  34172  289.77 0854.18
2009/04/23 17:01:35.5     -46     16     -8     49     50 290.0 -10.3  34158  289.55 0854.18
2009/04/23 17:01:35.6    -166    -72    -38    182    187 246.5 -11.9  34140  289.23 0854.18
2009/04/23 17:01:35.7    -302     56     87    308    321 280.6  15.8  34142  289.25 0854.18
2009/04/23 17:01:35.8    -255    125     36    285    288 296.2   7.2  34144  289.31 0854.18
2009/04/23 17:01:35.9    -324    184    -42    373    376 299.7  -6.5  34094  288.45 0854.18
2009/04/23 17:01:36.0    -273    184    -55    330    335 304.1  -9.6  34074  288.11 0854.18
2009/04/23 17:01:36.1    -150    169     84    227    242 318.5  21.0  34082  288.26 0854.18
2009/04/23 17:01:36.2    -153    113    120    191    225 306.4  35.5  34094  288.47 0854.18
2009/04/23 17:01:36.3    -132      9    155    133    204 274.3  54.8  34112  288.77 0854.18
2009/04/23 17:01:36.4    -190   -257    -47    321    325 216.5  -8.4  34148  289.37 0854.18
2009/04/23 17:01:36.5    -290   -328    -46    439    442 221.5  -6.1  34142  289.27 0854.18
2009/04/23 17:01:36.6    -221   -386    -64    445    450 209.8  -8.2  34148  289.38 0854.18
2009/04/23 17:01:36.7    -219   -374    -71    434    440 210.4  -9.3  34108  288.70 0854.18
2009/04/23 17:01:36.8    -370   -229   -109    436    450 238.2 -14.1  34110  288.73 0854.18
2009/04/23 17:01:36.9    -394   -157   -134    425    446 248.3 -17.5  34142  289.27 0854.18
2009/04/23 17:01:37.0    -318   -116   -110    339    357 249.8 -18.0  34152  289.42 0854.23
2009/04/23 17:01:37.1    -349    -77   -136    358    382 257.5 -26.2  34146  289.35 0854.23
2009/04/23 17:01:37.2    -309    -73   -165    318    358 256.7 -33.9  34146  289.32 0854.23
2009/04/23 17:01:37.3    -374   -142   -131    401    421 249.2 -23.3  34132  289.09 0854.23
2009/04/23 17:01:37.4    -392   -242    -84    461    469 238.3 -10.4  34102  288.59 0854.23
2009/04/23 17:01:37.5    -367   -216   -144    427    451 239.5 -18.7  34088  288.34 0854.23
2009/04/23 17:01:37.6    -433   -228   -119    490    505 242.2 -13.7  34100  288.57 0854.23
2009/04/23 17:01:37.7    -433   -276   -144    514    533 237.5 -20.2  34074  288.13 0854.23
2009/04/23 17:01:37.8    -367   -315   -165    484    511 229.4 -23.9  34070  288.05 0854.23
2009/04/23 17:01:37.9    -364   -471    -99    596    605 217.8  -9.5  34130  289.07 0854.23
2009/04/23 17:01:38.0    -255   -356   -100    438    450 215.6 -12.9  34152  289.44 0854.23
2009/04/23 17:01:38.1    -134   -294    -99    324    338 204.5 -21.9  34162  289.60 0854.23
2009/04/23 17:01:38.2    -140   -389     94    414    425 199.8  12.8  34166  289.66 0854.23
2009/04/23 17:01:38.3     -19   -354    -13    355    356 183.2  -2.2  34184  289.98 0854.23
2009/04/23 17:01:38.4    -197   -417     44    462    465 205.3   5.5  34162  289.61 0854.23
2009/04/23 17:01:38.5    -160   -399     75    431    438 201.9   9.9  34158  289.55 0854.23
2009/04/23 17:01:38.6    -244   -309     76    394    402 218.3  11.0  34148  289.37 0854.23
2009/04/23 17:01:38.7    -224   -321     32    392    394 215.0   4.7  34136  289.15 0854.23
2009/04/23 17:01:38.8    -193   -218    -26    292    294 221.5  -5.1  34124  288.97 0854.23
2009/04/23 17:01:38.9    -289   -193    -40    348    351 236.3  -6.6  34138  289.21 0854.23
2009/04/23 17:01:39.0    -345   -182    -60    391    396 242.1  -8.8  34132  289.11 0854.26
2009/04/23 17:01:39.1    -153   -218    -79    267    278 215.1 -21.7  34118  288.85 0854.26
2009/04/23 17:01:39.2     -87   -140   -135    166    213 211.9 -47.9  34120  288.89 0854.26
2009/04/23 17:01:39.3     -63   -114    -88    131    157 209.0 -41.4  34150  289.41 0854.26
2009/04/23 17:01:39.4    -154    -87    -40    177    182 240.5 -12.9  34144  289.31 0854.26
2009/04/23 17:01:39.5    -161   -160    -42    228    232 225.1 -10.5  34138  289.21 0854.26
2009/04/23 17:01:39.6     -69   -201    -57    213    221 198.9 -15.0  34142  289.26 0854.26
2009/04/23 17:01:39.7       4   -285    -86    286    298 179.1 -21.7  34142  289.25 0854.26
2009/04/23 17:01:39.8      17   -226    -47    227    233 175.6 -11.9  34140  289.23 0854.26
2009/04/23 17:01:39.9     -42   -153    -46    159    165 195.6 -21.2  34138  289.19 0854.26
2009/04/23 17:01:40.0      23   -179    -41    181    186 172.7 -12.9  34136  289.16 0854.26
2009/04/23 17:01:40.1      87   -149    -58    173    182 149.7 -23.6  34138  289.19 0854.26
2009/04/23 17:01:40.2       4   -123    -66    124    140 177.8 -35.2  34148  289.38 0854.26
2009/04/23 17:01:40.3      15   -100    -19    102    104 171.1 -10.9  34148  289.36 0854.26
2009/04/23 17:01:40.4      43    -94     -5    104    105 155.1  -3.1  34144  289.30 0854.26
2009/04/23 17:01:40.5      34   -105     14    111    112 161.7   7.5  34152  289.45 0854.26
2009/04/23 17:01:40.6      25   -124    -72    127    145 168.4 -36.3  34144  289.31 0854.26
2009/04/23 17:01:40.7       6   -144    -99    145    175 177.3 -42.2  34134  289.13 0854.26
2009/04/23 17:01:40.8     -22   -183    -37    185    189 187.1 -11.5  34140  289.23 0854.26
2009/04/23 17:01:40.9     -61   -176    -52    187    195 199.2 -15.5  34132  289.11 0854.26
2009/04/23 17:01:41.0     -20   -281    -11    282    283 184.2  -2.2  34086  288.32 0854.31
2009/04/23 17:01:41.1       4   -268    -14    269    270 179.1  -3.1  34080  288.21 0854.31
2009/04/23 17:01:41.2      15   -259    -19    260    261 176.6  -4.4  34092  288.43 0854.31
2009/04/23 17:01:41.3      20   -273     -1    274    275 175.6  -0.3  34104  288.61 0854.31
2009/04/23 17:01:41.4     -33   -304      9    306    307 186.2   1.7  34104  288.63 0854.31
2009/04/23 17:01:41.5      -7   -296     21    297    298 181.4   4.2  34126  288.98 0854.31
2009/04/23 17:01:41.6      -6   -269     13    270    271 181.4   2.9  34128  289.02 0854.31
2009/04/23 17:01:41.7     -13   -289     36    290    293 182.7   7.2  34110  288.73 0854.31
2009/04/23 17:01:41.8     -20   -259     42    260    264 184.5   9.3  34120  288.90 0854.31
2009/04/23 17:01:41.9     -16   -216     42    217    222 184.5  11.1  34124  288.97 0854.31
2009/04/23 17:01:42.0      50   -226     77    232    245 167.3  18.4  34092  288.41 0854.31
2009/04/23 17:01:42.1      29   -249     35    251    254 173.3   8.0  34094  288.44 0854.31
2009/04/23 17:01:42.2      38   -237     17    241    242 170.9   4.2  34092  288.41 0854.31
2009/04/23 17:01:42.3      17   -242     85    243    257 175.8  20.0  34092  288.43 0854.31
2009/04/23 17:01:42.4      24   -220     78    222    236 173.8  19.4  34090  288.38 0854.31
2009/04/23 17:01:42.5      56   -231     86    238    254 166.2  19.9  34088  288.36 0854.31
2009/04/23 17:01:42.6      46   -208     90    214    232 167.3  24.1  34090  288.38 0854.31
2009/04/23 17:01:42.7      39   -203    108    207    233 169.1  29.5  34086  288.33 0854.31
2009/04/23 17:01:42.8      87   -162    131    184    225 151.7  39.3  34086  288.31 0854.31
2009/04/23 17:01:42.9      58   -123    120    137    182 154.7  45.8  34090  288.40 0854.31
2009/04/23 17:01:43.0     110    -88    133    142    194 128.6  48.2  34110  288.74 0854.35
2009/04/23 17:01:43.1      53    -75    105     92    139 144.8  54.3  34120  288.89 0854.35
2009/04/23 17:01:43.2       9    -27     85     29     89 161.7  81.2  34124  288.97 0854.35
2009/04/23 17:01:43.3     -16     48     59     51     77 340.8  54.3  34128  289.02 0854.35
2009/04/23 17:01:43.4      74     24     81     78    112  71.8  51.2  34110  288.74 0854.35
2009/04/23 17:01:43.5      46     16     86     49     98  70.9  68.3  34124  288.96 0854.35
2009/04/23 17:01:43.6       0     26     55     27     61 359.1  72.8  34136  289.18 0854.35
2009/04/23 17:01:43.7     -37     37     37     53     64 314.9  38.6  34122  288.94 0854.35
2009/04/23 17:01:43.8     -64     40     44     76     87 302.4  32.9  34118  288.86 0854.35
2009/04/23 17:01:43.9     -70    -18     30     73     78 255.0  23.0  34126  288.99 0854.35
2009/04/23 17:01:44.0     -13   -113     41    114    121 186.7  20.9  34142  289.26 0854.36
2009/04/23 17:01:44.1      -5    -63     30     64     70 185.3  27.2  34148  289.36 0854.36
2009/04/23 17:01:44.2     -17    -52     15     55     58 198.7  15.3  34158  289.53 0854.36
2009/04/23 17:01:44.3     -53    -48     11     72     73 227.8   9.0  34150  289.40 0854.36
2009/04/23 17:01:44.4      -9   -106    -29    107    112 184.9 -15.4  34144  289.31 0854.36
2009/04/23 17:01:44.5     -33    -73    -63     81    102 204.5 -46.6  34138  289.19 0854.36
2009/04/23 17:01:44.6      -3    -97     -2     98     99 182.2  -1.3  34140  289.24 0854.36
2009/04/23 17:01:44.7      17   -133     31    135    139 172.4  13.2  34140  289.24 0854.36
2009/04/23 17:01:44.8      30   -214     18    217    218 172.0   4.9  34136  289.18 0854.36
2009/04/23 17:01:44.9      19   -218    -36    219    222 174.9  -9.3  34124  288.96 0854.36
2009/04/23 17:01:45.0      59   -220    -28    228    230 164.9  -7.2  34130  289.06 0854.36
2009/04/23 17:01:45.1      85   -161    -30    183    186 152.1  -9.3  34118  288.86 0854.36
2009/04/23 17:01:45.2      72   -150    -52    167    175 154.1 -17.3  34134  289.13 0854.36
2009/04/23 17:01:45.3     158   -173     50    235    241 137.5  12.2  34104  288.61 0854.36
2009/04/23 17:01:45.4      69   -120     16    139    141 150.1   6.9  34116  288.82 0854.36
2009/04/23 17:01:45.5     155    -61     71    167    181 111.5  24.3  34106  288.65 0854.36
2009/04/23 17:01:45.6     108   -226    206    251    324 154.4  43.7  34110  288.73 0854.36
2009/04/23 17:01:45.7      72   -218    208    230    310 161.7  46.9  34118  288.85 0854.36
2009/04/23 17:01:45.8      83   -152    121    174    211 151.3  37.8  34110  288.72 0854.36
2009/04/23 17:01:45.9     158    -51    141    167    218 107.9  44.3  34114  288.79 0854.36
2009/04/23 17:01:46.0     133    -34     36    138    143 104.6  14.7  34110  288.74 0854.36
2009/04/23 17:01:46.1     131   -168     20    214    216 142.1   5.4  34118  288.87 0854.36
2009/04/23 17:01:46.2     166     57    103    176    203  70.9  33.4  34112  288.75 0854.36
2009/04/23 17:01:46.3     180    115    107    214    239  57.4  28.5  34086  288.31 0854.36
2009/04/23 17:01:46.4     145     71    136    162    211  63.8  44.3  34084  288.30 0854.36
2009/04/23 17:01:46.5      89    -11    126     90    154  97.5  60.6  34106  288.65 0854.36
2009/04/23 17:01:46.6     232    -13     24    233    235  93.3   5.9  34088  288.36 0854.36
2009/04/23 17:01:46.7     247     71     13    258    259  73.8   2.9  34104  288.61 0854.36
2009/04/23 17:01:46.8     287    182    102    341    357  57.6  16.7  34090  288.38 0854.36
2009/04/23 17:01:46.9     296    277    -73    406    413  46.9 -10.2  34106  288.65 0854.36
2009/04/23 17:01:47.0     413     77    149    421    446  79.4  20.2  34104  288.63 0854.36
2009/04/23 17:01:47.1     515    202     42    554    556  68.6   4.3  34104  288.63 0854.36
2009/04/23 17:01:47.2     559    235     96    607    615  67.2   9.0  34102  288.59 0854.36
2009/04/23 17:01:47.3     604    225    138    645    660  69.5  12.2  34134  289.13 0854.36
2009/04/23 17:01:47.4     476    189     -2    513    514  68.3  -0.3  34108  288.68 0854.36
2009/04/23 17:01:47.5     410    251     60    481    485  58.5   7.2  34128  289.03 0854.36
2009/04/23 17:01:47.6     359    106    -89    375    386  73.5 -13.4  34106  288.67 0854.36
2009/04/23 17:01:47.7     388    162      5    421    422  67.3   0.8  34116  288.82 0854.36
2009/04/23 17:01:47.8     221    155    -55    271    277  54.9 -11.5  34140  289.24 0854.36
2009/04/23 17:01:47.9     307     72     49    316    320  76.7   8.9  34120  288.90 0854.36
2009/04/23 17:01:48.0     350    179    -18    394    395  62.9  -2.7  34120  288.88 0854.35
2009/04/23 17:01:48.1     284    149    -24    321    322  62.3  -4.4  34116  288.81 0854.35
2009/04/23 17:01:48.2     206    166    -41    265    269  51.1  -8.8  34108  288.70 0854.35
2009/04/23 17:01:48.3     228    260    -30    346    348  41.3  -5.1  34112  288.77 0854.35
2009/04/23 17:01:48.4     343      3    -35    344    346  89.4  -5.9  34116  288.82 0854.35
2009/04/23 17:01:48.5     351     11     30    352    354  88.1   5.0  34120  288.89 0854.35
2009/04/23 17:01:48.6     354    -23     50    355    359  93.7   8.1  34120  288.88 0854.35
2009/04/23 17:01:48.7     340     99     94    355    368  73.7  14.9  34136  289.15 0854.35
2009/04/23 17:01:48.8     270    179     92    325    338  56.4  15.8  34142  289.25 0854.35
2009/04/23 17:01:48.9     158    241    136    289    319  33.4  27.0  34178  289.88 0854.35
2009/04/23 17:01:49.0     211     99    179    234    294  64.8  41.4  34164  289.64 0854.35
2009/04/23 17:01:49.1     250     20     -7    251    252  85.2  -1.8  34132  289.10 0854.35
2009/04/23 17:01:49.2     241    -52     31    247    249 102.4   7.2  34154  289.46 0854.35
2009/04/23 17:01:49.3     230    -61     85    239    253 105.0  20.2  34160  289.58 0854.35
2009/04/23 17:01:49.4     178   -151     78    234    247 130.4  18.4  34156  289.49 0854.35
2009/04/23 17:01:49.5      94   -161     84    187    205 149.5  25.9  34166  289.69 0854.35
2009/04/23 17:01:49.6      76   -121     62    144    156 147.9  24.9  34166  289.69 0854.35
2009/04/23 17:01:49.7     101   -166     83    195    211 148.8  24.6  34190  290.08 0854.35
2009/04/23 17:01:49.8     127   -156    121    202    235 140.8  33.5  34204  290.33 0854.35
2009/04/23 17:01:49.9      90   -124    114    154    191 143.9  40.1  34208  290.38 0854.35
2009/04/23 17:01:50.0     160    -85    123    182    219 118.0  37.4  34202  290.28 0854.37
2009/04/23 17:01:50.1      82    -63    104    104    147 127.8  50.1  34204  290.33 0854.37
2009/04/23 17:01:50.2      80    -81    122    114    166 135.3  52.2  34214  290.48 0854.37
2009/04/23 17:01:50.3      74    -96    112    122    165 142.2  47.7  34166  289.67 0854.37
2009/04/23 17:01:50.4      95    -85    108    128    167 131.8  44.5  34182  289.96 0854.37
2009/04/23 17:01:50.5     150   -208    192    257    320 144.0  40.4  34162  289.61 0854.37
2009/04/23 17:01:50.6     121   -122    173    172    243 135.2  50.1  34190  290.09 0854.37
2009/04/23 17:01:50.7     174   -134    162    220    273 127.7  39.9  34166  289.68 0854.37
2009/04/23 17:01:50.8      65    -82    171    105    200 141.7  65.7  34202  290.30 0854.37
2009/04/23 17:01:50.9      52   -221    215    228    313 166.6  48.2  34172  289.76 0854.37
2009/04/23 17:01:51.0     102   -224    160    247    294 155.5  35.7  34148  289.37 0854.37
2009/04/23 17:01:51.1     134   -125    177    184    255 133.1  49.0  34148  289.37 0854.37
2009/04/23 17:01:51.2     178   -113    161    211    265 122.4  41.4  34158  289.53 0854.37
2009/04/23 17:01:51.3     120   -190    142    225    266 147.7  35.5  34180  289.90 0854.37
2009/04/23 17:01:51.4     143   -179    157    230    278 141.5  37.6  34170  289.73 0854.37
2009/04/23 17:01:51.5     150   -199    205    250    323 143.0  43.6  34184  289.97 0854.37
2009/04/23 17:01:51.6      72   -250    144    261    298 163.9  31.4  34172  289.78 0854.37
2009/04/23 17:01:51.7      82   -216    197    232    304 159.1  44.5  34170  289.73 0854.37
2009/04/23 17:01:51.8      73   -196    174    210    272 159.5  43.8  34162  289.61 0854.37
2009/04/23 17:01:51.9      56   -156    180    166    244 160.2  52.7  34180  289.92 0854.37
2009/04/23 17:01:52.0       4   -174    150    175    230 178.4  44.8  34216  290.53 0854.35
2009/04/23 17:01:52.1       6   -159    176    160    237 177.8  53.2  34208  290.40 0854.35
2009/04/23 17:01:52.2       3    -39    155     40    160 175.5  85.6  34210  290.41 0854.35
2009/04/23 17:01:52.3       3   -122    233    123    263 178.2  69.9  34210  290.43 0854.35
2009/04/23 17:01:52.4     -36    -24    184     44    189 236.7  86.9  34236  290.86 0854.35
2009/04/23 17:01:52.5     -19     -4    160     20    161 256.7  90.0  34228  290.72 0854.35
2009/04/23 17:01:52.6     -72    -24    131     76    151 251.6  67.2  34208  290.38 0854.35
2009/04/23 17:01:52.7    -120    -71     81    140    161 239.3  32.7  34206  290.35 0854.35
2009/04/23 17:01:52.8    -163    -76     97    180    204 244.9  30.8  34216  290.52 0854.35
2009/04/23 17:01:52.9    -144    -91     80    171    188 237.6  27.1  34212  290.47 0854.35
2009/04/23 17:01:53.1    -111    -68     43    131    139 238.5  18.4  34214  290.48 0854.35
2009/04/23 17:01:53.1     -84   -109     37    138    144 217.8  15.2  34204  290.33 0854.35
2009/04/23 17:01:53.2     -65    -79    -13    103    104 219.6  -7.2  34196  290.19 0854.35
2009/04/23 17:01:53.3     -50    -79     44     94    103 212.5  27.1  34220  290.58 0854.35
2009/04/23 17:01:53.4     -88   -107     34    139    144 219.6  13.7  34194  290.14 0854.35
2009/04/23 17:01:53.5    -167    -50     21    175    177 253.2   6.9  34220  290.60 0854.35
2009/04/23 17:01:53.6    -114    -72     -4    136    137 237.6  -1.8  34212  290.47 0854.35
2009/04/23 17:01:53.7    -168   -106     28    199    202 237.6   8.2  34174  289.82 0854.35
2009/04/23 17:01:53.8    -235    -97     91    255    270 247.4  20.0  34194  290.14 0854.35
2009/04/23 17:01:53.9    -211    -89     20    230    231 247.2   5.0  34184  289.97 0854.35
2009/04/23 17:01:54.0    -199   -148     81    249    263 233.4  18.1  34194  290.15 0854.36
2009/04/23 17:01:54.1    -101   -213     54    236    243 205.5  12.9  34200  290.24 0854.36
2009/04/23 17:01:54.3    -197   -161     69    255    265 230.7  15.3  34188  290.03 0854.36
2009/04/23 17:01:54.3    -265   -202    116    334    354 232.8  19.2  34194  290.15 0854.36
2009/04/23 17:01:54.4    -236   -116     93    264    280 243.8  19.4  34206  290.36 0854.36
2009/04/23 17:01:54.5    -235   -175     75    294    304 233.4  14.3  34200  290.26 0854.36
2009/04/23 17:01:54.6    -258    -73    113    269    291 254.1  24.1  34194  290.15 0854.36
2009/04/23 17:01:54.7    -207    -92     79    227    241 246.0  19.2  34184  289.98 0854.36
2009/04/23 17:01:54.8    -121   -116    162    168    233 226.2  49.2  34176  289.85 0854.36
2009/04/23 17:01:54.9    -159   -115    153    197    249 234.0  41.7  34194  290.14 0854.36
2009/04/23 17:01:55.0    -300   -233    139    381    405 232.2  20.9  34216  290.52 0854.36
2009/04/23 17:01:55.1    -224   -198     87    300    313 228.6  16.3  34208  290.39 0854.36
2009/04/23 17:01:55.2    -171   -101    -25    199    201 239.3  -7.3  34206  290.35 0854.36
2009/04/23 17:01:55.3    -136    -87    -23    162    164 237.5  -8.2  34202  290.30 0854.36
2009/04/23 17:01:55.4    -182   -132     81    226    240 234.0  20.4  34162  289.61 0854.36
2009/04/23 17:01:55.5     -41    -64    179     77    194 212.5  75.3  34156  289.50 0854.36
2009/04/23 17:01:55.6     -26   -153    208    156    260 189.8  59.4  34124  288.96 0854.36
2009/04/23 17:01:55.7      -4   -154    239    155    284 181.8  64.4  34102  288.58 0854.36
2009/04/23 17:01:55.8     -49   -142    174    151    230 199.2  54.8  34104  288.62 0854.36
2009/04/23 17:01:55.9     -39   -230     41    234    238 189.8  10.1  34118  288.85 0854.36
2009/04/23 17:01:56.0    -142   -143    108    202    229 224.8  30.6  34106  288.65 0854.38
2009/04/23 17:01:56.1    -106   -118    141    159    212 221.9  46.2  34094  288.47 0854.38
2009/04/23 17:01:56.2    -112   -129    136    172    219 221.0  42.4  34102  288.58 0854.38
2009/04/23 17:01:56.3    -112   -166     69    201    213 214.1  19.2  34104  288.64 0854.38
2009/04/23 17:01:56.4    -132   -160     46    208    214 219.7  12.6  34106  288.67 0854.38
2009/04/23 17:01:56.5    -175   -148    -10    230    231 229.8  -2.6  34144  289.31 0854.38
2009/04/23 17:01:56.6    -123   -162     58    204    213 217.2  16.0  34112  288.75 0854.38
2009/04/23 17:01:56.7      37    -72    122     81    146 152.8  63.6  34120  288.91 0854.38
2009/04/23 17:01:56.8     -10   -132     86    133    158 184.4  36.0  34110  288.74 0854.38
2009/04/23 17:01:56.9      41   -103     47    112    121 158.2  24.1  34128  289.04 0854.38
2009/04/23 17:01:57.0      76   -138     56    158    167 151.0  20.2  34144  289.31 0854.38
2009/04/23 17:01:57.1     -31   -100    114    105    154 197.4  52.2  34150  289.40 0854.38
2009/04/23 17:01:57.2      -8    -76    113     77    136 186.2  62.7  34144  289.31 0854.38
2009/04/23 17:01:57.3     -30   -114     45    119    127 195.1  21.5  34172  289.79 0854.38
2009/04/23 17:01:57.4     -50   -112     49    123    132 204.1  23.0  34152  289.43 0854.38
2009/04/23 17:01:57.5     -25    -67     76     72    104 200.9  51.2  34130  289.08 0854.38
2009/04/23 17:01:57.6       5    -67     66     68     94 175.5  50.5  34128  289.02 0854.38
2009/04/23 17:01:57.7      -4    -61     62     62     87 184.5  50.1  34134  289.13 0854.38
2009/04/23 17:01:57.8     -19    -28     68     34     76 214.3  71.9  34146  289.33 0854.38
2009/04/23 17:01:57.9     -23    -23     51     33     60 225.0  64.6  34144  289.31 0854.38
2009/04/23 17:01:58.0     -72    -34     33     80     86 244.8  23.0  34128  289.04 0854.39
2009/04/23 17:01:58.1     -73     10     65     74     98 277.9  46.4  34150  289.41 0854.39
2009/04/23 17:01:58.2    -116    -48     81    126    149 247.4  35.6  34140  289.24 0854.39
2009/04/23 17:01:58.4    -126    -62     82    141    163 243.8  32.9  34156  289.50 0854.39
2009/04/23 17:01:58.4     -49      8     67     50     83 279.7  59.4  34148  289.38 0854.39
2009/04/23 17:01:58.5    -127     91     41    157    163 305.9  14.7  34154  289.46 0854.39
2009/04/23 17:01:58.6     -66     39     -9     77     78 300.7  -7.3  34154  289.48 0854.39
2009/04/23 17:01:58.7       3     98     42     99    107   2.2  23.6  34156  289.52 0854.39
2009/04/23 17:01:58.8     -59    135     65    148    161 336.4  25.1  34208  290.38 0854.39
2009/04/23 17:01:58.9     -71    -18     63     74     97 255.8  44.8  34222  290.62 0854.39
2009/04/23 17:01:59.0      24     24     78     34     85  45.0  75.0  34240  290.94 0854.39
2009/04/23 17:01:59.1      47     22     71     52     88  64.8  60.5  34232  290.79 0854.39
2009/04/23 17:01:59.2      75     49     30     90     95  56.7  18.4  34214  290.48 0854.39
2009/04/23 17:01:59.3     112    106    -48    155    162  46.8 -22.3  34236  290.87 0854.39
2009/04/23 17:01:59.4      57    124    -30    137    141  24.9 -12.4  34250  291.11 0854.39
2009/04/23 17:01:59.5      93     68     74    116    137  53.6  35.6  34194  290.16 0854.39
2009/04/23 17:01:59.6      80     88    -15    120    121  42.3  -7.3  34196  290.19 0854.39
2009/04/23 17:01:59.7     126     50     16    136    137  68.3   6.9  34214  290.48 0854.39
2009/04/23 17:01:59.8     151     77     47    170    177  62.7  15.6  34256  291.20 0854.39
2009/04/23 17:01:59.9     156    124     47    200    206  51.4  13.2  34296  291.89 0854.39
2009/04/23 17:02:00.0      78    124     63    147    159  32.1  24.6  34292  291.81 0854.40
2009/04/23 17:02:00.1      32    136     61    140    152  13.3  25.1  34294  291.86 0854.40
2009/04/23 17:02:00.2      26    116     53    120    131  12.9  25.2  34310  292.12 0854.40
2009/04/23 17:02:00.3      43     76     97     88    130  29.4  53.3  34328  292.42 0854.40
2009/04/23 17:02:00.4      31     31     47     45     65  45.0  51.2  34336  292.56 0854.40
2009/04/23 17:02:00.5      13     40     44     43     61  18.5  50.1  34316  292.23 0854.40
2009/04/23 17:02:00.6      32     60     38     69     78  28.1  30.8  34304  292.03 0854.40
2009/04/23 17:02:00.7      71     16    109     73    131  76.7  63.2  34294  291.84 0854.40
2009/04/23 17:02:00.9      -9     59     83     60    102 351.1  60.5  34308  292.10 0854.40
2009/04/23 17:02:01.0     -21     74     82     77    112 344.0  52.1  34296  291.89 0854.40
2009/04/23 17:02:01.1       0     53     92     54    106 359.1  66.8  34314  292.20 0854.40
2009/04/23 17:02:01.2     117      9    168    118    205  85.6  61.3  34316  292.23 0854.40
2009/04/23 17:02:01.3     -36    108    170    114    204 341.5  63.2  34296  291.88 0854.40
2009/04/23 17:02:01.4      26     20    111     34    116  52.2  82.3  34318  292.27 0854.40
2009/04/23 17:02:01.5     -38    101    150    109    185 339.1  60.5  34308  292.08 0854.40
2009/04/23 17:02:01.6     -30     90    127     96    159 341.3  59.2  34300  291.95 0854.40
2009/04/23 17:02:01.7     -53     84     97    100    139 327.4  49.4  34302  291.98 0854.40
2009/04/23 17:02:01.8     -83     73     75    111    133 311.3  37.0  34294  291.86 0854.40
2009/04/23 17:02:01.9    -139     65     40    154    160 295.2  14.7  34290  291.77 0854.40
2009/04/23 17:02:02.0    -104     57     39    119    126 298.9  18.4  34290  291.77 0854.40
2009/04/23 17:02:02.1    -155     75     72    173    187 295.8  23.8  34284  291.67 0854.34
2009/04/23 17:02:02.2    -146     88     60    171    182 301.1  19.4  34286  291.71 0854.34
2009/04/23 17:02:02.3    -145     71     71    162    176 296.2  25.1  34286  291.71 0854.34
2009/04/23 17:02:02.4    -129     62     63    144    157 295.8  25.1  34266  291.38 0854.34
2009/04/23 17:02:02.5     -49     78     30     93     98 327.5  17.9  34254  291.16 0854.34
2009/04/23 17:02:02.6     -39    115     -2    122    123 341.3  -1.3  34260  291.26 0854.34
2009/04/23 17:02:02.7     -64    126    -76    142    161 332.8 -35.0  34274  291.52 0854.34
2009/04/23 17:02:02.8     -86    143    -46    168    175 329.0 -15.4  34190  290.08 0854.34
2009/04/23 17:02:02.9     -37    172    -43    177    183 347.7 -13.9  34192  290.11 0854.34
2009/04/23 17:02:03.0     -59    178      4    188    189 341.5   1.2  34204  290.33 0854.34
2009/04/23 17:02:03.1     -90    166     -5    189    190 331.5  -1.6  34210  290.41 0854.34
2009/04/23 17:02:03.2     -37    262     82    265    278 351.8  17.3  34244  291.00 0854.34
2009/04/23 17:02:03.3    -116    275     80    299    310 337.2  15.1  34192  290.10 0854.34
2009/04/23 17:02:03.4     -28    335     34    337    339 355.1   5.9  34208  290.38 0854.34
2009/04/23 17:02:03.5     -33    307     37    309    312 353.8   6.9  34172  289.78 0854.34
2009/04/23 17:02:03.6     -59    319     72    325    333 349.4  12.5  34172  289.77 0854.34
2009/04/23 17:02:03.7     -99    341     83    356    366 343.7  13.2  34182  289.94 0854.34
2009/04/23 17:02:03.8    -137    291    152    322    356 334.7  27.1  34192  290.11 0854.34
2009/04/23 17:02:03.9     -92    303    105    317    335 343.1  18.4  34302  292.00 0854.34
2009/04/23 17:02:04.0     -40    296    132    299    326 352.2  25.3  34372  293.16 0854.34
2009/04/23 17:02:04.1     -40    352    101    355    370 353.4  15.9  34338  292.60 0854.38
2009/04/23 17:02:04.2      60    380    149    385    412   9.0  22.3  34370  293.13 0854.38
2009/04/23 17:02:04.3     -23    380     44    381    384 356.5   6.6  34332  292.51 0854.38
2009/04/23 17:02:04.4     -10    328     34    329    331 358.2   5.9  34304  292.03 0854.38
2009/04/23 17:02:04.5     -14    317    132    318    344 357.3  23.9  34340  292.63 0854.38
2009/04/23 17:02:04.6     -10    345    123    346    367 358.2  20.2  34338  292.61 0854.38
2009/04/23 17:02:04.7     110    197    167    226    281  29.2  39.9  34324  292.36 0854.38
2009/04/23 17:02:04.8      54    178    156    187    243  16.9  44.1  34334  292.52 0854.38
2009/04/23 17:02:04.9      50     91    130    105    167  28.9  56.6  34342  292.68 0854.38
2009/04/23 17:02:05.0     136     83    100    160    188  58.5  35.5  34330  292.47 0854.38
2009/04/23 17:02:05.1      61     49     74     79    108  51.4  48.0  34334  292.54 0854.42
2009/04/23 17:02:05.2      31     46     74     56     92  34.3  58.5  34326  292.40 0854.42
2009/04/23 17:02:05.3       9    122    167    123    207   4.4  60.3  34352  292.85 0854.42
2009/04/23 17:02:05.4      88     64    126    109    166  54.0  54.8  34366  293.09 0854.42
2009/04/23 17:02:05.5     233     99    203    254    325  66.9  42.9  34390  293.47 0854.42
2009/04/23 17:02:05.6     217     72    168    229    284  71.6  39.9  34384  293.39 0854.42
2009/04/23 17:02:05.7     187     59    172    197    261  72.3  45.8  34362  292.99 0854.42
2009/04/23 17:02:05.8      -2    -24    106     25    108 186.2  87.5  34336  292.58 0854.42
2009/04/23 17:02:05.9      -4      5     84      7     84 320.4  90.0  34342  292.68 0854.42
2009/04/23 17:02:06.0     -10     -3     77     11     77 251.6  90.0  34332  292.51 0854.42
2009/04/23 17:02:06.1      -8      0     89      9     89 270.0  90.0  34312  292.17 0854.42
2009/04/23 17:02:06.2     -24     50     49     56     74 334.6  45.8  34290  291.79 0854.42
2009/04/23 17:02:06.3      18    136     13    138    139   7.6   5.4  34252  291.13 0854.42
2009/04/23 17:02:06.4      29    125    -12    129    130  13.4  -5.6  34298  291.91 0854.42
2009/04/23 17:02:06.5     104     48     14    115    116  64.8   7.1  34302  292.00 0854.42
2009/04/23 17:02:06.6      64     67     -3     93     94  43.7  -2.2  34308  292.10 0854.42
2009/04/23 17:02:06.7      54      4     47     55     72  85.7  44.8  34306  292.06 0854.42
2009/04/23 17:02:06.8      50    -45    101     68    121 132.2  62.7  34280  291.62 0854.42
2009/04/23 17:02:06.9     131    -57     -5    143    144 113.5  -2.2  34310  292.12 0854.42
2009/04/23 17:02:07.0     104    -12     11    105    106  97.0   6.5  34308  292.10 0854.42
2009/04/23 17:02:07.1      84     24    -26     88     92  74.1 -16.6  34298  291.93 0854.45
2009/04/23 17:02:07.2      24     14     -8     28     30  59.3 -15.5  34302  291.98 0854.45
2009/04/23 17:02:07.3      23      4     23     24     33  80.3  52.0  34300  291.96 0854.45
2009/04/23 17:02:07.4     101    -33     51    107    118 108.2  27.2  34302  291.98 0854.45
2009/04/23 17:02:07.5     145    -47     25    153    156 108.2   9.5  34302  291.98 0854.45
2009/04/23 17:02:07.6     132      1     72    133    151  89.2  31.3  34300  291.96 0854.45
2009/04/23 17:02:07.7     143     37     82    148    169  75.4  31.6  34292  291.83 0854.45
2009/04/23 17:02:07.8     152      2     91    153    178  89.2  33.7  34298  291.91 0854.45
2009/04/23 17:02:07.9     127     -7     70    128    145  93.5  31.4  34282  291.64 0854.45
2009/04/23 17:02:08.0     164    -19    100    166    193  96.6  34.4  34290  291.77 0854.45
2009/04/23 17:02:08.1     186    -42    103    191    217 103.0  31.0  34320  292.29 0854.45
2009/04/23 17:02:08.2     165    -51    147    173    227 107.3  44.5  34318  292.27 0854.45
2009/04/23 17:02:08.3     169    -55     97    178    202 108.2  31.3  34296  291.88 0854.45
2009/04/23 17:02:08.4      86    -18    156     88    179 101.9  68.3  34328  292.44 0854.45
2009/04/23 17:02:08.5      66      0    126     67    142  90.0  69.8  34332  292.51 0854.45
2009/04/23 17:02:08.6      -1     26    121     27    123 357.3  88.0  34334  292.54 0854.45
2009/04/23 17:02:08.7       9     29    133     31    136  18.5  87.0  34332  292.49 0854.45
2009/04/23 17:02:08.8     -32    -20     99     39    106 237.6  77.6  34332  292.51 0854.45
2009/04/23 17:02:08.9     -25     -2     57     26     62 263.9  74.0  34324  292.35 0854.45
2009/04/23 17:02:09.0     -25     30     67     40     78 320.4  65.7  34312  292.17 0854.45
2009/04/23 17:02:09.1     -57    -55     87     80    118 226.0  52.2  34304  292.03 0854.46
2009/04/23 17:02:09.2     -45    -45     63     64     89 225.1  50.5  34312  292.15 0854.46
2009/04/23 17:02:09.3     -32    -10     60     34     68 251.6  67.7  34310  292.13 0854.46
2009/04/23 17:02:09.4     -96    -20     -3     99    100 258.1  -1.8  34294  291.86 0854.46
2009/04/23 17:02:09.5     -67    -42     30     80     85 237.5  21.5  34294  291.86 0854.46
2009/04/23 17:02:09.6     -50    -53      9     74     75 223.2   7.1  34298  291.91 0854.46
2009/04/23 17:02:09.7       7   -100     50    101    112 175.5  27.3  34294  291.86 0854.46
2009/04/23 17:02:09.8      68   -143     94    159    184 154.6  33.5  34292  291.83 0854.46
2009/04/23 17:02:09.9     -38   -218     93    222    240 190.0  24.1  34300  291.94 0854.46
2009/04/23 17:02:10.0    -147   -231      3    274    275 212.5   0.8  34302  291.97 0854.46
2009/04/23 17:02:10.1    -176   -176     24    250    252 225.0   5.7  34286  291.70 0854.46
2009/04/23 17:02:10.2    -114   -125     45    170    177 222.3  15.0  34294  291.84 0854.46
2009/04/23 17:02:10.3    -143   -132     27    195    197 227.3   8.0  34276  291.55 0854.46
2009/04/23 17:02:10.4    -104   -132     44    169    175 218.3  14.7  34290  291.79 0854.46
2009/04/23 17:02:10.5     -68   -150     32    165    169 204.5  11.0  34294  291.86 0854.46
2009/04/23 17:02:10.6     -56   -196     75    204    217 196.0  21.0  34266  291.37 0854.46
2009/04/23 17:02:10.7    -114   -175     41    210    215 213.2  11.1  34260  291.26 0854.46
2009/04/23 17:02:10.8    -164   -213     41    269    273 217.6   8.8  34248  291.07 0854.46
2009/04/23 17:02:10.9    -167   -246     42    298    302 214.2   8.0  34256  291.19 0854.46
2009/04/23 17:02:11.0    -133   -232     32    268    270 209.9   6.9  34246  291.04 0854.46
2009/04/23 17:02:11.1    -128   -240     18    273    274 208.1   3.8  34234  290.83 0854.47
2009/04/23 17:02:11.2    -157   -260     15    305    306 211.2   2.9  34204  290.31 0854.47
2009/04/23 17:02:11.3     -82   -282     75    294    304 196.3  14.3  34220  290.59 0854.47
2009/04/23 17:02:11.4     -84   -211     11    228    229 201.8   2.9  34182  289.96 0854.47
2009/04/23 17:02:11.5     -90   -270    120    285    309 198.5  24.2  34214  290.48 0854.47
2009/04/23 17:02:11.6    -140   -293     22    325    326 205.6   4.0  34154  289.46 0854.47
2009/04/23 17:02:11.7    -148   -277     19    315    316 208.1   3.5  34136  289.17 0854.47
2009/04/23 17:02:11.8     -61   -227     64    236    245 195.1  15.3  34180  289.90 0854.47
2009/04/23 17:02:11.9     -37   -239     77    242    254 188.9  17.7  34196  290.17 0854.47
2009/04/23 17:02:12.0     -41   -184    140    189    235 192.7  40.4  34212  290.45 0854.47
2009/04/23 17:02:12.1     -49   -176    136    183    228 195.8  40.1  34214  290.48 0854.47
2009/04/23 17:02:12.2     -35    -34    176     50    182 225.9  83.9  34238  290.89 0854.47
2009/04/23 17:02:12.3     -10    -65    163     66    175 188.9  77.1  34218  290.55 0854.47
2009/04/23 17:02:12.4     -16   -164    106    165    196 185.8  35.6  34216  290.52 0854.47
2009/04/23 17:02:12.5     -76   -170     39    187    192 204.1  12.0  34170  289.74 0854.47
2009/04/23 17:02:12.6     -70   -212     61    224    233 198.3  15.3  34216  290.53 0854.47
2009/04/23 17:02:12.7     -92    -95    112    133    173 224.1  44.3  34214  290.48 0854.47
2009/04/23 17:02:12.8    -108   -124    130    165    210 221.2  42.2  34196  290.18 0854.47
2009/04/23 17:02:12.9     -74    -22    105     78    130 253.2  60.0  34198  290.21 0854.47
2009/04/23 17:02:13.0     -25     30     39     40     55 320.4  51.1  34208  290.38 0854.47
2009/04/23 17:02:13.1      61    -73     56     96    111 140.3  32.9  34202  290.30 0854.46
2009/04/23 17:02:13.2      16   -155     -3    156    157 173.8  -1.3  34184  289.97 0854.46
2009/04/23 17:02:13.3      71    -89    -15    115    117 141.3  -7.7  34184  289.97 0854.46
2009/04/23 17:02:13.4      61    -73    -25     96    100 140.3 -15.0  34182  289.96 0854.46
2009/04/23 17:02:13.5      33    -54    -23     64     68 148.4 -23.3  34192  290.11 0854.46
2009/04/23 17:02:13.6      27    -86    -18     91     93 162.6 -11.3  34206  290.35 0854.46
2009/04/23 17:02:13.7      61   -153     55    165    175 158.1  18.6  34196  290.18 0854.46
2009/04/23 17:02:13.8      32   -158     49    162    170 168.4  16.8  34180  289.92 0854.46
2009/04/23 17:02:13.9      -5   -142    109    143    179 182.2  41.2  34184  289.97 0854.46
2009/04/23 17:02:14.0     -59   -107    114    123    167 209.0  47.7  34196  290.19 0854.46
2009/04/23 17:02:14.1     -84    -85     10    120    121 224.5   4.9  34188  290.04 0854.46
2009/04/23 17:02:14.2    -107    -85     79    137    158 231.4  32.7  34164  289.65 0854.46
2009/04/23 17:02:14.3    -140   -125     56    189    198 228.2  16.6  34180  289.91 0854.46
2009/04/23 17:02:14.4    -156    -93    -10    182    183 239.1  -3.3  34202  290.30 0854.46
2009/04/23 17:02:14.5    -190   -108     57    219    227 240.2  14.7  34148  289.38 0854.46
2009/04/23 17:02:14.6     -95    -95    126    135    184 225.0  48.0  34160  289.57 0854.46
2009/04/23 17:02:14.7    -114    -56    155    128    201 243.8  56.4  34174  289.80 0854.46
2009/04/23 17:02:14.8    -156     36    136    161    210 283.2  44.3  34172  289.79 0854.46
2009/04/23 17:02:14.9     -21      3    163     22    164 279.7  90.0  34174  289.80 0854.46
2009/04/23 17:02:15.0       8    -91    194     92    214 174.7  72.9  34188  290.06 0854.46
2009/04/23 17:02:15.1     -85   -246    173    261    313 199.2  36.7  34174  289.81 0854.46
2009/04/23 17:02:15.2     -55   -222    144    229    270 194.0  35.5  34186  290.00 0854.46
2009/04/23 17:02:15.3     -40   -206    117    210    240 191.1  31.4  34186  290.01 0854.46
2009/04/23 17:02:15.4     -59   -224    144    232    273 194.9  34.8  34178  289.88 0854.46
2009/04/23 17:02:15.5     -69   -258    268    268    379 195.1  50.1  34158  289.55 0854.46
2009/04/23 17:02:15.6     -64   -272    255    280    378 193.4  47.3  34166  289.67 0854.46
2009/04/23 17:02:15.7     -87   -288    167    302    345 196.9  31.4  34168  289.71 0854.46
2009/04/23 17:02:15.8     -79   -256    134    268    299 197.2  28.5  34172  289.78 0854.46
2009/04/23 17:02:15.9    -114   -256    152    281    319 204.1  30.7  34160  289.56 0854.46
2009/04/23 17:02:16.0    -171   -179     74    248    259 223.7  16.6  34170  289.73 0854.46
2009/04/23 17:02:16.1    -113   -187    163    219    273 211.2  40.4  34144  289.31 0854.46
2009/04/23 17:02:16.2    -123   -179    156    218    268 214.5  39.3  34138  289.19 0854.46
2009/04/23 17:02:16.3    -105   -220     88    244    259 205.6  20.7  34150  289.41 0854.46
2009/04/23 17:02:16.4    -126   -139    164    188    249 222.3  45.6  34142  289.28 0854.46
2009/04/23 17:02:16.5     -79   -134    184    156    241 210.7  55.4  34164  289.65 0854.46
2009/04/23 17:02:16.6    -110   -135    164    175    239 219.2  48.0  34158  289.53 0854.46
2009/04/23 17:02:16.7    -155   -128    144    202    248 230.5  39.1  34154  289.47 0854.46
2009/04/23 17:02:16.8    -255    -65    150    264    303 255.6  32.1  34156  289.51 0854.46
2009/04/23 17:02:16.9    -223   -124    166    256    305 240.9  35.7  34150  289.41 0854.46
2009/04/23 17:02:17.0     -69   -201    151    213    261 198.9  38.8  34160  289.56 0854.46
2009/04/23 17:02:17.1     -79   -226    119    240    267 199.4  28.2  34156  289.49 0854.45
2009/04/23 17:02:17.2     -64   -179    168    191    254 199.8  45.8  34156  289.49 0854.45
2009/04/23 17:02:17.3     -90   -143    160    170    233 212.3  48.2  34148  289.38 0854.45
2009/04/23 17:02:17.4    -145   -164    207    220    302 221.4  48.0  34166  289.66 0854.45
2009/04/23 17:02:17.5    -307    -14      3    308    309 267.2   0.7  34178  289.86 0854.45
2009/04/23 17:02:17.6    -113   -117     -6    163    164 223.9  -2.2  34176  289.85 0854.45
2009/04/23 17:02:17.7     -89   -177     84    199    216 206.7  24.1  34174  289.82 0854.45
2009/04/23 17:02:17.8    -162   -174     86    238    253 223.0  20.4  34186  290.02 0854.45
2009/04/23 17:02:17.9    -249    -17    -59    250    258 266.1 -13.4  34182  289.95 0854.45
2009/04/23 17:02:18.0    -254    -24    -63    256    264 264.5 -13.9  34182  289.93 0854.45
2009/04/23 17:02:18.1    -177    -48    -44    184    190 254.7 -13.7  34190  290.09 0854.45
2009/04/23 17:02:18.2    -169   -212    -36    272    275 218.5  -7.7  34160  289.56 0854.45
2009/04/23 17:02:18.3    -260   -242    -69    356    363 227.1 -11.1  34142  289.25 0854.45
2009/04/23 17:02:18.4    -178   -192      8    263    264 222.8   1.8  34178  289.86 0854.45
2009/04/23 17:02:18.5    -180   -145     11    232    233 231.1   2.9  34196  290.19 0854.45
2009/04/23 17:02:18.6    -208    -93     95    228    247 245.8  24.1  34194  290.15 0854.45
2009/04/23 17:02:18.7    -252   -161     70    300    309 237.5  13.2  34176  289.85 0854.45
2009/04/23 17:02:18.8    -269   -122     52    296    301 245.6  10.1  34152  289.44 0854.45
2009/04/23 17:02:18.9    -282   -140     52    315    320 243.6   9.5  34162  289.59 0854.45
2009/04/23 17:02:19.0    -245   -120     53    274    280 243.8  11.1  34176  289.85 0854.45
2009/04/23 17:02:19.1    -253    -76    107    265    285 253.2  23.1  34192  290.10 0854.45
2009/04/23 17:02:19.2     -59     22    122     64    137 290.8  70.4  34206  290.36 0854.45
2009/04/23 17:02:19.3    -125     68     88    143    167 298.8  34.8  34190  290.09 0854.45
2009/04/23 17:02:19.4    -126     31     75    130    150 284.2  32.4  34212  290.47 0854.45
2009/04/23 17:02:19.5    -125      9     71    126    144 274.3  31.4  34216  290.53 0854.45
2009/04/23 17:02:19.6    -110     68     47    130    138 302.0  20.9  34216  290.53 0854.45
2009/04/23 17:02:19.7    -111     92     61    145    157 309.5  24.1  34242  290.98 0854.45
2009/04/23 17:02:19.8    -162     87    107    184    212 298.2  33.1  34244  291.01 0854.45
2009/04/23 17:02:19.9    -222    -15     17    223    224 266.1   4.6  34190  290.08 0854.45
2009/04/23 17:02:20.0    -175     71     21    190    192 292.2   6.5  34236  290.87 0854.45
2009/04/23 17:02:20.1    -162    155    138    225    263 313.6  34.5  34298  291.90 0854.45
2009/04/23 17:02:20.2    -142    173    130    224    258 320.6  32.7  34306  292.06 0854.45
2009/04/23 17:02:20.3     -87    157    121    180    216 330.8  37.3  34292  291.81 0854.45
2009/04/23 17:02:20.4    -145     90    119    171    208 302.0  38.0  34318  292.27 0854.45
2009/04/23 17:02:20.5    -119    182    110    218    244 326.6  28.7  34294  291.85 0854.45
2009/04/23 17:02:20.6    -160    150    108    220    245 313.1  28.0  34292  291.80 0854.45
2009/04/23 17:02:20.7    -135    116    107    179    208 310.7  33.7  34274  291.50 0854.45
2009/04/23 17:02:20.8     -87    149    114    173    207 329.5  36.3  34296  291.89 0854.45
2009/04/23 17:02:20.9    -195     85     76    213    227 293.6  19.6  34218  290.57 0854.45
2009/04/23 17:02:21.0    -166     80     73    185    198 295.8  22.8  34216  290.52 0854.45
2009/04/23 17:02:21.1    -134     64     18    149    151 295.8   7.1  34194  290.14 0854.43
2009/04/23 17:02:21.2    -162     36     32    167    171 282.6  11.1  34218  290.55 0854.43
2009/04/23 17:02:21.3     -95     95     29    135    139 314.8  12.2  34240  290.94 0854.43
2009/04/23 17:02:21.4    -170     11     77    171    187 273.9  26.2  34282  291.66 0854.43
2009/04/23 17:02:21.5    -183     83     18    201    202 294.4   5.2  34296  291.89 0854.43
2009/04/23 17:02:21.6    -202     60     10    211    212 286.6   2.9  34282  291.64 0854.43
2009/04/23 17:02:21.7    -155     14    -47    156    164 275.2 -17.0  34244  290.99 0854.43
2009/04/23 17:02:21.8    -113     49     66    124    140 293.5  30.8  34286  291.72 0854.43
2009/04/23 17:02:21.9    -202     53     18    209    210 284.8   5.2  34236  290.87 0854.43
2009/04/23 17:02:22.0    -228     47     32    233    236 281.7   7.8  34220  290.58 0854.43
2009/04/23 17:02:22.1    -235     -8      7    236    237 267.9   1.8  34234  290.83 0854.43
2009/04/23 17:02:22.2    -338    -44    -22    341    342 262.6  -3.7  34254  291.18 0854.43
2009/04/23 17:02:22.3    -338    -61    -87    344    356 259.6 -14.3  34228  290.74 0854.43
2009/04/23 17:02:22.4    -245    -26     49    247    252 263.8  11.4  34280  291.61 0854.43
2009/04/23 17:02:22.5    -199    126    108    236    259 302.5  26.2  34304  292.01 0854.43
2009/04/23 17:02:22.6     -62    132    179    147    231 334.7  56.4  34256  291.21 0854.43
2009/04/23 17:02:22.7    -137     94     93    167    191 304.4  31.4  34302  291.98 0854.43
2009/04/23 17:02:22.8     -91     96     94    133    162 316.3  38.6  34260  291.26 0854.43
2009/04/23 17:02:22.9     -17    -54     79     57     97 198.3  60.5  34234  290.84 0854.43
2009/04/23 17:02:23.0      37    -12    102     40    109 108.6  77.6  34214  290.50 0854.43
2009/04/23 17:02:23.1      49     46     63     68     92  46.9  47.9  34232  290.79 0854.44
2009/04/23 17:02:23.2     -90    -54     74    106    129 238.9  38.0  34230  290.75 0854.44
2009/04/23 17:02:23.3    -135     46     22    143    145 289.1   8.9  34256  291.21 0854.44
2009/04/23 17:02:23.4    -178    187     13    259    260 316.3   2.9  34296  291.87 0854.44
2009/04/23 17:02:23.5    -220     55     -2    227    228 284.2  -0.7  34242  290.96 0854.44
2009/04/23 17:02:23.6    -184     36     -9    188    189 281.2  -2.8  34236  290.86 0854.44
2009/04/23 17:02:23.7    -168    -23    -13    170    171 261.9  -4.6  34188  290.06 0854.44
2009/04/23 17:02:23.8    -129     58     50    142    151 294.4  19.4  34244  290.99 0854.44
2009/04/23 17:02:23.9     -71     53     56     89    105 306.9  35.5  34260  291.28 0854.44
2009/04/23 17:02:24.0     -59     63     34     87     93 316.8  22.0  34288  291.76 0854.44
2009/04/23 17:02:24.1      10    140     88    141    166   4.4  35.2  34306  292.06 0854.44
2009/04/23 17:02:24.2     -46     70     83     84    118 326.6  50.0  34298  291.93 0854.44
2009/04/23 17:02:24.3     -21     85     94     88    128 345.7  52.1  34294  291.86 0854.44
2009/04/23 17:02:24.4     -99    144    107    175    205 325.5  34.4  34282  291.64 0854.44
2009/04/23 17:02:24.5    -122    118     91    170    192 314.0  30.6  34248  291.06 0854.44
2009/04/23 17:02:24.6    -107     88     58    139    150 309.5  23.6  34216  290.53 0854.44
2009/04/23 17:02:24.7     -87     72     44    114    122 309.6  22.0  34210  290.43 0854.44
2009/04/23 17:02:24.8     -58     27     51     65     82 295.4  42.7  34224  290.65 0854.44
2009/04/23 17:02:24.9     -23     11     57     26     62 297.1  74.0  34244  290.99 0854.44
2009/04/23 17:02:25.0       7     32     42     33     53  13.4  56.4  34246  291.04 0854.44
2009/04/23 17:02:25.1     -13     22     21     26     33 329.3  43.7  34252  291.15 0854.42
2009/04/23 17:02:25.2     -26     21     -1     34     35 309.6  -2.2  34248  291.08 0854.42
2009/04/23 17:02:25.3    -117     32    -35    122    126 285.5 -21.2  34270  291.45 0854.42
2009/04/23 17:02:25.4     -99      7    -28    100    103 274.4 -20.7  34280  291.62 0854.42
2009/04/23 17:02:25.5     -58    -11     39     60     71 258.5  35.6  34270  291.43 0854.42
2009/04/23 17:02:25.6     -45    -42     47     62     77 226.8  40.7  34272  291.49 0854.42
2009/04/23 17:02:25.7     -67    -96    104    118    157 214.7  46.2  34282  291.66 0854.42
2009/04/23 17:02:25.8     -71   -129     92    148    174 208.9  35.2  34278  291.57 0854.42
2009/04/23 17:02:25.9     -78    -27     88     83    120 250.5  52.1  34282  291.66 0854.42
2009/04/23 17:02:26.0     -34   -104     85    110    139 198.5  41.7  34278  291.57 0854.42
2009/04/23 17:02:26.1     -17   -127     90    129    157 188.0  38.6  34260  291.28 0854.44
2009/04/23 17:02:26.3      -8   -104     89    105    137 184.5  44.8  34270  291.45 0854.44
2009/04/23 17:02:26.3      41    -83     86     93    126 153.3  47.9  34298  291.93 0854.44
2009/04/23 17:02:26.4     -25   -124    102    127    162 191.6  43.0  34264  291.35 0854.44
2009/04/23 17:02:26.5     -25   -124    134    127    184 191.6  51.6  34240  290.94 0854.44
2009/04/23 17:02:26.6     -25   -124    110    127    168 191.6  45.4  34230  290.77 0854.44
2009/04/23 17:02:26.7     -15   -112     82    114    140 188.0  39.5  34228  290.74 0854.44
2009/04/23 17:02:26.8      -1   -107     87    108    138 180.9  43.3  34224  290.67 0854.44
2009/04/23 17:02:26.9      -9   -117    100    118    154 184.5  44.3  34216  290.52 0854.44
2009/04/23 17:02:27.0       2    -87    106     88    137 178.6  56.3  34234  290.82 0854.44
2009/04/23 17:02:27.2     -24    -62     98     67    118 201.8  62.6  34234  290.82 0854.44
2009/04/23 17:02:27.3     -43    -43    123     62    137 225.1  71.4  34220  290.60 0854.44
2009/04/23 17:02:27.4      -8   -112    153    113    190 184.5  60.0  34250  291.11 0854.44
2009/04/23 17:02:27.5      32    -78    131     85    156 157.3  64.6  34270  291.43 0854.44
2009/04/23 17:02:27.6     -35   -108    100    114    151 198.3  45.8  34268  291.40 0854.44
2009/04/23 17:02:27.7     -53   -107    112    120    164 206.3  48.2  34246  291.03 0854.44
2009/04/23 17:02:27.8     -42    -55     68     70     97 217.0  50.5  34278  291.57 0854.44
2009/04/23 17:02:27.9     -70    -28     42     76     86 248.2  31.9  34288  291.74 0854.44
2009/04/23 17:02:28.0    -124     59    114    138    178 295.4  43.7  34286  291.71 0854.44
2009/04/23 17:02:28.1     -63    -59    100     87    132 226.9  54.3  34258  291.23 0854.44
2009/04/23 17:02:28.2    -134   -155    128    206    242 220.8  35.0  34232  290.81 0854.44
2009/04/23 17:02:28.3    -264     32     -5    266    267 277.0  -1.3  34282  291.65 0854.44
2009/04/23 17:02:28.4    -270     68     -1    279    280 284.2  -0.3  34282  291.65 0854.44
2009/04/23 17:02:28.5    -229     78    -31    243    245 288.8  -7.3  34272  291.48 0854.44
2009/04/23 17:02:28.6    -193     99     30    218    221 297.3   8.0  34284  291.67 0854.44
2009/04/23 17:02:28.7    -194     71     76    207    220 290.2  20.9  34288  291.74 0854.44
2009/04/23 17:02:28.8    -159     46     57    166    176 286.4  18.9  34282  291.66 0854.44
2009/04/23 17:02:28.9    -149     45     28    156    159 286.8  10.3  34268  291.42 0854.44
2009/04/23 17:02:29.0    -140     23    -55    142    152 279.6 -26.4  34228  290.74 0854.44
2009/04/23 17:02:29.1    -132     78    -44    154    160 300.7 -21.0  34264  291.35 0854.44
2009/04/23 17:02:29.2    -110    -17    -13    112    113 260.8  -6.7  34258  291.23 0854.44
2009/04/23 17:02:29.3     -91    -79     56    121    133 229.1  26.6  34270  291.45 0854.44
2009/04/23 17:02:29.4    -100    -79      1    128    129 231.4   0.7  34266  291.38 0854.44
2009/04/23 17:02:29.5     -66    -66     -8     94     95 225.0  -5.2  34268  291.40 0854.44
2009/04/23 17:02:29.6     -73    -76     -4    106    107 224.1  -2.2  34266  291.37 0854.44
2009/04/23 17:02:29.7    -101   -114     17    153    154 221.5   6.5  34254  291.16 0854.44
2009/04/23 17:02:29.8     -95    -83     52    127    137 228.7  23.1  34258  291.25 0854.44
2009/04/23 17:02:29.9     -95    -83     44    127    135 229.1  19.2  34258  291.23 0854.44
2009/04/23 17:02:30.0    -107    -95     50    144    153 228.6  19.4  34250  291.11 0854.44
2009/04/23 17:02:30.1     -66   -211    124    222    254 197.4  31.6  34242  290.97 0854.44
2009/04/23 17:02:30.2     -81   -195    152    212    260 202.5  39.3  34250  291.09 0854.45
2009/04/23 17:02:30.3    -159   -169    187    233    298 223.3  43.0  34240  290.93 0854.45
2009/04/23 17:02:30.4    -118   -132    152    178    234 221.9  44.8  34242  290.96 0854.45
2009/04/23 17:02:30.5    -181   -206    111    275    296 221.4  23.1  34232  290.80 0854.45
2009/04/23 17:02:30.6    -241   -199     73    313    322 230.4  13.3  34234  290.82 0854.45
2009/04/23 17:02:30.7    -310   -201     56    370    375 237.0   8.7  34214  290.49 0854.45
2009/04/23 17:02:30.8    -299   -118     16    322    323 248.5   2.9  34264  291.34 0854.45
2009/04/23 17:02:30.9    -258   -103      3    278    279 248.2   0.8  34268  291.39 0854.45
2009/04/23 17:02:31.0    -221   -138     41    261    265 238.0   9.0  34226  290.70 0854.45
2009/04/23 17:02:31.1    -203    -95     83    225    239 244.8  21.0  34250  291.10 0854.45
2009/04/23 17:02:31.2    -168   -119     77    207    220 234.7  21.3  34286  291.71 0854.45
2009/04/23 17:02:31.3    -226   -125    105    259    279 241.1  23.1  34272  291.46 0854.45
2009/04/23 17:02:31.4    -226   -128     36    260    263 240.5   8.0  34204  290.31 0854.45
2009/04/23 17:02:31.5    -292   -198     32    353    355 235.8   5.3  34198  290.21 0854.45
2009/04/23 17:02:31.6    -304   -132    -31    332    334 246.5  -5.4  34192  290.10 0854.45
2009/04/23 17:02:31.7    -317   -122     11    340    341 248.9   1.9  34238  290.91 0854.45
2009/04/23 17:02:31.8    -336   -133    -42    362    365 248.3  -6.7  34230  290.77 0854.45
2009/04/23 17:02:31.9    -347   -146    -83    377    387 247.2 -12.5  34218  290.55 0854.45
2009/04/23 17:02:32.0    -292   -211     14    361    362 234.1   2.2  34162  289.59 0854.45
2009/04/23 17:02:32.1    -242   -207    -41    319    322 229.5  -7.3  34180  289.90 0854.45
2009/04/23 17:02:32.2    -207   -131     14    246    247 237.6   3.3  34192  290.12 0854.43
2009/04/23 17:02:32.3    -191    -86     48    210    216 245.8  12.9  34240  290.92 0854.43
2009/04/23 17:02:32.4    -207    -91     53    227    234 246.3  13.1  34254  291.16 0854.43
2009/04/23 17:02:32.5    -164   -154     79    226    240 226.9  19.4  34234  290.83 0854.43
2009/04/23 17:02:32.6    -131   -154      9    203    204 220.3   2.8  34212  290.47 0854.43
2009/04/23 17:02:32.7    -226    -61     11    235    236 254.9   2.8  34260  291.26 0854.43
2009/04/23 17:02:32.8    -213    -55    -61    221    230 255.4 -15.5  34286  291.71 0854.43
2009/04/23 17:02:32.9    -221   -137     64    261    269 238.2  13.9  34280  291.60 0854.43
2009/04/23 17:02:33.0    -310   -135     32    339    341 246.4   5.5  34218  290.54 0854.43
2009/04/23 17:02:33.1    -256    -96     64    274    282 249.4  13.2  34214  290.48 0854.43
2009/04/23 17:02:33.2    -220    -86    107    237    260 248.5  26.2  34240  290.93 0854.43
2009/04/23 17:02:33.3    -266    -49     13    271    272 259.4   2.9  34254  291.16 0854.43
2009/04/23 17:02:33.4    -300    -18      8    301    302 266.5   1.7  34272  291.48 0854.43
2009/04/23 17:02:33.5    -253    -26     54    255    261 264.1  12.0  34238  290.90 0854.43
2009/04/23 17:02:33.6    -245    -41     58    249    256 260.3  13.2  34238  290.88 0854.43
2009/04/23 17:02:33.7    -169    -82      1    189    190 244.0   0.5  34250  291.09 0854.43
2009/04/23 17:02:33.8    -134   -128    123    186    222 226.2  36.3  34212  290.47 0854.43
2009/04/23 17:02:33.9    -172    -91    120    195    228 242.0  34.8  34226  290.70 0854.43
2009/04/23 17:02:34.0    -135    -74     79    155    173 241.2  29.1  34204  290.33 0854.43
2009/04/23 17:02:34.1     -76    -61    115     98    151 231.4  55.8  34182  289.96 0854.43
2009/04/23 17:02:34.2     -44    -29     82     53     97 236.7  64.6  34182  289.94 0854.40
2009/04/23 17:02:34.3     -57     18     82     60    101 288.2  60.5  34192  290.13 0854.40
2009/04/23 17:02:34.4     -81     47    100     94    137 300.2  52.1  34196  290.18 0854.40
2009/04/23 17:02:34.5    -100    100     87    142    166 315.0  34.4  34198  290.21 0854.40
2009/04/23 17:02:34.6     -51     73    157     90    180 324.8  68.1  34202  290.30 0854.40
2009/04/23 17:02:34.7      10     72     88     73    114   8.0  56.4  34200  290.26 0854.40
2009/04/23 17:02:34.8      15     12     77     20     79  52.2  85.4  34224  290.67 0854.40
2009/04/23 17:02:34.9     -14     -6     74     16     75 244.7  89.0  34208  290.38 0854.40
2009/04/23 17:02:35.0       6     -5     67      8     67 129.5  90.0  34210  290.43 0854.40
2009/04/23 17:02:35.1      59     26     68     65     94  65.6  50.7  34190  290.08 0854.40
2009/04/23 17:02:35.2      90    -17    105     92    139 101.0  54.3  34166  289.69 0854.40
2009/04/23 17:02:35.3     134    -15    106    135    171  96.6  42.4  34158  289.53 0854.40
2009/04/23 17:02:35.4     111     -8    104    112    152  94.3  47.9  34160  289.57 0854.40
2009/04/23 17:02:35.5      88     -8     59     89    106  95.2  36.5  34164  289.63 0854.40
2009/04/23 17:02:35.6      84     -6     15     85     87  94.4  10.6  34160  289.57 0854.40
2009/04/23 17:02:35.7      91     -6      6     92     93  93.9   3.8  34156  289.52 0854.40
2009/04/23 17:02:35.8      93    -42     -2    103    104 114.4  -1.2  34162  289.60 0854.40
2009/04/23 17:02:35.9      76    -24     -3     80     81 108.2  -2.2  34162  289.60 0854.40
2009/04/23 17:02:36.0     101    -65    -47    121    129 122.9 -26.4  34168  289.70 0854.40
2009/04/23 17:02:36.1      48   -120     51    130    139 158.1  22.5  34180  289.92 0854.40
2009/04/23 17:02:36.2      82    -87     19    120    122 136.7   9.0  34174  289.82 0854.34
2009/04/23 17:02:36.3      37    -72     19     82     85 152.8  13.2  34180  289.91 0854.34
2009/04/23 17:02:36.4      51      2     91     52    104  87.4  67.7  34180  289.92 0854.34
2009/04/23 17:02:36.5      21     21     69     31     75  45.0  73.1  34192  290.11 0854.34
2009/04/23 17:02:36.6     134     31    136    138    193  76.7  50.2  34180  289.91 0854.34
2009/04/23 17:02:36.7      91     55    153    107    186  58.5  61.5  34188  290.06 0854.34
2009/04/23 17:02:36.8     109      3    119    110    162  88.3  52.5  34178  289.87 0854.34
2009/04/23 17:02:36.9     140     27     91    143    169  79.0  35.5  34268  291.42 0854.34
2009/04/23 17:02:37.0     110     36     98    116    151  71.6  44.3  34356  292.92 0854.34
2009/04/23 17:02:37.1     185     56     37    194    198  72.9  11.0  34396  293.60 0854.34
2009/04/23 17:02:37.2     119     86     94    148    175  54.0  35.5  34350  292.81 0854.34
2009/04/23 17:02:37.3     130    158    100    205    228  39.4  27.4  34342  292.68 0854.34
2009/04/23 17:02:37.4     168     86    140    189    235  62.9  40.4  34400  293.67 0854.34
2009/04/23 17:02:37.5     212     75    164    225    278  70.5  39.7  34344  292.69 0854.34
2009/04/23 17:02:37.6     141     58    103    153    184  67.4  37.0  34316  292.23 0854.34
2009/04/23 17:02:37.7     186     40     90    191    211  77.6  27.1  34290  291.77 0854.34
2009/04/23 17:02:37.8     184     62    171    195    259  71.2  45.8  34332  292.50 0854.34
2009/04/23 17:02:37.9     143      8    162    144    216  86.5  53.7  34310  292.13 0854.34
2009/04/23 17:02:38.0      73     60    186     95    208  50.5  71.0  34332  292.51 0854.34
2009/04/23 17:02:38.1     167     53    225    176    285  72.3  58.2  34288  291.73 0854.34
2009/04/23 17:02:38.2     237     48    173    242    297  78.5  39.3  34274  291.50 0854.34
2009/04/23 17:02:38.3     153     91    184    179    256  59.1  51.2  34256  291.21 0854.34
2009/04/23 17:02:38.4     161     46    200    168    261  74.1  55.8  34264  291.33 0854.34
2009/04/23 17:02:38.5     152    106    229    186    295  54.9  56.6  34270  291.44 0854.34
2009/04/23 17:02:38.6      43    -47    197     64    207 137.7  81.2  34272  291.47 0854.34
2009/04/23 17:02:38.7      25    -36     92     45    102 144.8  72.8  34260  291.28 0854.34
2009/04/23 17:02:38.8      73    -14    139     75    157 101.4  69.3  34196  290.19 0854.34
2009/04/23 17:02:38.9      84    -84    146    120    188 134.9  56.4  34192  290.13 0854.34
2009/04/23 17:02:39.0      18     17    135     26    137  46.9  89.6  34204  290.31 0854.34
2009/04/23 17:02:39.1      26    -66     96     72    120 158.2  59.4  34196  290.18 0854.34
2009/04/23 17:02:39.2      60    -73    177     95    200 140.4  69.6  34164  289.63 0854.34
2009/04/23 17:02:39.3      -2    -25    124     26    126 184.5  89.0  34182  289.94 0854.34
2009/04/23 17:02:39.4      27   -144     94    147    174 169.3  35.6  34162  289.62 0854.34
2009/04/23 17:02:39.5      68   -132     90    149    174 152.8  34.2  34164  289.65 0854.34
2009/04/23 17:02:39.6       2    -54    106     55    119 177.3  70.8  34174  289.80 0854.34
2009/04/23 17:02:39.7      -5    -99    127    100    161 183.1  57.9  34172  289.79 0854.34
2009/04/23 17:02:39.8     -36   -110    134    116    177 198.3  54.6  34174  289.80 0854.34
2009/04/23 17:02:39.9       8   -127    133    128    184 176.0  50.9  34190  290.09 0854.34
2009/04/23 17:02:40.0     -11   -163    123    164    205 184.0  40.7  34174  289.80 0854.34
2009/04/23 17:02:40.1      -4   -128    111    129    170 181.8  45.1  34186  290.01 0854.34
2009/04/23 17:02:40.2      -1    -78    104     79    130 180.9  58.5  34188  290.04 0854.34
2009/04/23 17:02:40.3      16    -42     90     45    100 159.1  71.9  34208  290.38 0854.34
2009/04/23 17:02:40.4      -7    -97     56     98    112 184.5  32.4  34204  290.31 0854.34
2009/04/23 17:02:40.5      -6    -87     55     88    103 184.4  35.5  34204  290.33 0854.34
2009/04/23 17:02:40.6      57   -106     19    121    123 151.5   8.9  34230  290.77 0854.34
2009/04/23 17:02:40.7      18    -89     79     91    120 168.4  45.8  34228  290.72 0854.34
2009/04/23 17:02:40.8      33    -90    146     97    175 159.5  63.6  34218  290.55 0854.34
2009/04/23 17:02:40.9     -15   -185    119    186    220 184.7  35.6  34174  289.80 0854.34
2009/04/23 17:02:41.0     -17   -233    107    234    257 184.2  26.2  34180  289.92 0854.34
2009/04/23 17:02:41.1      39   -281    208    284    352 172.0  39.9  34202  290.28 0854.34
2009/04/23 17:02:41.2     -56   -336    177    341    384 189.6  29.4  34178  289.86 0854.34
2009/04/23 17:02:41.3     -15   -347    244    348    425 182.5  38.5  34184  289.99 0854.34
2009/04/23 17:02:41.4     -81   -334    259    344    430 193.7  40.7  34220  290.58 0854.34
2009/04/23 17:02:41.5    -214   -336    152    399    426 212.6  22.0  34278  291.57 0854.34
2009/04/23 17:02:41.6    -186   -332    124    381    401 209.3  18.0  34228  290.71 0854.34
2009/04/23 17:02:41.7    -170   -279     20    328    329 211.4   3.6  34274  291.50 0854.34
2009/04/23 17:02:41.8    -169   -312     65    356    362 208.5  10.4  34268  291.42 0854.34
2009/04/23 17:02:41.9    -144   -307     61    340    346 205.2  10.2  34230  290.76 0854.34
2009/04/23 17:02:42.0    -124   -301     80    326    336 202.5  13.9  34182  289.93 0854.34
2009/04/23 17:02:42.1    -114   -339     43    358    361 198.7   6.9  34180  289.91 0854.34
2009/04/23 17:02:42.2     -85   -279     57    292    298 196.9  11.1  34196  290.19 0854.32
2009/04/23 17:02:42.3     -80   -160    -24    180    182 206.7  -7.7  34212  290.45 0854.32
2009/04/23 17:02:42.4     -42   -299    114    303    323 188.1  21.6  34194  290.14 0854.32
2009/04/23 17:02:42.5     -23   -332     49    333    337 184.0   8.5  34174  289.82 0854.32
2009/04/23 17:02:42.6     -75   -335     66    344    351 192.7  11.0  34178  289.87 0854.32
2009/04/23 17:02:42.7     -37   -329     64    332    339 186.5  11.0  34192  290.13 0854.32
2009/04/23 17:02:42.8     -41   -311    104    314    331 187.6  18.4  34204  290.31 0854.32
2009/04/23 17:02:42.9    -101   -269    -11    288    289 200.7  -2.2  34178  289.88 0854.32
2009/04/23 17:02:43.0     -99   -249     -5    269    270 201.8  -1.3  34186  290.02 0854.32
2009/04/23 17:02:43.1     -91   -271     24    287    289 198.7   4.9  34180  289.92 0854.32
2009/04/23 17:02:43.2    -108   -259     23    281    283 202.7   4.9  34168  289.71 0854.32
2009/04/23 17:02:43.3    -104   -286     41    305    308 200.0   7.8  34172  289.78 0854.32
2009/04/23 17:02:43.4    -207   -349    -27    406    407 210.7  -3.9  34174  289.82 0854.32
2009/04/23 17:02:43.5    -179   -397    -55    436    440 204.3  -7.2  34164  289.63 0854.32
2009/04/23 17:02:43.6    -121   -373    -26    393    394 198.0  -3.8  34142  289.28 0854.32
2009/04/23 17:02:43.7    -146   -397      8    424    425 200.2   1.1  34162  289.60 0854.32
2009/04/23 17:02:43.8    -136   -411      6    433    434 198.3   0.8  34170  289.73 0854.32
2009/04/23 17:02:43.9    -158   -485    -11    511    512 198.1  -1.3  34180  289.91 0854.32
2009/04/23 17:02:44.0    -280   -480   -100    556    566 210.3 -10.2  34068  288.01 0854.32
2009/04/23 17:02:44.1    -299   -485      1    570    571 211.6   0.1  34124  288.95 0854.32
2009/04/23 17:02:44.2    -105   -605     29    615    616 189.9   2.8  34192  290.11 0854.32
2009/04/23 17:02:44.3     -82   -550    -11    557    558 188.5  -1.2  34180  289.90 0854.32
2009/04/23 17:02:44.4     -99   -470     31    481    483 191.9   3.8  34182  289.95 0854.32
2009/04/23 17:02:44.5    -104   -523     69    534    539 191.3   7.4  34178  289.87 0854.32
2009/04/23 17:02:44.6     -24   -502    108    503    515 182.8  12.2  34188  290.05 0854.32
2009/04/23 17:02:44.7    -134   -592    143    608    625 192.8  13.2  34208  290.38 0854.32
2009/04/23 17:02:44.8    -159   -608     44    629    631 194.7   4.0  34194  290.16 0854.32
2009/04/23 17:02:44.9     -99   -419   -123    431    448 193.4 -20.7  34130  289.05 0854.32
2009/04/23 17:02:45.0      50   -468    -46    471    474 173.8  -5.6  34148  289.37 0854.32
2009/04/23 17:02:45.1      77   -506    180    512    543 171.3  19.4  34136  289.18 0854.32
2009/04/23 17:02:45.2      71   -499    178    505    535 171.9  20.2  34140  289.23 0854.32
2009/04/23 17:02:45.3    -112   -592    190    603    633 190.7  17.5  34154  289.47 0854.32
2009/04/23 17:02:45.4    -100   -605    222    614    654 189.4  19.9  34164  289.64 0854.32
2009/04/23 17:02:45.5    -113   -631    238    642    684 190.2  21.4  34134  289.14 0854.32
2009/04/23 17:02:45.6      69   -519    230    524    572 172.4  25.2  34118  288.87 0854.32
2009/04/23 17:02:45.7      40   -430    257    433    503 174.7  33.5  34100  288.57 0854.32
2009/04/23 17:02:45.8     -40   -463    245    465    525 185.0  30.0  34120  288.88 0854.32
2009/04/23 17:02:45.9    -142   -450    -49    473    476 197.6  -6.0  34108  288.68 0854.32
2009/04/23 17:02:46.0    -176   -494     43    525    527 199.7   4.7  34100  288.57 0854.32
2009/04/23 17:02:46.1     -99   -488      1    498    499 191.5   0.2  34100  288.57 0854.32
2009/04/23 17:02:46.2    -111   -618      7    629    630 190.2   0.7  34136  289.18 0854.30
2009/04/23 17:02:46.3    -112   -625     42    636    638 190.2   3.8  34152  289.43 0854.30
2009/04/23 17:02:46.4    -154   -591     81    611    617 194.7   7.6  34162  289.62 0854.30
2009/04/23 17:02:46.5     -42   -544     71    546    551 184.5   7.5  34116  288.84 0854.30
2009/04/23 17:02:46.6    -115   -340    180    359    401 198.7  28.5  34112  288.76 0854.30
2009/04/23 17:02:46.7     -12   -287    158    288    328 182.5  31.3  34112  288.75 0854.30
2009/04/23 17:02:46.8      89   -409    178    419    455 167.6  24.3  34102  288.60 0854.30
2009/04/23 17:02:46.9     -27   -379    225    380    441 184.1  33.4  34110  288.72 0854.30
2009/04/23 17:02:47.0    -154   -404    301    433    527 200.9  38.1  34134  289.13 0854.30
2009/04/23 17:02:47.1     -64   -314    365    321    486 191.6  54.3  34160  289.58 0854.30
2009/04/23 17:02:47.2     -23   -301    338    302    453 184.5  53.7  34144  289.29 0854.33
2009/04/23 17:02:47.3     -13   -290    326    291    436 182.7  53.7  34148  289.37 0854.33
2009/04/23 17:02:47.4      75   -187    219    202    297 158.1  52.2  34134  289.12 0854.33
2009/04/23 17:02:47.5      -6   -113    232    114    258 183.1  71.9  34148  289.36 0854.33
2009/04/23 17:02:47.6      31   -285    330    287    437 173.8  54.6  34156  289.52 0854.33
2009/04/23 17:02:47.7      -6   -115    257    116    281 183.1  74.2  34164  289.64 0854.33
2009/04/23 17:02:47.8       4   -421    390    422    574 179.4  47.6  34156  289.50 0854.33
2009/04/23 17:02:47.9    -119   -365    379    384    539 198.1  49.8  34122  288.93 0854.33
2009/04/23 17:02:48.0      14   -147    263    148    301 174.2  68.5  34142  289.25 0854.33
2009/04/23 17:02:48.1    -155   -260    177    303    350 210.8  33.1  34110  288.71 0854.33
2009/04/23 17:02:48.2     -85   -115    167    144    220 216.5  54.8  34108  288.70 0854.33
2009/04/23 17:02:48.3      40    -55    162     69    176 144.0  75.9  34130  289.06 0854.33
2009/04/23 17:02:48.4    -154    -92    196    180    266 239.1  52.7  34136  289.15 0854.33
2009/04/23 17:02:48.5    -122    -40    144    129    193 251.8  53.5  34132  289.11 0854.33
2009/04/23 17:02:48.6     -26    116    137    119    181 347.1  54.6  34132  289.09 0854.33
2009/04/23 17:02:48.7     113    113    229    160    279  45.0  61.7  34130  289.07 0854.33
2009/04/23 17:02:48.8      10   -136    290    137    320 175.6  73.1  34118  288.87 0854.33
2009/04/23 17:02:48.9     -60   -200    364    209    419 196.7  67.7  34130  289.06 0854.33
2009/04/23 17:02:49.0      26   -355    354    356    502 175.7  50.0  34116  288.82 0854.33
2009/04/23 17:02:49.1    -212   -517    378    559    674 202.3  37.3  34126  289.01 0854.33
2009/04/23 17:02:49.2    -280   -425    323    510    603 213.4  35.5  34100  288.54 0854.36
2009/04/23 17:02:49.3    -240   -206    146    317    349 229.5  26.5  34118  288.86 0854.36
2009/04/23 17:02:49.4    -109   -244    207    268    338 204.1  41.5  34112  288.76 0854.36
2009/04/23 17:02:49.5    -102   -117    165    156    227 221.0  52.1  34116  288.84 0854.36
2009/04/23 17:02:49.6    -190   -284    240    343    418 213.8  38.5  34120  288.91 0854.36
2009/04/23 17:02:49.7    -460   -425    198    627    658 227.3  17.5  34116  288.84 0854.36
2009/04/23 17:02:49.8    -466   -421    243    629    674 227.9  22.3  34114  288.78 0854.36
2009/04/23 17:02:49.9    -407   -277    125    493    509 235.8  14.3  34112  288.76 0854.36
2009/04/23 17:02:50.0    -527    -84    151    534    555 260.9  15.8  34086  288.31 0854.36
2009/04/23 17:02:50.1    -618   -150    225    636    675 256.3  19.5  34090  288.39 0854.36
2009/04/23 17:02:50.2    -639    -66    151    643    661 264.0  13.3  34078  288.20 0854.36
2009/04/23 17:02:50.3    -294   -372    259    475    541 218.3  31.0  34112  288.77 0854.36
2009/04/23 17:02:50.4    -105   -298    278    317    421 199.4  45.8  34102  288.59 0854.36
2009/04/23 17:02:50.5    -156   -431    346    459    574 199.9  40.7  34108  288.70 0854.36
2009/04/23 17:02:50.6    -185   -487    396    522    655 200.8  40.9  34098  288.53 0854.36
2009/04/23 17:02:50.7    -231   -312    357    389    527 216.6  47.5  34108  288.69 0854.36
2009/04/23 17:02:50.8     -57   -328    339    333    475 189.9  50.6  34114  288.80 0854.36
2009/04/23 17:02:50.9      -7   -370    367    371    521 181.2  49.9  34104  288.62 0854.36
2009/04/23 17:02:51.0    -137   -504    487    523    714 195.2  47.7  34094  288.46 0854.36
2009/04/23 17:02:51.1     120   -236    389    265    470 153.0  62.6  34094  288.45 0854.36
2009/04/23 17:02:51.2     270   -253    276    371    462 133.2  40.4  34100  288.55 0854.39
2009/04/23 17:02:51.3      14    -37    196     40    200 158.2  89.0  34120  288.91 0854.39
2009/04/23 17:02:51.4     316    -23    351    317    472  94.3  53.4  34118  288.85 0854.39
2009/04/23 17:02:51.5     502     45    377    505    630  84.8  40.5  34112  288.76 0854.39
2009/04/23 17:02:51.6     348    -42    216    351    412  97.0  34.4  34102  288.59 0854.39
2009/04/23 17:02:51.7     385    -77    193    393    437 101.4  28.2  34094  288.46 0854.39
2009/04/23 17:02:51.9     403     48    205    406    454  83.1  29.1  34098  288.51 0854.39
2009/04/23 17:02:51.9     217   -102     96    240    258 115.2  23.0  34102  288.58 0854.39
2009/04/23 17:02:52.0     433     18    118    434    450  87.5  15.3  34092  288.41 0854.39
2009/04/23 17:02:52.1     457     12     83    458    466  88.4  10.3  34094  288.45 0854.39
2009/04/23 17:02:52.2     452     59    110    456    470  82.5  13.6  34096  288.49 0854.39
2009/04/23 17:02:52.3     442     40    103    444    456  84.8  13.1  34098  288.51 0854.39
2009/04/23 17:02:52.4     417     76     81    424    432  79.6  10.8  34100  288.56 0854.39
2009/04/23 17:02:52.5     447     75    147    454    478  80.4  17.9  34126  289.00 0854.39
2009/04/23 17:02:52.6     357     86    132    368    390  76.4  20.6  34136  289.18 0854.39
2009/04/23 17:02:52.7     224   -244    162    332    369 137.4  27.9  34142  289.26 0854.39
2009/04/23 17:02:52.8     157   -159    125    224    256 135.5  31.4  34138  289.19 0854.39
2009/04/23 17:02:52.9      49     26    127     56    138  62.0  75.0  34152  289.45 0854.39
2009/04/23 17:02:53.0     182    -13    172    183    251  94.3  48.0  34144  289.31 0854.39
2009/04/23 17:02:53.1      76     97    123    124    174  38.3  50.5  34160  289.57 0854.39
2009/04/23 17:02:53.3     150     16    161    151    220  83.8  52.1  34146  289.33 0854.41
2009/04/23 17:02:53.3     163    104     98    194    217  57.5  29.1  34158  289.53 0854.41
2009/04/23 17:02:53.5     314    134    180    342    386  66.8  30.1  34122  288.93 0854.41
2009/04/23 17:02:53.6     378    153     96    408    420  67.9  13.2  34114  288.80 0854.41
2009/04/23 17:02:53.7     365    149     85    395    405  67.7  12.2  34090  288.38 0854.41
2009/04/23 17:02:53.8     371     41    198    374    423  83.7  30.2  34090  288.38 0854.41
2009/04/23 17:02:53.9     209    -83    267    226    349 111.8  55.7  34096  288.49 0854.41
2009/04/23 17:02:54.0     252   -149    323    293    436 120.6  53.2  34110  288.71 0854.41
2009/04/23 17:02:54.1       0     -5    263      6    263 182.7  90.0  34126  288.99 0854.41
2009/04/23 17:02:54.2      34    -76    257     84    270 155.5  81.0  34104  288.62 0854.41
2009/04/23 17:02:54.3      65     91    147    112    184  35.6  59.2  34126  288.99 0854.41
2009/04/23 17:02:54.4     251     83    236    265    354  71.6  46.3  34104  288.61 0854.41
2009/04/23 17:02:54.5     182      4    304    183    354  88.7  66.3  34106  288.65 0854.41
2009/04/23 17:02:54.6     -35    -43    168     56    177 219.6  81.0  34122  288.94 0854.41
2009/04/23 17:02:54.7      24   -119    203    122    236 168.4  66.4  34106  288.65 0854.41
2009/04/23 17:02:54.8     -28    -71    181     77    196 201.8  75.5  34114  288.79 0854.41
2009/04/23 17:02:54.9     -22     -2    202     23    203 263.9  90.0  34116  288.84 0854.41
2009/04/23 17:02:55.0     -77    -13    157     79    175 260.3  71.4  34108  288.69 0854.41
2009/04/23 17:02:55.1     -63     29    118     70    137 295.3  66.8  34104  288.62 0854.41
2009/04/23 17:02:55.2      38     85    201     94    221  24.5  73.2  34108  288.70 0854.41
2009/04/23 17:02:55.3      43     52    136     68    152  39.6  71.9  34104  288.64 0854.41
2009/04/23 17:02:55.4      32     57    119     66    136  29.9  68.8  34100  288.57 0854.41
2009/04/23 17:02:55.5      31    164    139    168    218  10.9  43.7  34102  288.60 0854.41
2009/04/23 17:02:55.6     -64    149     82    163    182 336.6  28.5  34108  288.69 0854.41
2009/04/23 17:02:55.7     -84    190    107    208    233 336.2  29.3  34100  288.57 0854.41
2009/04/23 17:02:55.8    -329    108    122    347    367 288.3  20.0  34090  288.37 0854.41
2009/04/23 17:02:55.9    -284    139     31    317    319 296.2   5.7  34088  288.36 0854.41
2009/04/23 17:02:56.0    -217    217     61    308    315 315.0  11.3  34096  288.49 0854.41
2009/04/23 17:02:56.1    -179    173     58    250    257 314.0  13.2  34094  288.46 0854.41
2009/04/23 17:02:56.2     -19    251     99    252    270 355.6  22.8  34098  288.53 0854.41
2009/04/23 17:02:56.3      35    249    -18    252    253   8.0  -4.1  34100  288.54 0854.41
2009/04/23 17:02:56.4      93    325     40    339    342  16.0   6.8  34126  289.01 0854.41
2009/04/23 17:02:56.5     -35    318     55    320    325 353.7   9.9  34112  288.75 0854.41
2009/04/23 17:02:56.6     -16    259     32    260    263 356.4   7.1  34100  288.56 0854.41
2009/04/23 17:02:56.7      36    169     83    174    192  12.3  27.2  34106  288.65 0854.41
2009/04/23 17:02:56.8     148    161    123    219    251  42.5  32.1  34114  288.80 0854.41
2009/04/23 17:02:56.9      49    291    225    296    371   9.7  41.1  34130  289.08 0854.41
2009/04/23 17:02:57.0      -5    286    155    287    326 358.9  30.7  34194  290.15 0854.41
2009/04/23 17:02:57.1     -26    230    131    232    266 353.5  31.9  34172  289.78 0854.41
2009/04/23 17:02:57.2     108    183     55    213    220  30.7  14.5  34116  288.84 0854.41
2009/04/23 17:02:57.3     252    115     29    278    280  65.4   6.0  34098  288.51 0854.39
2009/04/23 17:02:57.4     211    173    -29    274    276  50.7  -6.2  34126  289.00 0854.39
2009/04/23 17:02:57.5     269    181    -51    325    330  56.1  -9.0  34122  288.93 0854.39
2009/04/23 17:02:57.6     181    156    -30    240    242  49.3  -7.3  34150  289.41 0854.39
2009/04/23 17:02:57.7     192    198     92    276    292  44.1  18.5  34162  289.61 0854.39
2009/04/23 17:02:57.8     147    215     63    261    269  34.5  13.7  34170  289.75 0854.39
2009/04/23 17:02:57.9     211    195     34    288    291  47.3   6.9  34150  289.41 0854.39
2009/04/23 17:02:58.0     254    182    -29    313    315  54.3  -5.5  34156  289.49 0854.39
2009/04/23 17:02:58.1     229    179     14    291    292  52.0   2.9  34190  290.09 0854.39
2009/04/23 17:02:58.2     130     63      9    145    146  64.2   3.8  34154  289.46 0854.39
2009/04/23 17:02:58.3     196     33     49    199    206  80.4  13.9  34096  288.50 0854.39
2009/04/23 17:02:58.4     239    108    103    263    282  65.6  22.5  34216  290.53 0854.39
2009/04/23 17:02:58.5     268     63     75    276    287  76.7  15.2  34138  289.20 0854.39
2009/04/23 17:02:58.6     266     68    119    275    299  75.6  25.1  34290  291.78 0854.39
2009/04/23 17:02:58.7     290     12    135    291    320  87.6  26.5  34278  291.56 0854.39
2009/04/23 17:02:58.8     251     57     74    258    269  77.2  16.0  34204  290.32 0854.39
2009/04/23 17:02:58.9     252     30     99    254    272  83.0  22.3  34234  290.82 0854.39
2009/04/23 17:02:59.0     197     40     83    201    217  78.5  23.6  34262  291.30 0854.39
2009/04/23 17:02:59.1     224     28    173    226    284  82.8  41.6  34284  291.67 0854.39
2009/04/23 17:02:59.2     298    117    166    321    361  68.5  29.3  34328  292.42 0854.39
2009/04/23 17:02:59.3     204     67     77    215    229  71.8  19.9  34302  291.98 0854.41
2009/04/23 17:02:59.4     199    278     44    342    345  35.6   7.5  34152  289.45 0854.41
2009/04/23 17:02:59.5      89    254    117    270    294  19.4  25.1  34154  289.47 0854.41
2009/04/23 17:02:59.6     216    216    131    306    332  44.9  24.5  34152  289.42 0854.41
2009/04/23 17:02:59.7     270    211     83    343    353  52.0  13.7  34126  289.01 0854.41
2009/04/23 17:02:59.8     179    216    116    281    304  39.7  23.6  34136  289.15 0854.41
2009/04/23 17:02:59.9     134    256    102    290    308  27.6  19.4  34148  289.37 0854.41
2009/04/23 17:03:00.0     184    277     96    333    347  33.6  16.1  34144  289.30 0854.41
2009/04/23 17:03:00.1     230    266     89    352    364  40.9  14.3  34140  289.23 0854.41
2009/04/23 17:03:00.2     226    212    109    311    330  46.9  19.3  34154  289.46 0854.41
2009/04/23 17:03:00.3     211    225     66    309    317  43.2  12.1  34144  289.31 0854.41
2009/04/23 17:03:00.4     200    205     78    287    298  44.3  15.2  34144  289.29 0854.41
2009/04/23 17:03:00.5     129    292    149    320    352  23.8  26.9  34184  289.98 0854.41
2009/04/23 17:03:00.6      91    277    113    292    313  18.3  22.2  34210  290.42 0854.41
2009/04/23 17:03:00.7     179    280     91    333    346  32.7  15.3  34206  290.35 0854.41
2009/04/23 17:03:00.8      67    186     46    198    204  20.0  13.2  34228  290.74 0854.41
2009/04/23 17:03:00.9      41    201     -7    206    207  11.6  -2.1  34218  290.55 0854.41
2009/04/23 17:03:01.0      33    235    -20    238    239   8.0  -4.9  34222  290.63 0854.41
2009/04/23 17:03:01.1      51    248    -24    254    256  11.8  -5.6  34220  290.59 0854.41
2009/04/23 17:03:01.2      57    190    -57    199    208  16.9 -16.0  34210  290.43 0854.41
2009/04/23 17:03:01.3      58    232    -46    240    245  14.2 -10.9  34216  290.53 0854.41
2009/04/23 17:03:01.4     171    204      1    267    268  39.9   0.2  34214  290.49 0854.41
2009/04/23 17:03:01.5     169    275      5    323    324  31.6   1.0  34196  290.17 0854.41
2009/04/23 17:03:01.6     186    269    -18    328    329  34.7  -3.2  34224  290.66 0854.41
2009/04/23 17:03:01.7      98    282    -66    299    307  19.2 -12.5  34212  290.46 0854.41
2009/04/23 17:03:01.8      47    301    -17    305    306   8.9  -3.3  34206  290.34 0854.41
2009/04/23 17:03:01.9      18    286     55    287    293   3.6  11.0  34214  290.49 0854.41
2009/04/23 17:03:02.0     101    215     37    238    241  25.3   8.9  34212  290.46 0854.41
2009/04/23 17:03:02.1     251    151    -11    294    295  58.9  -2.2  34234  290.82 0854.41
2009/04/23 17:03:02.2     272    228     46    356    359  50.0   7.4  34278  291.57 0854.41
2009/04/23 17:03:02.3      96    151    -76    180    195  32.5 -28.7  34210  290.41 0854.41
2009/04/23 17:03:02.4     144     65    -66    159    172  65.6 -28.2  34230  290.77 0854.41
2009/04/23 17:03:02.5     107     79    -30    134    138  53.6 -12.9  34234  290.84 0854.41
2009/04/23 17:03:02.6      99    121    -21    157    159  39.2  -7.7  34220  290.60 0854.41
2009/04/23 17:03:02.7      55     82   -117     99    153  33.8 -60.2  34194  290.14 0854.41
2009/04/23 17:03:02.8      95    137   -140    167    217  34.7 -48.5  34152  289.43 0854.41
2009/04/23 17:03:02.9      86    117   -126    146    192  36.1 -49.8  34160  289.58 0854.41
2009/04/23 17:03:03.0     142    126    -88    190    209  48.4 -31.4  34170  289.75 0854.41
2009/04/23 17:03:03.1     265     24     23    267    269  84.7   5.0  34242  290.95 0854.41
2009/04/23 17:03:03.2     136    -22     47    138    146  99.2  18.9  34214  290.50 0854.41
2009/04/23 17:03:03.3      73    -34    -15     81     83 115.3 -10.9  34196  290.18 0854.40
2009/04/23 17:03:03.4      61     16    -34     64     72  74.9 -34.7  34198  290.23 0854.40
2009/04/23 17:03:03.5     105     62    -47    123    131  59.3 -25.9  34200  290.25 0854.40
2009/04/23 17:03:03.6     108    116    -48    159    167  43.0 -16.8  34154  289.48 0854.40
2009/04/23 17:03:03.7      96     85    -99    129    162  48.6 -45.8  34146  289.35 0854.40
2009/04/23 17:03:03.8     114     81    -17    140    142  54.5  -7.2  34138  289.21 0854.40
2009/04/23 17:03:03.9     170     57    -65    180    191  71.4 -24.6  34146  289.33 0854.40
2009/04/23 17:03:04.0     161     81    -74    181    195  63.1 -27.8  34148  289.36 0854.40
2009/04/23 17:03:04.1      93    141    -24    170    172  33.4  -8.2  34182  289.96 0854.40
2009/04/23 17:03:04.2      96    116    -19    151    153  39.7  -7.2  34194  290.16 0854.40
2009/04/23 17:03:04.3     102    157    -34    188    192  33.2 -10.3  34192  290.13 0854.40
2009/04/23 17:03:04.4      78    180     38    197    201  23.4  11.0  34194  290.14 0854.40
2009/04/23 17:03:04.5      88    130     58    158    168  34.3  21.0  34182  289.94 0854.40
2009/04/23 17:03:04.6     103     83     64    133    147  50.9  27.3  34162  289.62 0854.40
2009/04/23 17:03:04.7     120     71     36    140    145  59.3  14.7  34174  289.82 0854.40
2009/04/23 17:03:04.8     175     12     13    176    177  85.9   4.4  34200  290.25 0854.40
2009/04/23 17:03:04.9     153    -44     37    160    165 106.2  13.2  34194  290.16 0854.40
2009/04/23 17:03:05.0     101     -1     41    102    109  90.9  23.0  34188  290.06 0854.40
2009/04/23 17:03:05.1     120      9     -4    121    122  85.7  -2.2  34156  289.52 0854.40
2009/04/23 17:03:05.2     149     -9     30    150    154  93.5  11.4  34156  289.52 0854.40
2009/04/23 17:03:05.3     168    -66     50    181    188 111.7  15.6  34148  289.38 0854.39
2009/04/23 17:03:05.4     226    -84      0    242    243 110.4   0.2  34140  289.22 0854.39
2009/04/23 17:03:05.5     158    -78     66    177    188 116.4  21.3  34136  289.18 0854.39
2009/04/23 17:03:05.6     175    -21    101    177    203  97.0  32.4  34132  289.11 0854.39
2009/04/23 17:03:05.7     243      0     -1    244    245  90.0  -0.3  34150  289.41 0854.39
2009/04/23 17:03:05.8     231    -16     -7    232    233  94.1  -1.8  34144  289.30 0854.39
2009/04/23 17:03:05.9     182     60     40    192    197  71.6  12.0  34158  289.55 0854.39
2009/04/23 17:03:06.0     207    117     90    239    255  60.5  21.7  34166  289.66 0854.39
2009/04/23 17:03:06.1     255    161    125    302    326  57.6  23.8  34158  289.53 0854.39
2009/04/23 17:03:06.2     244    104    118    266    290  66.9  25.3  34176  289.85 0854.39
2009/04/23 17:03:06.3     247    116     53    273    279  64.8  11.0  34160  289.56 0854.39
2009/04/23 17:03:06.4     275    134     20    307    308  64.0   3.8  34160  289.58 0854.39
2009/04/23 17:03:06.5     249    137    -13    285    286  61.1  -2.8  34156  289.49 0854.39
2009/04/23 17:03:06.6     253     96     13    271    272  69.2   2.9  34140  289.22 0854.39
2009/04/23 17:03:06.7     297    118     52    320    325  68.2   9.3  34128  289.03 0854.39
2009/04/23 17:03:06.8     250     79     26    263    265  72.3   5.7  34126  289.00 0854.39
2009/04/23 17:03:06.9     246     92     27    263    265  69.4   5.9  34120  288.88 0854.39
2009/04/23 17:03:07.0     237     99     36    258    261  67.3   8.0  34122  288.92 0854.39
2009/04/23 17:03:07.1     254    149     26    295    297  59.6   5.2  34148  289.37 0854.39
2009/04/23 17:03:07.2     276    101    -11    295    296  69.8  -2.2  34140  289.24 0854.39
2009/04/23 17:03:07.3     272     86    -47    286    290  72.3  -9.3  34134  289.12 0854.40
2009/04/23 17:03:07.4     222     87     12    239    240  68.5   2.9  34138  289.19 0854.40
2009/04/23 17:03:07.5     184    101     63    211    221  61.1  16.6  34170  289.75 0854.40
2009/04/23 17:03:07.6     277     51      8    282    283  79.4   1.8  34178  289.88 0854.40
2009/04/23 17:03:07.7     272     20    -49    273    278  85.7 -10.3  34198  290.20 0854.40
2009/04/23 17:03:07.8     243    123      3    273    274  63.1   0.7  34178  289.88 0854.40
2009/04/23 17:03:07.9     293    103    -36    311    314  70.5  -6.7  34180  289.92 0854.40
2009/04/23 17:03:08.0     301     80    -73    312    321  75.0 -13.2  34190  290.07 0854.40
2009/04/23 17:03:08.1     243     89     11    259    260  69.8   2.5  34180  289.90 0854.40
2009/04/23 17:03:08.2     168     58     -9    178    179  70.9  -3.1  34184  289.99 0854.40
2009/04/23 17:03:08.3      87     85     62    122    136  45.6  29.2  34182  289.96 0854.39
2009/04/23 17:03:08.4      77    111     67    136    151  34.7  27.3  34182  289.94 0854.39
2009/04/23 17:03:08.5      81     80     49    114    124  45.4  24.6  34172  289.79 0854.39
2009/04/23 17:03:08.6      83    153     52    175    183  28.5  16.8  34174  289.82 0854.39
2009/04/23 17:03:08.7     112     78     78    137    157  54.9  32.1  34176  289.84 0854.39
2009/04/23 17:03:08.8     130     42     16    137    139  71.8   6.9  34176  289.84 0854.39
2009/04/23 17:03:08.9     101     33    -13    107    108  71.8  -7.3  34178  289.89 0854.39
2009/04/23 17:03:09.0      95     58    -50    112    122  58.5 -29.6  34178  289.87 0854.39
2009/04/23 17:03:09.1     114     64    -16    131    133  60.7  -7.3  34176  289.84 0854.39
2009/04/23 17:03:09.2     141    -19     23    143    145  98.0   9.5  34172  289.79 0854.39
2009/04/23 17:03:09.3     165     92    -28    190    193  60.7  -8.6  34194  290.14 0854.39
2009/04/23 17:03:09.4     174     75    -54    190    197  66.5 -20.7  34216  290.52 0854.39
2009/04/23 17:03:09.5     149     67    -45    164    170  65.6 -20.2  34218  290.55 0854.39
2009/04/23 17:03:09.6     135     86    -19    161    163  57.6  -6.9  34222  290.64 0854.39
2009/04/23 17:03:09.7     145     88     10    170    171  58.7   3.6  34210  290.41 0854.39
2009/04/23 17:03:09.8     136    102    -28    170    173  53.1  -9.3  34186  290.01 0854.39
2009/04/23 17:03:09.9      99    125    -39    160    165  38.5 -13.7  34178  289.87 0854.39
2009/04/23 17:03:10.0     118    135    -16    180    181  41.0  -5.4  34178  289.89 0854.39
2009/04/23 17:03:10.1     133    116    -27    177    180  48.7  -8.8  34172  289.79 0854.39
2009/04/23 17:03:10.2     114    117     -5    164    165  44.3  -1.8  34176  289.85 0854.39
2009/04/23 17:03:10.3     123    122     -3    174    175  45.1  -1.1  34182  289.96 0854.41
2009/04/23 17:03:10.4     115     90     16    147    148  51.8   6.5  34190  290.09 0854.41
2009/04/23 17:03:10.5     100    100     70    142    158  45.2  28.2  34196  290.19 0854.41
2009/04/23 17:03:10.6     105    134     35    171    175  38.1  11.6  34204  290.31 0854.41
2009/04/23 17:03:10.7     118     80     60    143    155  55.8  23.6  34216  290.53 0854.41
2009/04/23 17:03:10.8      92     58     31    109    114  57.6  15.8  34232  290.79 0854.41
2009/04/23 17:03:10.9      66      5     78     67    102  85.7  54.8  34228  290.72 0854.41
2009/04/23 17:03:11.0      61      4     94     62    112  85.7  64.1  34236  290.86 0854.41
2009/04/23 17:03:11.1      47     38     99     61    116  51.4  64.7  34248  291.06 0854.41
2009/04/23 17:03:11.2      51     -7     67     52     84  98.8  58.5  34238  290.89 0854.41
2009/04/23 17:03:11.3      69     -6     60     70     92  95.2  45.4  34230  290.77 0854.41
2009/04/23 17:03:11.4      61    -29     83     68    107 115.3  56.4  34236  290.86 0854.41
2009/04/23 17:03:11.5      84    -15     86     86    121 100.1  50.1  34234  290.84 0854.41
2009/04/23 17:03:11.6      76      6     85     77    114  84.8  52.7  34224  290.67 0854.41
2009/04/23 17:03:11.7      94     30     34     99    105  72.3  19.2  34210  290.41 0854.41
2009/04/23 17:03:11.8      85      6     16     86     88  85.6  10.6  34214  290.48 0854.41
2009/04/23 17:03:11.9      70      5     47     71     85  85.6  36.5  34230  290.77 0854.41
2009/04/23 17:03:12.0      47     23     30     53     60  63.8  31.4  34232  290.81 0854.41
2009/04/23 17:03:12.1       2     41     13     42     45   3.6  17.3  34240  290.92 0854.41
2009/04/23 17:03:12.2     -29     62      3     69     70 334.5   2.9  34244  291.01 0854.41
2009/04/23 17:03:12.3     -32     67     47     75     88 334.5  35.5  34264  291.35 0854.39
2009/04/23 17:03:12.4     -66     31      3     74     75 295.4   2.9  34266  291.38 0854.39
2009/04/23 17:03:12.5     -58     -4     20     59     63 265.6  19.4  34276  291.55 0854.39
2009/04/23 17:03:12.6     -26     -8     27     28     38 253.2  52.0  34286  291.72 0854.39
2009/04/23 17:03:12.7       0     -7     34      8     34 184.5  89.0  34294  291.86 0854.39
2009/04/23 17:03:12.8       0     12     29     13     31   0.9  73.1  34296  291.88 0854.39
2009/04/23 17:03:12.9     -11     27     42     30     51 338.2  60.5  34288  291.76 0854.39
2009/04/23 17:03:13.0     -34     35     38     50     62 315.9  41.7  34276  291.55 0854.39
2009/04/23 17:03:13.1     -53     40     -1     67     68 306.9  -1.3  34250  291.09 0854.39
2009/04/23 17:03:13.2     -52     28     -7     60     61 298.9  -7.3  34236  290.87 0854.39
2009/04/23 17:03:13.3     -46     15     17     49     52 288.4  19.4  34240  290.94 0854.39
2009/04/23 17:03:13.4       0     39     34     40     52 359.1  44.8  34246  291.04 0854.39
2009/04/23 17:03:13.5      28     28      7     41     42  45.0  10.1  34248  291.06 0854.39
2009/04/23 17:03:13.6      12     13     -5     18     18  43.4 -23.8  34248  291.06 0854.39
2009/04/23 17:03:13.7      61     12    -21     63     66  78.5 -23.6  34244  290.99 0854.39
2009/04/23 17:03:13.8      69      0    -28     70     75  90.8 -27.4  34226  290.69 0854.39
2009/04/23 17:03:13.9      69    -32    -25     77     81 115.3 -18.1  34224  290.67 0854.39
2009/04/23 17:03:14.0      73     -5     26     74     79  94.3  19.4  34224  290.65 0854.39
2009/04/23 17:03:14.1     100    -13     28    101    105  97.9  15.8  34238  290.89 0854.39
2009/04/23 17:03:14.2      43     29     62     52     80  55.8  55.4  34244  291.01 0854.39
2009/04/23 17:03:14.3      42     37     48     57     74  48.7  43.8  34242  290.96 0854.38
2009/04/23 17:03:14.4      20     17     54     27     60  48.7  71.9  34244  291.01 0854.38
2009/04/23 17:03:14.5       3     14     45     15     47  15.1  81.0  34248  291.08 0854.38
2009/04/23 17:03:14.6       3     41     39     42     57   4.5  49.0  34250  291.09 0854.38
2009/04/23 17:03:14.7     -12     54     47     56     73 347.5  43.8  34242  290.98 0854.38
2009/04/23 17:03:14.8      -3     48     36     49     60 355.5  39.7  34242  290.96 0854.38
2009/04/23 17:03:14.9     -31     42     39     53     65 323.9  39.7  34248  291.06 0854.38
2009/04/23 17:03:15.0     -32     46     22     57     61 324.8  22.0  34264  291.33 0854.38
2009/04/23 17:03:15.1     -31     38      0     50     51 320.4  -0.3  34270  291.43 0854.38
2009/04/23 17:03:15.2     -36      7     -2     37     38 281.4  -3.1  34278  291.59 0854.38
2009/04/23 17:03:15.3      -7     -6    -22     10     24 230.5 -79.4  34278  291.57 0854.38
2009/04/23 17:03:15.4      38    -24    -31     46     55 122.4 -40.0  34272  291.47 0854.38
2009/04/23 17:03:15.5      49    -46    -32     68     75 133.1 -31.6  34272  291.47 0854.38
2009/04/23 17:03:15.6      76    -50    -48     92    103 123.3 -34.7  34262  291.32 0854.38
2009/04/23 17:03:15.7      80    -44    -11     92     93 118.9  -7.3  34260  291.28 0854.38
2009/04/23 17:03:15.8      56    -22      4     61     62 111.7   3.8  34256  291.21 0854.38
2009/04/23 17:03:15.9      34    -25     44     43     61 126.9  50.1  34274  291.50 0854.38
2009/04/23 17:03:16.0      39     -6     74     40     84  99.7  68.8  34272  291.49 0854.38
2009/04/23 17:03:16.1      42    -12     62     44     76 106.8  60.6  34252  291.13 0854.38
2009/04/23 17:03:16.2       3      9     46     10     47  21.8  88.0  34272  291.47 0854.38
2009/04/23 17:03:16.3      -1      0     62      2     62 270.0  90.0  34276  291.55 0854.36
2009/04/23 17:03:16.4      23     26     84     35     91  41.4  76.1  34324  292.37 0854.36
2009/04/23 17:03:16.5      -5     92    101     93    137 356.9  52.2  34360  292.98 0854.36
2009/04/23 17:03:16.6      21    108    116    111    160  11.1  51.4  34378  293.29 0854.36
2009/04/23 17:03:16.7      73    107    111    130    170  34.2  44.8  34364  293.04 0854.36
2009/04/23 17:03:16.8     100    134     99    168    195  36.7  33.5  34372  293.19 0854.36
2009/04/23 17:03:16.9     117    102    123    156    198  49.1  42.2  34382  293.36 0854.36
2009/04/23 17:03:17.0     178    135     71    224    236  52.9  17.7  34374  293.21 0854.36
2009/04/23 17:03:17.1      66     87     78    110    134  37.4  38.6  34374  293.22 0854.36
2009/04/23 17:03:17.2      31     94     -9     99    100  18.3  -5.2  34348  292.76 0854.36
2009/04/23 17:03:17.3      88    125     10    153    154  35.2   3.8  34360  292.97 0854.36
2009/04/23 17:03:17.4     177    188    130    259    289  43.2  28.5  34344  292.70 0854.36
2009/04/23 17:03:17.5     188    171    125    255    283  47.8  28.0  34328  292.43 0854.36
2009/04/23 17:03:17.6     172    129     90    216    234  53.1  23.8  34346  292.75 0854.36
2009/04/23 17:03:17.7     254    122     88    283    297  64.2  17.3  34354  292.86 0854.36
2009/04/23 17:03:17.8     288    126    187    315    366  66.4  33.5  34314  292.19 0854.36
2009/04/23 17:03:17.9     377     88    213    388    442  76.8  31.3  34298  291.92 0854.36
2009/04/23 17:03:18.0     335    161     46    372    375  64.2   7.1  34302  291.98 0854.36
2009/04/23 17:03:18.1     495    172     73    525    531  70.8   8.0  34284  291.67 0854.36
2009/04/23 17:03:18.2     559    234    175    607    632  67.3  16.1  34272  291.49 0854.36
2009/04/23 17:03:18.3     670    213    156    704    722  72.3  12.5  34262  291.29 0854.37
2009/04/23 17:03:18.4     653    209    210    686    718  72.2  17.1  34272  291.47 0854.37
2009/04/23 17:03:18.5     692    201    191    721    746  73.8  14.9  34262  291.31 0854.37
2009/04/23 17:03:18.6     626    172    234    650    690  74.6  20.7  34260  291.28 0854.37
2009/04/23 17:03:18.7     646    -37    236    648    689  93.3  21.0  34252  291.12 0854.37
2009/04/23 17:03:18.8     647    175    234    671    710  74.8  20.0  34260  291.27 0854.37
2009/04/23 17:03:18.9     523     59    297    527    604  83.5  32.0  34248  291.07 0854.37
2009/04/23 17:03:19.0     443     82     85    451    460  79.5  10.7  34224  290.67 0854.37
2009/04/23 17:03:19.1     375    248    261    450    520  56.5  32.8  34186  290.01 0854.37
2009/04/23 17:03:19.2     377    268    164    463    491  54.5  20.3  34178  289.86 0854.37
2009/04/23 17:03:19.3     215    299   -114    369    386  35.7 -22.2  34176  289.84 0854.37
2009/04/23 17:03:19.4     200    361   -112    413    428  29.0 -15.2  34170  289.73 0854.37
2009/04/23 17:03:19.5     190    162    -61    250    258  49.6 -13.9  34154  289.46 0854.37
2009/04/23 17:03:19.6      16     -3    -71     17     73 101.5 -90.0  34172  289.79 0854.37
2009/04/23 17:03:19.7    -270   -210   -157    343    377 232.2 -30.8  34162  289.62 0854.37
2009/04/23 17:03:19.8    -149   -358   -289    388    483 202.6 -44.8  34104  288.63 0854.37
2009/04/23 17:03:19.9    -167   -322   -220    363    424 207.4 -38.6  34100  288.56 0854.37
2009/04/23 17:03:20.0    -144      4     -9    145    146 271.7  -3.7  34126  288.99 0854.37
2009/04/23 17:03:20.2    -183     29    -21    186    188 279.0  -6.7  34148  289.36 0854.37
2009/04/23 17:03:20.3      11   -117   -169    118    206 174.2 -66.2  34124  288.97 0854.37
2009/04/23 17:03:20.4     -64   -178   -220    190    290 200.0 -59.2  34118  288.87 0854.39
2009/04/23 17:03:20.5     -58    -91   -184    108    213 212.5 -71.2  34162  289.62 0854.39
2009/04/23 17:03:20.6     100   -200   -113    224    250 153.3 -32.9  34142  289.25 0854.39
2009/04/23 17:03:20.7     139   -190     -5    236    237 143.9  -1.3  34100  288.54 0854.39
2009/04/23 17:03:20.8     101   -241    -37    262    265 157.3  -8.2  34116  288.81 0854.39
2009/04/23 17:03:20.9     123   -181    -39    219    223 145.8 -10.1  34118  288.87 0854.39
2009/04/23 17:03:21.0     104   -118     53    158    167 138.5  18.6  34098  288.52 0854.39
2009/04/23 17:03:21.1      41    -83    166     93    190 153.3  68.5  34120  288.89 0854.39
2009/04/23 17:03:21.2     152    -30    135    156    206 101.4  45.4  34136  289.16 0854.39
2009/04/23 17:03:21.3     105    -37     70    112    132 109.5  35.5  34150  289.41 0854.39
2009/04/23 17:03:21.4      81      5     45     82     93  86.5  30.8  34154  289.46 0854.39
2009/04/23 17:03:21.5      -4    -53     22     54     58 184.5  22.0  34158  289.55 0854.39
2009/04/23 17:03:21.6     -24    -12     35     28     44 242.9  57.5  34162  289.62 0854.39
2009/04/23 17:03:21.7      51    -17     50     54     73 108.4  48.0  34162  289.62 0854.39
2009/04/23 17:03:21.8       7    102     67    103    122   4.4  35.6  34164  289.65 0854.39
2009/04/23 17:03:21.9      32    157      2    161    162  11.5   1.0  34158  289.55 0854.39
2009/04/23 17:03:22.0      79    163     58    182    191  25.9  17.7  34162  289.60 0854.39
2009/04/23 17:03:22.1      64    253     61    262    270  14.3  13.1  34160  289.58 0854.39
2009/04/23 17:03:22.2     124    232     31    264    266  28.1   6.7  34170  289.75 0854.39
2009/04/23 17:03:22.3     191    191    126    271    298  45.1  27.0  34158  289.53 0854.39
2009/04/23 17:03:22.4     202    179     95    271    287  48.4  20.0  34168  289.70 0854.37
2009/04/23 17:03:22.5     271    212    134    345    370  51.9  22.2  34162  289.62 0854.37
2009/04/23 17:03:22.6     257    180    143    314    345  55.0  26.3  34160  289.57 0854.37
2009/04/23 17:03:22.7     258     79     93    270    286  72.9  19.2  34168  289.70 0854.37
2009/04/23 17:03:22.8     268     80    113    280    301  73.2  23.0  34184  289.97 0854.37
2009/04/23 17:03:22.9     220    137    163    260    306  58.0  35.5  34186  290.00 0854.37
2009/04/23 17:03:23.0     341    149    149    373    401  66.4  23.0  34188  290.04 0854.37
2009/04/23 17:03:23.1     200    154    234    253    344  52.3  47.6  34184  289.97 0854.37
2009/04/23 17:03:23.2     306    170      6    351    352  61.0   1.1  34162  289.60 0854.37
2009/04/23 17:03:23.3     141    195    155    241    286  35.8  35.6  34158  289.54 0854.37
2009/04/23 17:03:23.4     110    274    195    296    354  21.9  36.5  34174  289.82 0854.37
2009/04/23 17:03:23.5     -15    333    121    334    355 357.4  20.8  34204  290.32 0854.37
2009/04/23 17:03:23.6     -16    360    136    361    385 357.4  21.5  34260  291.28 0854.37
2009/04/23 17:03:23.7      32    301     99    303    319   6.2  18.2  34250  291.10 0854.37
2009/04/23 17:03:23.8     -93    242    115    260    284 339.0  25.3  34248  291.07 0854.37
2009/04/23 17:03:23.9      -9    303     91    304    318 358.2  16.8  34238  290.88 0854.37
2009/04/23 17:03:24.0     -36    368     51    370    374 354.3   7.9  34238  290.91 0854.37
2009/04/23 17:03:24.1     -73    346     44    354    357 348.0   7.1  34218  290.57 0854.37
2009/04/23 17:03:24.2     -82    249     51    263    269 341.7  11.1  34206  290.34 0854.37
2009/04/23 17:03:24.3      57    305     45    311    315  10.7   8.2  34226  290.68 0854.37
2009/04/23 17:03:24.4     266    472     46    542    545  29.4   4.9  34278  291.59 0854.37
2009/04/23 17:03:24.5     316    269    146    416    440  49.6  20.0  34310  292.11 0854.37
2009/04/23 17:03:24.6     186    408    150    449    474  24.5  18.6  34320  292.29 0854.37
2009/04/23 17:03:24.7      -1    302    236    303    384 359.8  41.9  34276  291.54 0854.37
2009/04/23 17:03:24.8      95    296    169    311    353  17.8  30.9  34268  291.39 0854.37
2009/04/23 17:03:24.9     128    252    245    283    374  27.1  45.5  34268  291.40 0854.37
2009/04/23 17:03:25.0      15    392    206    393    443   2.3  29.8  34218  290.55 0854.37
2009/04/23 17:03:25.1     -65    420    154    426    452 351.1  20.9  34196  290.17 0854.37
2009/04/23 17:03:25.2     -75    506     24    512    513 351.5   2.8  34202  290.29 0854.37
2009/04/23 17:03:25.3    -104    518    118    529    543 348.6  12.6  34184  289.97 0854.37
2009/04/23 17:03:25.4      74    372    173    380    417  11.3  26.2  34206  290.34 0854.37
2009/04/23 17:03:25.5     194    305    262    362    446  32.4  39.5  34252  291.14 0854.37
2009/04/23 17:03:25.6       0    504     95    505    515   0.0  10.7  34212  290.44 0854.37
2009/04/23 17:03:25.7     122    463    184    479    513  14.8  22.1  34246  291.02 0854.37
2009/04/23 17:03:25.8     -27    394    156    395    424 356.0  22.8  34260  291.28 0854.37
2009/04/23 17:03:25.9     103    283    250    302    392  20.0  43.8  34216  290.52 0854.37
2009/04/23 17:03:26.0      46    324    278    328    429   8.1  44.8  34268  291.42 0854.37
2009/04/23 17:03:26.1     155    417    253    446    512  20.5  32.1  34172  289.78 0854.37
2009/04/23 17:03:26.2     180    353    163    397    429  27.0  23.6  34160  289.56 0854.37
2009/04/23 17:03:26.3     104    329    145    346    375  17.5  24.1  34162  289.59 0854.37
2009/04/23 17:03:26.4      89    270    221    285    360  18.3  41.7  34146  289.35 0854.37
2009/04/23 17:03:26.5    -100    292    240    309    391 341.1  41.7  34192  290.11 0854.37
2009/04/23 17:03:26.6    -186    262    231    322    396 324.6  39.2  34224  290.66 0854.37
2009/04/23 17:03:26.7     138    176    193    224    295  38.1  45.1  34204  290.32 0854.37
2009/04/23 17:03:26.8     317    201    165    376    410  57.6  25.2  34126  288.98 0854.37
2009/04/23 17:03:26.9     195    334    168    388    422  30.3  25.1  34154  289.48 0854.37
2009/04/23 17:03:27.0     183    268    212    325    388  34.3  36.0  34138  289.21 0854.37
2009/04/23 17:03:27.1     455    276    125    533    548  58.8  13.3  34124  288.97 0854.37
2009/04/23 17:03:27.2     541    372     21    657    658  55.5   1.9  34082  288.26 0854.37
2009/04/23 17:03:27.3     443    365    127    574    589  50.5  12.5  34204  290.32 0854.37
2009/04/23 17:03:27.4     771    119    -47    781    783  81.2  -3.5  34120  288.88 0854.37
2009/04/23 17:03:27.5     815    269     10    859    860  71.7   0.7  34116  288.82 0854.37
2009/04/23 17:03:27.6     859    185    191    879    900  77.8  12.3  34078  288.18 0854.37
2009/04/23 17:03:27.7     775     58    365    778    859  85.7  27.0  34106  288.65 0854.37
2009/04/23 17:03:27.8     670     84    333    676    753  82.8  28.1  34074  288.13 0854.37
2009/04/23 17:03:27.9     424    -16    297    425    518  92.3  38.5  34088  288.34 0854.37
2009/04/23 17:03:28.0     570    -29    133    571    587  93.0  13.1  34104  288.64 0854.37
2009/04/23 17:03:28.1     521    231     23    570    571  66.1   2.4  34092  288.41 0854.37
2009/04/23 17:03:28.2     336     19    100    337    352  86.6  16.6  34100  288.55 0854.37
2009/04/23 17:03:28.3     449    281    206    530    568  58.0  22.4  34064  287.96 0854.37
2009/04/23 17:03:28.4     419    277    202    503    542  56.5  23.1  34078  288.18 0854.36
2009/04/23 17:03:28.5     412    137    195    435    476  71.6  25.8  34086  288.31 0854.36
2009/04/23 17:03:28.6     338    148     31    370    372  66.3   4.9  34116  288.82 0854.36
2009/04/23 17:03:28.7     288    144     27    323    325  63.4   4.9  34094  288.44 0854.36
2009/04/23 17:03:28.8     418    178   -111    455    469  67.0 -13.8  34070  288.06 0854.36
2009/04/23 17:03:28.9     234    199     26    308    310  49.6   4.9  34080  288.21 0854.36
2009/04/23 17:03:29.0     152    207     60    257    264  36.3  13.2  34120  288.88 0854.36
2009/04/23 17:03:29.1     236    478    -56    534    538  26.3  -6.1  34178  289.89 0854.36
2009/04/23 17:03:29.2     237    511     50    564    567  24.9   5.1  34168  289.72 0854.36
2009/04/23 17:03:29.3     198    520    -41    557    559  20.9  -4.2  34144  289.29 0854.36
2009/04/23 17:03:29.4     424    427    -14    602    603  44.8  -1.4  34120  288.88 0854.36
2009/04/23 17:03:29.5     393    249     87    466    474  57.6  10.6  34142  289.28 0854.36
2009/04/23 17:03:29.6     439    318    214    543    583  54.1  22.7  34144  289.29 0854.36
2009/04/23 17:03:29.7     146    370    243    399    467  21.6  34.3  34142  289.26 0854.36
2009/04/23 17:03:29.8     164    305    168    347    385  28.4  27.3  34146  289.33 0854.36
2009/04/23 17:03:29.9      46    333     79    337    347   8.0  13.3  34154  289.47 0854.36
2009/04/23 17:03:30.0     138    264    151    298    334  27.6  28.9  34142  289.27 0854.36
2009/04/23 17:03:30.1     292    138    305    324    444  64.6  48.0  34192  290.12 0854.36
2009/04/23 17:03:30.2     276    131    215    306    373  64.6  38.6  34166  289.67 0854.36
2009/04/23 17:03:30.3     170    127     25    213    215  53.4   6.9  34146  289.33 0854.36
2009/04/23 17:03:30.4       9   -118    123    119    171 175.6  50.9  34162  289.60 0854.36
2009/04/23 17:03:30.5     316    -54    324    321    456  99.7  50.2  34150  289.41 0854.36
2009/04/23 17:03:30.6      12      0    192     13    192  85.6  90.0  34160  289.58 0854.36
2009/04/23 17:03:30.7    -136   -329    134    357    381 202.5  21.4  34164  289.64 0854.36
2009/04/23 17:03:30.8    -187   -269     20    328    329 214.8   3.5  34162  289.60 0854.36
2009/04/23 17:03:30.9    -171   -286     65    334    341 210.9  11.1  34182  289.94 0854.36
2009/04/23 17:03:31.0     -98   -454     53    465    469 192.3   6.6  34186  290.01 0854.36
2009/04/23 17:03:31.1    -134   -422    156    443    470 197.7  19.4  34216  290.53 0854.36
2009/04/23 17:03:31.2     -76   -283    159    293    333 195.1  30.9  34194  290.15 0854.36
2009/04/23 17:03:31.3     -76   -377    236    385    451 191.5  34.4  34190  290.09 0854.36
2009/04/23 17:03:31.4    -125   -443    189    461    498 195.8  23.6  34188  290.06 0854.35
2009/04/23 17:03:31.5    -168   -266    127    315    339 212.3  23.1  34182  289.93 0854.35
2009/04/23 17:03:31.6    -247   -310    298    397    496 218.5  40.6  34186  290.00 0854.35
2009/04/23 17:03:31.7    -299   -378    211    483    527 218.4  25.2  34166  289.66 0854.35
2009/04/23 17:03:31.8    -353   -378     86    518    526 223.0   9.5  34158  289.53 0854.35
2009/04/23 17:03:31.9    -251   -347    202    429    474 216.0  27.0  34160  289.58 0854.35
2009/04/23 17:03:32.0    -321   -204     89    381    392 237.5  13.2  34150  289.40 0854.35
2009/04/23 17:03:32.1    -419   -308    235    521    571 233.7  26.2  34158  289.53 0854.35
2009/04/23 17:03:32.2    -195   -190     96    273    290 225.8  19.4  34156  289.49 0854.35
2009/04/23 17:03:32.3    -280    -85    107    293    311 253.1  20.9  34164  289.64 0854.35
2009/04/23 17:03:32.4    -351    -88    141    362    388 255.9  22.4  34148  289.37 0854.35
2009/04/23 17:03:32.5    -213   -171    232    274    359 231.1  44.7  34164  289.64 0854.35
2009/04/23 17:03:32.6    -238    -36     -4    241    242 261.4  -1.1  34172  289.78 0854.35
2009/04/23 17:03:32.7    -436   -102   -170    448    479 256.7 -26.1  34174  289.81 0854.35
2009/04/23 17:03:32.8    -482   -232   -147    535    555 244.3 -15.4  34170  289.74 0854.35
2009/04/23 17:03:32.9    -297   -299    -50    422    425 224.8  -6.8  34142  289.27 0854.35
2009/04/23 17:03:33.0    -452   -353    -37    574    576 232.0  -3.7  34148  289.36 0854.35
2009/04/23 17:03:33.1    -512   -218      9    557    558 246.9   1.0  34168  289.72 0854.35
2009/04/23 17:03:33.2    -364    -82     13    374    375 257.2   2.1  34164  289.64 0854.35
2009/04/23 17:03:33.3    -287   -182    -40    340    343 237.6  -6.8  34166  289.69 0854.35
2009/04/23 17:03:33.4    -340   -141     42    369    372 247.4   6.6  34170  289.74 0854.37
2009/04/23 17:03:33.5    -445   -176    182    479    512 248.3  21.8  34160  289.56 0854.37
2009/04/23 17:03:33.6    -347    -87     84    358    368 255.8  13.2  34156  289.50 0854.37
2009/04/23 17:03:33.7    -194    -89    -33    214    217 245.2  -8.8  34158  289.55 0854.37
2009/04/23 17:03:33.8      21   -193    148    195    244 173.8  41.2  34156  289.52 0854.37
2009/04/23 17:03:33.9      25   -381    147    382    409 176.2  22.1  34152  289.42 0854.37
2009/04/23 17:03:34.0      45   -266    185    270    327 170.2  37.7  34138  289.20 0854.37
2009/04/23 17:03:34.1     -69   -191    193    204    280 199.8  48.2  34138  289.19 0854.37
2009/04/23 17:03:34.2    -112   -176    132    209    247 212.6  35.5  34142  289.25 0854.37
2009/04/23 17:03:34.3    -126   -185     11    225    226 214.3   2.9  34152  289.45 0854.37
2009/04/23 17:03:34.4    -223   -115      0    251    252 242.7   0.0  34156  289.51 0854.37
2009/04/23 17:03:34.5    -179   -185     80    258    271 224.1  17.3  34160  289.58 0854.37
2009/04/23 17:03:34.6    -312   -256    145    404    429 230.6  20.7  34150  289.39 0854.37
2009/04/23 17:03:34.7    -314   -278     82    420    429 228.5  11.1  34172  289.77 0854.37
2009/04/23 17:03:34.8    -274   -162    192    319    372 239.4  33.8  34142  289.25 0854.37
2009/04/23 17:03:34.9    -549   -172    127    576    591 252.6  12.5  34146  289.34 0854.37
2009/04/23 17:03:35.0    -605   -273   -102    664    672 245.7  -8.8  34118  288.85 0854.37
2009/04/23 17:03:35.1    -622   -239    -26    667    668 249.0  -2.2  34100  288.55 0854.37
2009/04/23 17:03:35.2    -566   -195     90    599    606 250.9   8.6  34130  289.07 0854.37
2009/04/23 17:03:35.3    -452     96    166    463    491 282.1  20.4  34148  289.37 0854.37
2009/04/23 17:03:35.4    -573     75     91    578    586 277.5   9.0  34156  289.49 0854.38
2009/04/23 17:03:35.5    -464    -48     78    467    474 264.1   9.5  34148  289.37 0854.38
2009/04/23 17:03:35.6    -313     63     16    320    321 281.5   2.9  34144  289.29 0854.38
2009/04/23 17:03:35.7    -410    -75    -27    417    418 259.5  -3.7  34150  289.41 0854.38
2009/04/23 17:03:35.8    -326    -80    -13    336    337 256.2  -2.2  34164  289.65 0854.38
2009/04/23 17:03:35.9    -290   -281    -15    405    406 225.9  -2.2  34162  289.60 0854.38
2009/04/23 17:03:36.0    -264    -44    -19    268    269 260.5  -4.1  34156  289.49 0854.38
2009/04/23 17:03:36.1    -373    -75     30    381    383 258.6   4.6  34134  289.13 0854.38
2009/04/23 17:03:36.2    -469     -4   -104    470    482 269.4 -12.5  34128  289.03 0854.38
2009/04/23 17:03:36.3    -283   -178     78    335    345 237.8  13.2  34138  289.20 0854.38
2009/04/23 17:03:36.4    -407   -216   -136    462    481 242.0 -21.2  34126  289.00 0854.38
2009/04/23 17:03:36.5    -337    -91    151    350    381 254.9  24.9  34148  289.38 0854.38
2009/04/23 17:03:36.6    -280    140    -11    314    315 296.6  -2.1  34162  289.61 0854.38
2009/04/23 17:03:36.7    -328    -18    -18    329    330 266.8  -3.3  34150  289.40 0854.38
2009/04/23 17:03:36.8    -377   -256    -92    456    466 235.8 -11.5  34116  288.83 0854.38
2009/04/23 17:03:36.9    -420   -137    -77    442    449 251.9  -9.9  34154  289.48 0854.38
2009/04/23 17:03:37.0    -276   -207     27    345    347 233.1   4.5  34154  289.48 0854.38
2009/04/23 17:03:37.1    -268      8    -24    269    271 271.9  -5.1  34158  289.53 0854.38
2009/04/23 17:03:37.2    -256     64   -107    265    285 284.2 -27.5  34162  289.61 0854.38
2009/04/23 17:03:37.3    -290    -12    -95    291    307 267.5 -18.2  34160  289.56 0854.38
2009/04/23 17:03:37.4    -289      6    -90    290    303 271.3 -22.5  34158  289.54 0854.39
2009/04/23 17:03:37.5     -40    -93     29    102    107 203.2  15.8  34154  289.48 0854.39
2009/04/23 17:03:37.6     138   -217     38    258    261 147.5   8.5  34128  289.02 0854.39
2009/04/23 17:03:37.7     143   -173     90    225    242 140.3  23.0  34124  288.95 0854.39
2009/04/23 17:03:37.8     137   -127    -88    188    207 132.9 -31.5  34138  289.19 0854.39
2009/04/23 17:03:37.9     -14   -146   -109    147    183 185.8 -44.5  34132  289.09 0854.39
2009/04/23 17:03:38.0     -99   -251    -85    271    285 201.6 -17.5  34126  288.98 0854.39
2009/04/23 17:03:38.1     -99   -209    -70    232    243 205.3 -16.8  34130  289.07 0854.39
2009/04/23 17:03:38.2    -138     -6    -85    139    162 267.4 -39.2  34138  289.21 0854.39
2009/04/23 17:03:38.3     -43    -41    -77     60     97 225.9 -62.3  34142  289.28 0854.39
2009/04/23 17:03:38.4      30   -155    -54    158    168 168.9 -18.9  34150  289.40 0854.39
2009/04/23 17:03:38.5     104   -289    -88    308    321 160.2 -16.0  34136  289.17 0854.39
2009/04/23 17:03:38.6      72   -406    -84    413    422 169.9 -11.5  34142  289.26 0854.39
2009/04/23 17:03:38.7      59   -426     31    430    432 172.1   4.2  34140  289.24 0854.39
2009/04/23 17:03:38.8      94   -488     24    498    499 169.1   2.8  34130  289.05 0854.39
2009/04/23 17:03:38.9      76   -489    -51    496    499 171.1  -6.0  34120  288.91 0854.39
2009/04/23 17:03:39.0     138   -529      7    547    548 165.4   0.8  34122  288.94 0854.39
2009/04/23 17:03:39.1      68   -550    105    555    565 172.9  10.7  34124  288.97 0854.39
2009/04/23 17:03:39.2      -8   -474     56    475    479 181.0   6.8  34130  289.05 0854.39
2009/04/23 17:03:39.3    -138   -409     40    432    435 198.7   5.3  34138  289.19 0854.39
2009/04/23 17:03:39.4    -148   -361    135    391    414 202.3  19.1  34134  289.14 0854.39
2009/04/23 17:03:39.5     -33   -338    260    340    428 185.6  41.3  34118  288.86 0854.39
2009/04/23 17:03:39.6     -42   -293    201    297    358 188.2  37.4  34126  288.98 0854.39
2009/04/23 17:03:39.7     -11   -397    173    398    433 181.6  25.1  34122  288.94 0854.39
2009/04/23 17:03:39.8     -44   -447    204    450    494 185.7  26.2  34126  289.00 0854.39
2009/04/23 17:03:39.9     -24   -414     96    415    427 183.4  13.1  34124  288.97 0854.39
2009/04/23 17:03:40.0      11   -494    233    495    547 178.6  27.1  34112  288.77 0854.39
2009/04/23 17:03:40.1     -40   -449    279    451    530 185.2  34.8  34114  288.78 0854.39
2009/04/23 17:03:40.2    -116   -585     19    597    598 191.2   1.9  34110  288.73 0854.39
2009/04/23 17:03:40.3     -84   -411    161    420    449 191.7  22.0  34104  288.61 0854.39
2009/04/23 17:03:40.4    -102   -413    198    426    469 193.9  26.6  34104  288.61 0854.39
2009/04/23 17:03:40.5     -68   -310    272    318    418 192.5  44.9  34102  288.60 0854.39
2009/04/23 17:03:40.6     -98   -268    344    286    447 200.1  56.3  34112  288.77 0854.39
2009/04/23 17:03:40.7    -108   -175    228    206    307 211.6  53.3  34114  288.80 0854.39
2009/04/23 17:03:40.8    -143   -310    213    342    402 204.7  35.0  34118  288.86 0854.39
2009/04/23 17:03:40.9    -289   -197    217    350    411 235.7  34.8  34116  288.82 0854.39
2009/04/23 17:03:41.0    -257   -155    244    301    387 238.9  43.4  34116  288.82 0854.39
2009/04/23 17:03:41.1    -123   -261    152    289    326 205.3  30.0  34120  288.88 0854.39
2009/04/23 17:03:41.2     -49   -136    179    145    230 200.0  56.4  34128  289.04 0854.39
2009/04/23 17:03:41.3     -15   -132    193    133    234 186.7  62.4  34136  289.16 0854.39
2009/04/23 17:03:41.4     -31    -65    141     73    158 205.5  70.6  34142  289.28 0854.38
2009/04/23 17:03:41.5     -26     12     44     29     52 295.4  64.6  34136  289.16 0854.38
2009/04/23 17:03:41.6    -139    -10     21    140    142 265.6   8.9  34128  289.02 0854.38
2009/04/23 17:03:41.7    -145    146     49    206    212 315.2  13.5  34136  289.16 0854.38
2009/04/23 17:03:41.8    -130      8    123    131    179 273.5  48.2  34142  289.28 0854.38
2009/04/23 17:03:41.9    -143     33    140    147    203 283.3  48.7  34142  289.28 0854.38
2009/04/23 17:03:42.0     -82     -8    103     83    132 264.3  56.4  34144  289.30 0854.38
2009/04/23 17:03:42.1    -185   -173     90    254    270 226.9  19.6  34124  288.97 0854.38
2009/04/23 17:03:42.2    -121   -235    104    265    284 207.4  22.5  34130  289.07 0854.38
2009/04/23 17:03:42.3    -154   -137      0    207    208 228.2  -0.3  34136  289.18 0854.38
2009/04/23 17:03:42.4    -164   -106    163    196    254 237.1  43.8  34130  289.05 0854.38
2009/04/23 17:03:42.5    -165    -55     65    175    186 251.4  21.5  34140  289.24 0854.38
2009/04/23 17:03:42.6     -93      7    107     94    142 274.8  54.2  34140  289.23 0854.38
2009/04/23 17:03:42.7    -171    177    182    247    306 315.9  39.7  34142  289.27 0854.38
2009/04/23 17:03:42.8     -51    149    197    158    252 340.8  57.3  34144  289.31 0854.38
2009/04/23 17:03:42.9     -80    169    189    188    266 334.6  50.1  34138  289.19 0854.38
2009/04/23 17:03:43.0    -172    276     15    326    327 328.1   2.8  34134  289.14 0854.38
2009/04/23 17:03:43.1     -58    284     46    291    295 348.4   9.0  34130  289.05 0854.38
2009/04/23 17:03:43.2     -57    282     77    288    299 348.4  15.0  34130  289.07 0854.38
2009/04/23 17:03:43.3     -98    298     73    314    323 341.7  13.2  34132  289.10 0854.38
2009/04/23 17:03:43.4      24    324    -30    325    327   4.4  -5.3  34130  289.05 0854.38
2009/04/23 17:03:43.5     112    277    -70    300    309  22.1 -13.3  34126  288.98 0854.38
2009/04/23 17:03:43.6     168    276    -58    324    330  31.4 -10.3  34136  289.15 0854.38
2009/04/23 17:03:43.7     188    248   -113    312    331  37.2 -25.0  34134  289.14 0854.38
2009/04/23 17:03:43.8     114    294    131    316    342  21.2  23.8  34136  289.15 0854.38
2009/04/23 17:03:43.9      11    252    160    253    299   2.7  35.5  34142  289.25 0854.38
2009/04/23 17:03:44.0      87    251    125    266    293  19.2  27.1  34140  289.24 0854.38
2009/04/23 17:03:44.1      16    266     91    267    283   3.5  18.9  34138  289.20 0854.38
2009/04/23 17:03:44.2      62    178     77    189    204  19.2  23.1  34156  289.52 0854.38
2009/04/23 17:03:44.3       4    276    119    277    301   0.9  24.9  34162  289.61 0854.38
2009/04/23 17:03:44.4      95    342    156    356    388  15.6  25.2  34198  290.21 0854.38
2009/04/23 17:03:44.5      40    342     94    345    358   6.7  15.3  34198  290.23 0854.38
2009/04/23 17:03:44.6     221    312     29    383    384  35.4   4.3  34142  289.26 0854.38
2009/04/23 17:03:44.7     218    161    135    272    303  53.6  28.2  34150  289.41 0854.38
2009/04/23 17:03:44.8     129    269    113    299    319  25.6  21.6  34176  289.83 0854.38
2009/04/23 17:03:44.9     211    289     72    358    366  36.1  11.4  34220  290.60 0854.38
2009/04/23 17:03:45.0     178    230     46    292    296  37.8   9.0  34212  290.44 0854.38
2009/04/23 17:03:45.1     155    151    108    217    242  45.6  28.5  34208  290.39 0854.38
2009/04/23 17:03:45.2     237    185    198    302    361  52.0  36.3  34244  291.01 0854.38
2009/04/23 17:03:45.3     182    176    212    254    330  46.0  44.2  34244  290.99 0854.38
2009/04/23 17:03:45.4     389    173    235    426    486  66.0  31.3  34332  292.48 0854.40
2009/04/23 17:03:45.5     381    324    188    501    535  49.6  21.5  34200  290.26 0854.40
2009/04/23 17:03:45.6     421    311    236    524    574  53.5  25.9  34244  291.01 0854.40
2009/04/23 17:03:45.7     496    263    216    562    602  62.0  22.1  34272  291.46 0854.40
2009/04/23 17:03:45.8     558    227    246    603    651  67.8  23.5  34212  290.45 0854.40
2009/04/23 17:03:45.9     429    557    245    704    746  37.6  19.2  34162  289.61 0854.40
2009/04/23 17:03:46.0     411    613    141    739    753  33.8  10.8  34176  289.85 0854.40
2009/04/23 17:03:46.1     235    565     73    612    617  22.6   6.9  34152  289.45 0854.40
2009/04/23 17:03:46.2     201    641     73    672    677  17.4   6.2  34136  289.16 0854.40
2009/04/23 17:03:46.3     481    498    -56    693    696  44.0  -4.7  34184  289.97 0854.40
2009/04/23 17:03:46.4     519    566     63    769    772  42.5   4.7  34190  290.07 0854.40
2009/04/23 17:03:46.5     357    607    152    705    722  30.5  12.2  34162  289.62 0854.40
2009/04/23 17:03:46.6     397    415     39    575    577  43.7   3.9  34128  289.03 0854.40
2009/04/23 17:03:46.7     567    282     20    634    635  63.5   1.9  34258  291.22 0854.40
2009/04/23 17:03:46.8     725    451      7    854    855  58.1   0.5  34260  291.28 0854.40
2009/04/23 17:03:46.9     644    514    -32    825    826  51.4  -2.2  34132  289.09 0854.40
2009/04/23 17:03:47.0     611    479   -208    777    805  51.9 -15.0  34154  289.46 0854.40
2009/04/23 17:03:47.1     412    439    -99    603    612  43.2  -9.3  34086  288.31 0854.40
2009/04/23 17:03:47.2     428    354   -100    556    566  50.4 -10.3  34186  290.02 0854.40
2009/04/23 17:03:47.3     339    518      5    620    621  33.2   0.5  34086  288.33 0854.40
2009/04/23 17:03:47.4     348    468     69    584    589  36.6   6.8  34180  289.90 0854.40
2009/04/23 17:03:47.5     345    447     58    565    568  37.7   5.9  34142  289.28 0854.40
2009/04/23 17:03:47.6     465    456    124    652    664  45.6  10.8  34170  289.75 0854.40
2009/04/23 17:03:47.7     430    456    178    627    652  43.3  15.9  34130  289.06 0854.40
2009/04/23 17:03:47.8     293    436     98    526    536  33.9  10.6  34066  287.97 0854.40
2009/04/23 17:03:48.0     267    487     98    556    565  28.7  10.0  34084  288.28 0854.40
2009/04/23 17:03:48.1     251    275    209    373    427  42.4  31.6  34212  290.46 0854.40
2009/04/23 17:03:48.2     544    330     63    637    641  58.7   5.7  34244  290.99 0854.40
2009/04/23 17:03:48.3     422    346     74    546    552  50.7   7.8  34222  290.62 0854.40
2009/04/23 17:03:48.4     385    479    109    615    625  38.8  10.1  34164  289.65 0854.40
2009/04/23 17:03:48.5     331    379    160    504    529  41.2  17.7  34170  289.75 0854.40
2009/04/23 17:03:48.6     356    224    155    421    448  57.8  21.0  34208  290.39 0854.40
2009/04/23 17:03:48.7     315    327    177    455    488  43.9  22.4  34176  289.84 0854.40
2009/04/23 17:03:48.8     240    441    201    503    541  28.6  23.0  34140  289.23 0854.40
2009/04/23 17:03:48.9     183    389    167    430    461  25.2  22.4  34202  290.29 0854.40
2009/04/23 17:03:49.0     246    128    108    278    298  62.5  22.5  34218  290.56 0854.40
2009/04/23 17:03:49.1     258    128    128    288    315  63.6  25.6  34204  290.31 0854.40
2009/04/23 17:03:49.2     282    122    188    308    360  66.5  34.3  34210  290.43 0854.40
2009/04/23 17:03:49.3     318    226    164    391    424  54.6  24.1  34226  290.68 0854.40
2009/04/23 17:03:49.4     240    172     15    296    297  54.3   2.9  34220  290.58 0854.40
2009/04/23 17:03:49.5     330    212    -28    393    394  57.2  -4.1  34188  290.03 0854.40
2009/04/23 17:03:49.6     519    167     57    546    550  72.2   6.0  34170  289.74 0854.40
2009/04/23 17:03:49.7     475    193    -10    513    514  67.8  -1.2  34194  290.15 0854.40
2009/04/23 17:03:49.8     475     19    106    476    488  87.7  12.6  34206  290.35 0854.40
2009/04/23 17:03:49.9     459    180    129    494    511  68.6  14.7  34194  290.15 0854.40
2009/04/23 17:03:50.0     482    234    109    536    548  64.1  11.6  34178  289.89 0854.40
2009/04/23 17:03:50.1     457    192      0    496    497  67.2   0.0  34160  289.57 0854.40
2009/04/23 17:03:50.2     462     72     80    468    475  81.1   9.7  34232  290.81 0854.40
2009/04/23 17:03:50.3     505    196    215    542    583  68.7  22.9  34316  292.23 0854.40
2009/04/23 17:03:50.4     456     59    172    460    491  82.5  21.5  34228  290.73 0854.40
2009/04/23 17:03:50.5     370     82    133    380    402  77.4  20.0  34192  290.13 0854.40
2009/04/23 17:03:50.6     380     25    176    381    419  86.1  26.6  34170  289.75 0854.40
2009/04/23 17:03:50.7     529    -27    254    530    587  93.0  27.3  34216  290.51 0854.40
2009/04/23 17:03:50.8     447    -86    164    456    484 101.0  20.6  34192  290.13 0854.40
2009/04/23 17:03:50.9     331     19    132    332    357  86.6  22.9  34228  290.71 0854.40
2009/04/23 17:03:51.0     355    152    192    387    432  66.8  28.2  34220  290.58 0854.40
2009/04/23 17:03:51.1     404    -33    233    406    468  94.8  32.4  34210  290.43 0854.40
2009/04/23 17:03:51.2     379   -154     23    410    411 112.2   3.3  34222  290.61 0854.40
2009/04/23 17:03:51.3     297   -199     44    358    361 123.9   7.1  34204  290.33 0854.40
2009/04/23 17:03:51.4     231   -203     60    308    314 131.3  11.1  34196  290.17 0854.40
2009/04/23 17:03:51.5     289   -102    109    307    325 109.5  20.3  34214  290.48 0854.40
2009/04/23 17:03:51.6     349   -367    199    507    544 136.5  22.5  34212  290.45 0854.40
2009/04/23 17:03:51.7     342   -258    226    429    484 127.0  30.0  34218  290.54 0854.40
2009/04/23 17:03:51.8     273   -213    124    347    368 127.9  20.4  34194  290.16 0854.40
2009/04/23 17:03:51.9     331    -30    100    333    348  95.2  16.8  34196  290.18 0854.40
2009/04/23 17:03:52.0     339     25    106    340    357  85.6  17.3  34186  290.01 0854.40
2009/04/23 17:03:52.1     276     47    121    280    305  80.3  25.1  34200  290.26 0854.40
2009/04/23 17:03:52.2     284    -43    156    288    327  98.6  30.8  34222  290.61 0854.40
2009/04/23 17:03:52.3     291    -39    170    294    339  97.7  32.8  34224  290.65 0854.40
2009/04/23 17:03:52.4     285      4    135    286    316  89.1  27.0  34224  290.66 0854.40
2009/04/23 17:03:52.5     206     59    131    215    251  73.8  34.4  34218  290.56 0854.41
2009/04/23 17:03:52.6     253     94    109    271    292  69.6  23.0  34216  290.51 0854.41
2009/04/23 17:03:52.7      88    113     72    144    160  37.8  28.5  34212  290.45 0854.41
2009/04/23 17:03:52.8      97     76    145    124    190  52.2  55.4  34222  290.64 0854.41
2009/04/23 17:03:52.9     138     71    101    156    185  62.9  35.6  34218  290.57 0854.41
2009/04/23 17:03:53.0     173     42    107    179    208  76.3  33.7  34212  290.47 0854.41
2009/04/23 17:03:53.1     212     92     57    232    240  66.4  13.9  34204  290.32 0854.41
2009/04/23 17:03:53.2     316    125    121    341    362  68.3  19.6  34198  290.23 0854.41
2009/04/23 17:03:53.3     206    229    212    309    374  41.9  37.7  34214  290.49 0854.41
2009/04/23 17:03:53.4       0    402    164    403    435   0.1  23.4  34162  289.60 0854.41
2009/04/23 17:03:53.5      59    401    166    406    438   8.5  23.4  34210  290.41 0854.41
2009/04/23 17:03:53.6      49    447    223    450    502   6.3  28.2  34302  291.97 0854.41
2009/04/23 17:03:53.7     -11    459    207    460    504 358.6  25.9  34252  291.13 0854.41
2009/04/23 17:03:53.8     -31    416    189    418    458 355.7  26.2  34150  289.39 0854.41
2009/04/23 17:03:53.9      43    307    224    311    383   8.0  39.5  34260  291.27 0854.41
2009/04/23 17:03:54.0     194    250    157    317    353  37.8  28.4  34296  291.88 0854.41
2009/04/23 17:03:54.1     284    257    162    384    416  47.8  24.2  34288  291.74 0854.41
2009/04/23 17:03:54.2     114    380    164    397    429  16.8  23.7  34206  290.34 0854.41
2009/04/23 17:03:54.3      79    389    180    397    435  11.5  26.0  34080  288.23 0854.41
2009/04/23 17:03:54.4     135    333      7    360    361  22.1   1.2  34086  288.32 0854.41
2009/04/23 17:03:54.5     348    289    -18    453    454  50.4  -2.3  34254  291.16 0854.41
2009/04/23 17:03:54.6     552    268    159    614    635  64.1  14.5  34222  290.62 0854.41
2009/04/23 17:03:54.7     769    295    223    824    854  69.0  15.2  34150  289.41 0854.41
2009/04/23 17:03:54.8     725    399     67    828    831  61.2   4.7  34160  289.57 0854.41
2009/04/23 17:03:54.9     652    308    126    722    734  64.7   9.9  34170  289.74 0854.41
2009/04/23 17:03:55.0     663    292    -31    725    726  66.2  -2.5  34182  289.96 0854.41
2009/04/23 17:03:55.1     571    507    108    764    772  48.4   8.1  34138  289.19 0854.41
2009/04/23 17:03:55.2     657    572    130    872    882  49.0   8.5  34118  288.86 0854.41
2009/04/23 17:03:55.3     520    531      4    744    745  44.4   0.4  34060  287.89 0854.41
2009/04/23 17:03:55.4     436    477     65    647    651  42.4   5.8  34060  287.89 0854.41
2009/04/23 17:03:55.5     327    472     28    575    576  34.8   2.8  34080  288.22 0854.41
2009/04/23 17:03:55.6     143    413   -129    438    456  19.2 -21.4  34078  288.19 0854.41
2009/04/23 17:03:55.7     274    273     12    388    389  45.1   1.8  34088  288.35 0854.41
2009/04/23 17:03:55.8     359    562    103    668    676  32.6   8.8  34086  288.33 0854.41
2009/04/23 17:03:55.9     328    383    105    505    516  40.5  11.8  34116  288.81 0854.41
2009/04/23 17:03:56.0     414    326   -152    528    549  51.8 -20.8  34080  288.23 0854.41
2009/04/23 17:03:56.1     433    270     25    511    512  58.1   2.9  34116  288.83 0854.41
2009/04/23 17:03:56.2     477    183   -153    512    535  69.0 -16.7  34102  288.58 0854.41
2009/04/23 17:03:56.3     423     -9   -144    424    447  91.3 -23.6  34078  288.19 0854.41
2009/04/23 17:03:56.4      94    280   -281    296    408  18.7 -52.9  34064  287.96 0854.41
2009/04/23 17:03:56.5     159    437   -266    466    536  20.1 -36.7  34066  287.98 0854.40
2009/04/23 17:03:56.6     161    512   -267    537    599  17.5 -32.8  34072  288.09 0854.40
2009/04/23 17:03:56.7      94    472   -214    482    527  11.3 -30.0  34098  288.52 0854.40
2009/04/23 17:03:56.8      23    438    -64    439    444   3.0  -8.4  34090  288.39 0854.40
2009/04/23 17:03:56.9     -57    400    -22    405    406 351.9  -3.1  34076  288.16 0854.40
2009/04/23 17:03:57.0     -77    447    -57    454    458 350.2  -7.2  34068  288.02 0854.40
2009/04/23 17:03:57.1    -193    218   -131    292    320 318.6 -30.2  34070  288.04 0854.40
2009/04/23 17:03:57.2     -66    166   -102    179    206 338.2 -36.5  34066  287.98 0854.40
2009/04/23 17:03:57.3       0    460   -102    461    473   0.0 -12.5  34066  287.98 0854.40
2009/04/23 17:03:57.4      35    641    -19    643    644   3.2  -1.7  34058  287.84 0854.40
2009/04/23 17:03:57.5     177    666     86    690    696  14.9   7.1  34052  287.73 0854.40
2009/04/23 17:03:57.6     -38    886   -112    887    895 357.5  -7.2  34044  287.61 0854.40
2009/04/23 17:03:57.7     185    852    325    873    931  12.3  21.4  34080  288.21 0854.40
2009/04/23 17:03:57.8     343    961    -56   1021   1023  19.7  -3.2  34162  289.59 0854.40
2009/04/23 17:03:57.9     439    844    -26    952    953  27.5  -1.6  34252  291.14 0854.40
2009/04/23 17:03:58.0     517    639     81    823    828  39.0   5.7  34326  292.39 0854.40
2009/04/23 17:03:58.1     668    597    182    896    915  48.2  11.5  34138  289.21 0854.40
2009/04/23 17:03:58.2     285    905    154    949    962  17.5   9.2  34090  288.38 0854.40
2009/04/23 17:03:58.3     333    792    114    860    868  22.8   7.6  34040  287.53 0854.40
2009/04/23 17:03:58.4     -73    648   -137    653    668 353.5 -11.9  34050  287.70 0854.40
2009/04/23 17:03:58.5    -183    496    -24    529    530 339.7  -2.7  34048  287.69 0854.39
2009/04/23 17:03:58.6    -216    617     74    654    659 340.7   6.5  34052  287.73 0854.39
2009/04/23 17:03:58.7    -337    855    -50    920    922 338.5  -3.1  34068  288.01 0854.39
2009/04/23 17:03:58.8    -461    814   -251    936    970 330.5 -15.1  34040  287.54 0854.39
2009/04/23 17:03:58.9    -631    828    -40   1042   1043 322.7  -2.2  34064  287.96 0854.39
2009/04/23 17:03:59.0    -615    767   -127    984    993 321.3  -7.4  34062  287.90 0854.39
2009/04/23 17:03:59.1    -515    653   -136    832    844 321.7  -9.3  34056  287.82 0854.39
2009/04/23 17:03:59.2    -632    727   -326    964   1018 319.0 -18.7  34050  287.70 0854.39
2009/04/23 17:03:59.3    -666    604   -187    900    920 312.2 -11.8  34052  287.74 0854.39
2009/04/23 17:03:59.4    -404    450    -53    606    609 318.1  -5.1  34048  287.66 0854.39
2009/04/23 17:03:59.5    -219    342   -148    407    433 327.4 -25.3  34048  287.67 0854.39
2009/04/23 17:03:59.6    -132    413    -50    434    437 342.2  -6.7  34050  287.70 0854.39
2009/04/23 17:03:59.7     -80    530    -32    537    538 351.4  -3.5  34046  287.65 0854.39
2009/04/23 17:03:59.8     220    507    140    553    571  23.5  14.3  34042  287.59 0854.39
2009/04/23 17:03:59.9     265    396    380    477    609  33.9  42.7  34048  287.66 0854.39
2009/04/23 17:04:00.0      20     84    271     87    284  13.8  81.7  34080  288.22 0854.39
2009/04/23 17:04:00.1     -18    220    271    221    349 355.3  56.5  34072  288.09 0854.39
2009/04/23 17:04:00.2      25    148    276    151    314   9.7  69.2  34070  288.04 0854.39
2009/04/23 17:04:00.3     -76    182    303    198    361 337.3  64.0  34090  288.39 0854.39
2009/04/23 17:04:00.4    -137    300    328    331    465 335.4  49.9  34060  287.87 0854.39
2009/04/23 17:04:00.5     236     94    321    255    409  68.3  57.6  34068  288.03 0854.40
2009/04/23 17:04:00.6      57    301    254    307    398  10.9  43.8  34074  288.13 0854.40
2009/04/23 17:04:00.7      50    565    275    568    631   5.1  27.8  34144  289.29 0854.40
2009/04/23 17:04:00.8      96    505    257    515    575  10.8  28.4  34068  288.01 0854.40
2009/04/23 17:04:00.9       0    491    219    492    538   0.0  25.7  34100  288.55 0854.40
2009/04/23 17:04:01.0      68    424    172    430    463   9.1  23.0  34078  288.19 0854.40
2009/04/23 17:04:01.1      99    426    166    438    468  13.2  21.7  34070  288.06 0854.40
2009/04/23 17:04:01.2       8    571    169    572    597   0.9  16.5  34184  289.97 0854.40
2009/04/23 17:04:01.3      88    463    173    472    502  10.8  21.0  34146  289.35 0854.40
2009/04/23 17:04:01.4     164    454    126    483    500  19.9  14.7  34172  289.79 0854.40
2009/04/23 17:04:01.5     -67    407    102    413    426 350.6  13.9  34200  290.26 0854.40
2009/04/23 17:04:01.6     110    558    170    569    595  11.2  16.7  34190  290.08 0854.40
2009/04/23 17:04:01.7     128    567    201    582    616  12.8  19.1  34188  290.05 0854.40
2009/04/23 17:04:01.8      93    472    213    482    526  11.2  25.3  34176  289.83 0854.40
2009/04/23 17:04:01.9      93    495    299    504    586  10.7  33.5  34150  289.41 0854.40
2009/04/23 17:04:02.0      10    549    191    550    583   1.1  19.2  34226  290.70 0854.40
2009/04/23 17:04:02.1     -35    527    116    529    542 356.2  12.4  34194  290.14 0854.40
2009/04/23 17:04:02.2     311    530    246    615    662  30.4  23.0  34258  291.25 0854.40
2009/04/23 17:04:02.3     540    450     96    704    711  50.2   7.8  34126  289.01 0854.40
2009/04/23 17:04:02.4     542    267    202    605    638  63.8  18.5  34190  290.09 0854.40
2009/04/23 17:04:02.5     539    180    185    569    599  71.5  18.0  34078  288.17 0854.40
2009/04/23 17:04:02.6     -12     12    280     18    280 315.0  90.0  34084  288.30 0854.40
2009/04/23 17:04:02.7    -291    496    281    576    640 329.6  27.9  34086  288.33 0854.40
2009/04/23 17:04:02.8    -410    422    207    589    625 315.8  19.4  34078  288.17 0854.40
2009/04/23 17:04:02.9    -403    467    149    617    635 319.2  13.6  34062  287.91 0854.40
2009/04/23 17:04:03.0    -514    563    -29    763    764 317.6  -2.2  34058  287.84 0854.40
2009/04/23 17:04:03.1    -511    616    -53    801    803 320.3  -3.8  34058  287.85 0854.40
2009/04/23 17:04:03.2    -435    601    -29    743    744 324.1  -2.2  34058  287.84 0854.40
2009/04/23 17:04:03.3    -610    459   -201    764    790 307.0 -14.8  34050  287.71 0854.40
2009/04/23 17:04:03.4    -359    447      8    574    575 321.3   0.9  34058  287.83 0854.40
2009/04/23 17:04:03.5    -441    494    -81    663    668 318.2  -7.0  34118  288.87 0854.40
2009/04/23 17:04:03.6    -507    376    271    632    687 306.5  24.8  34134  289.14 0854.40
2009/04/23 17:04:03.7    -208    280    240    349    423 323.4  37.8  34210  290.42 0854.40
2009/04/23 17:04:03.8    -348    204     74    404    411 300.4  10.4  34162  289.60 0854.40
2009/04/23 17:04:03.9    -249    499    193    558    591 333.4  19.1  34172  289.76 0854.40
2009/04/23 17:04:04.0     -95    498    421    508    659 349.1  43.8  34180  289.90 0854.40
2009/04/23 17:04:04.1    -152    406     18    434    435 339.4   2.4  34084  288.28 0854.40
2009/04/23 17:04:04.2    -289    349    -17    454    455 320.4  -2.2  34056  287.82 0854.40
2009/04/23 17:04:04.3    -400    263   -105    479    491 303.3 -12.4  34062  287.91 0854.40
2009/04/23 17:04:04.4    -439    103   -106    451    464 283.3 -13.3  34056  287.82 0854.40
2009/04/23 17:04:04.5    -411    161    -47    442    445 291.4  -6.1  34068  288.02 0854.41
2009/04/23 17:04:04.6    -266    199    -76    333    342 306.8 -12.9  34084  288.27 0854.41
2009/04/23 17:04:04.7    -229     46     78    234    247 281.5  18.4  34082  288.26 0854.41
2009/04/23 17:04:04.8    -245    -28     38    247    250 263.4   8.8  34082  288.26 0854.41
2009/04/23 17:04:04.9    -318    221    125    388    408 304.8  17.9  34068  288.03 0854.41
2009/04/23 17:04:05.0     -41    293     35    296    299 352.0   6.9  34068  288.00 0854.41
2009/04/23 17:04:05.1      65     56     36     87     94  49.1  23.0  34068  288.03 0854.41
2009/04/23 17:04:05.2      38    -16     82     42     92 113.5  71.4  34076  288.16 0854.41
2009/04/23 17:04:05.3     184    -13    123    185    222  94.3  36.7  34074  288.11 0854.41
2009/04/23 17:04:05.4     210      4    129    211    247  88.7  34.4  34078  288.17 0854.41
2009/04/23 17:04:05.5     172     28    146    175    227  80.5  43.8  34080  288.21 0854.41
2009/04/23 17:04:05.6     182    -15    124    183    221  95.0  37.4  34070  288.06 0854.41
2009/04/23 17:04:05.7      71    128     55    147    156  28.9  21.5  34098  288.53 0854.41
2009/04/23 17:04:05.9     136     91     36    164    168  56.0  12.4  34124  288.97 0854.41
2009/04/23 17:04:05.9     192     65     70    203    215  71.2  19.2  34138  289.19 0854.41
2009/04/23 17:04:06.0     165    221     18    277    278  36.7   3.8  34170  289.75 0854.41
2009/04/23 17:04:06.1      50    239    -40    245    249  12.0  -9.3  34158  289.54 0854.41
2009/04/23 17:04:06.2     128    206    -25    243    245  31.9  -6.1  34140  289.24 0854.41
2009/04/23 17:04:06.3     147    197    -87    247    262  36.7 -19.4  34138  289.19 0854.41
2009/04/23 17:04:06.4      43    173     82    179    196  14.0  26.2  34118  288.87 0854.41
2009/04/23 17:04:06.5       0    267    173    268    318   0.0  35.9  34138  289.19 0854.41
2009/04/23 17:04:06.6     -26    252     89    254    270 354.0  19.4  34128  289.03 0854.41
2009/04/23 17:04:06.7     202    128    129    240    272  57.6  30.6  34106  288.66 0854.41
2009/04/23 17:04:06.8     289    144    182    323    370  63.5  31.9  34100  288.54 0854.41
2009/04/23 17:04:06.9     290     76    272    300    404  75.2  46.9  34096  288.49 0854.41
2009/04/23 17:04:07.0     284     -8    221    285    360  91.7  41.7  34094  288.47 0854.41
2009/04/23 17:04:07.1     263    -32    267    265    376  97.0  50.1  34104  288.64 0854.41
2009/04/23 17:04:07.2     335     42    243    338    416  82.8  39.3  34090  288.40 0854.41
2009/04/23 17:04:07.3     353     27    261    355    440  85.5  40.0  34090  288.39 0854.41
2009/04/23 17:04:07.4     416     78    296    424    517  79.3  38.3  34100  288.57 0854.41
2009/04/23 17:04:07.5     366     80    368    375    525  77.6  49.7  34126  289.01 0854.41
2009/04/23 17:04:07.6     272     75    293    283    407  74.5  51.2  34116  288.84 0854.41
2009/04/23 17:04:07.7     226    120    334    257    421  62.0  58.6  34164  289.65 0854.41
2009/04/23 17:04:07.8     217    146    298    262    396  55.9  54.2  34132  289.11 0854.41
2009/04/23 17:04:07.9     246    393    177    464    496  32.1  22.0  34160  289.56 0854.41
2009/04/23 17:04:08.0     304    160    303    344    458  62.1  45.9  34126  289.00 0854.41
2009/04/23 17:04:08.1     139    130    237    191    304  46.9  56.6  34172  289.76 0854.41
2009/04/23 17:04:08.2     166    -18    241    168    293  96.4  61.8  34142  289.25 0854.41
2009/04/23 17:04:08.3     237     47    283    242    372  78.8  55.4  34126  289.01 0854.41
2009/04/23 17:04:08.4     134     -7    256    135    289  93.0  70.0  34128  289.02 0854.41
2009/04/23 17:04:08.5     110     65    198    129    236  59.3  63.9  34162  289.62 0854.42
2009/04/23 17:04:08.6     167     45    223    174    282  74.7  58.4  34148  289.36 0854.42
2009/04/23 17:04:08.7     250     76    258    262    367  72.9  49.9  34132  289.11 0854.42
2009/04/23 17:04:08.8     234     50    259    240    353  77.8  52.5  34128  289.03 0854.42
2009/04/23 17:04:08.9     178     49    231    185    295  74.5  57.1  34132  289.09 0854.42
2009/04/23 17:04:09.0     134      6    269    135    300  87.4  71.1  34110  288.71 0854.42
2009/04/23 17:04:09.1     261     78    221    273    351  73.4  43.1  34114  288.78 0854.42
2009/04/23 17:04:09.2     256    192    171    320    362  53.1  30.3  34174  289.81 0854.42
2009/04/23 17:04:09.3     353    176    152    395    423  63.4  22.1  34130  289.05 0854.42
2009/04/23 17:04:09.4     298     36    177    301    349  83.0  33.3  34124  288.96 0854.42
2009/04/23 17:04:09.5     269     37    268    272    381  82.0  49.8  34136  289.16 0854.42
2009/04/23 17:04:09.6     356    256    220    439    491  54.3  28.6  34156  289.49 0854.42
2009/04/23 17:04:09.7     486    183    190    520    553  69.3  21.0  34136  289.18 0854.42
2009/04/23 17:04:09.8     439    164    260    469    536  69.5  31.4  34130  289.06 0854.42
2009/04/23 17:04:09.9     396     93    336    407    527  76.8  43.7  34124  288.95 0854.42
2009/04/23 17:04:10.0     401     88    313    411    516  77.6  41.2  34120  288.91 0854.42
2009/04/23 17:04:10.1     359     79    242    368    440  77.5  36.5  34124  288.95 0854.42
2009/04/23 17:04:10.2     346    167    255    385    461  64.3  36.5  34114  288.80 0854.42
2009/04/23 17:04:10.3     364    189    194    411    454  62.5  27.1  34124  288.97 0854.42
2009/04/23 17:04:10.4     270    330    195    427    469  39.3  26.2  34128  289.04 0854.42
2009/04/23 17:04:10.5      36    229    167    232    285   9.1  39.5  34154  289.46 0854.42
2009/04/23 17:04:10.6      37     44    240     58    246  39.6  86.7  34140  289.24 0854.42
2009/04/23 17:04:10.7     103    -32    195    108    222 107.3  68.8  34132  289.09 0854.42
2009/04/23 17:04:10.8     -59    -84    248    103    268 215.2  76.3  34142  289.28 0854.42
2009/04/23 17:04:10.9    -204   -152    316    255    406 233.2  57.1  34146  289.35 0854.42
2009/04/23 17:04:11.0      -1    -30    253     31    254 182.7  90.0  34140  289.24 0854.42
2009/04/23 17:04:11.1      56     64    184     86    203  41.4  73.1  34148  289.36 0854.42
2009/04/23 17:04:11.2       5     66    164     67    177   4.5  76.8  34148  289.36 0854.42
2009/04/23 17:04:11.3    -114   -129    217    173    277 221.4  57.5  34158  289.53 0854.42
2009/04/23 17:04:11.4     -15     -1    170     16    170 265.7  90.0  34156  289.50 0854.42
2009/04/23 17:04:11.5     -24    -23    140     34    144 226.7  86.4  34158  289.55 0854.42
2009/04/23 17:04:11.6       9    -10    176     14    176 136.8  90.0  34144  289.31 0854.42
2009/04/23 17:04:11.7      -3    -48    179     49    185 184.5  84.8  34158  289.53 0854.42
2009/04/23 17:04:11.8     -42   -151    190    157    246 195.6  56.3  34162  289.60 0854.42
2009/04/23 17:04:11.9     -59   -107    129    123    178 208.9  51.4  34186  290.01 0854.42
2009/04/23 17:04:12.0    -126   -125      3    178    179 225.1   1.0  34170  289.74 0854.42
2009/04/23 17:04:12.1     111     -1     54    112    124  90.8  27.8  34172  289.77 0854.42
2009/04/23 17:04:12.2     234     49     27    240    242  78.1   6.5  34122  288.93 0854.42
2009/04/23 17:04:12.3     152     67    189    167    252  66.0  54.0  34094  288.47 0854.42
2009/04/23 17:04:12.4     104     31    196    109    224  73.2  68.8  34096  288.50 0854.42
2009/04/23 17:04:12.5     210     99    137    233    270  64.7  33.5  34090  288.37 0854.42
2009/04/23 17:04:12.6     243     81    192    257    320  71.6  40.4  34094  288.46 0854.42
2009/04/23 17:04:12.7     188    111    126    219    252  59.3  32.7  34152  289.44 0854.42
2009/04/23 17:04:12.8     190    170     96    256    273  48.2  21.3  34160  289.58 0854.42
2009/04/23 17:04:12.9     253    116    128    279    306  65.4  26.4  34100  288.56 0854.42
2009/04/23 17:04:13.0     207    -36    192    211    285  99.9  46.9  34110  288.71 0854.42
2009/04/23 17:04:13.1     244     15    190    245    310  86.3  41.7  34104  288.61 0854.42
2009/04/23 17:04:13.2     251     46     45    256    261  79.5  10.1  34126  289.00 0854.42
2009/04/23 17:04:13.3     225     43      4    230    231  79.0   1.2  34160  289.57 0854.42
2009/04/23 17:04:13.4     207     51     83    214    229  76.1  22.3  34152  289.45 0854.42
2009/04/23 17:04:13.5     198     64     33    209    212  72.1   9.0  34162  289.62 0854.42
2009/04/23 17:04:13.6     207     75    118    221    250  70.0  30.3  34168  289.70 0854.42
2009/04/23 17:04:13.7     262     99    131    281    310  69.2  27.1  34142  289.27 0854.42
2009/04/23 17:04:13.8     275     90    149    290    326  71.8  29.3  34192  290.10 0854.42
2009/04/23 17:04:13.9     314     79    186    324    373  75.8  32.6  34160  289.57 0854.42
2009/04/23 17:04:14.0     329     60    206    335    393  79.7  34.4  34178  289.89 0854.42
2009/04/23 17:04:14.1     384     34    189    386    429  84.9  28.0  34242  290.95 0854.42
2009/04/23 17:04:14.2     399     63    287    405    496  81.0  38.8  34292  291.83 0854.42
2009/04/23 17:04:14.3     275    168    165    323    362  58.5  29.2  34328  292.42 0854.42
2009/04/23 17:04:14.4     269    165    197    316    372  58.4  35.0  34314  292.19 0854.42
2009/04/23 17:04:14.5     306    239    152    389    417  52.0  22.5  34240  290.94 0854.42
2009/04/23 17:04:14.6     308    204    185    370    413  56.4  28.5  34218  290.54 0854.42
2009/04/23 17:04:14.7     329    253    200    416    461  52.4  27.3  34194  290.14 0854.42
2009/04/23 17:04:14.8     357    189    150    404    430  62.1  21.3  34198  290.22 0854.42
2009/04/23 17:04:14.9     352    214    143    413    438  58.7  19.2  34230  290.77 0854.42
2009/04/23 17:04:15.0     256    210    223    332    399  50.6  37.0  34288  291.74 0854.42
2009/04/23 17:04:15.1     359    230    254    427    496  57.4  33.6  34270  291.44 0854.42
2009/04/23 17:04:15.2     474    214    161    521    546  65.7  17.2  34200  290.26 0854.42
2009/04/23 17:04:15.3     526    245     33    581    582  65.1   3.3  34148  289.37 0854.42
2009/04/23 17:04:15.4     640    304     37    709    710  64.6   3.0  34094  288.45 0854.42
2009/04/23 17:04:15.5     680    328    122    756    766  64.2   9.2  34102  288.58 0854.43
2009/04/23 17:04:15.6     668    335    -15    748    749  63.4  -1.2  34102  288.60 0854.43
2009/04/23 17:04:15.8     708    196    -89    735    741  74.5  -7.0  34120  288.90 0854.43
2009/04/23 17:04:15.9     501    227     91    551    559  65.6   9.4  34102  288.58 0854.43
2009/04/23 17:04:16.0     314    147   -127    347    369  64.8 -25.3  34112  288.77 0854.43
2009/04/23 17:04:16.1     328    -40   -107    331    347  97.1 -23.3  34122  288.94 0854.43
2009/04/23 17:04:16.2     479    140     97    500    510  73.7  11.0  34090  288.40 0854.43
2009/04/23 17:04:16.3     -14    283     94    284    300 357.1  18.4  34134  289.12 0854.43
2009/04/23 17:04:16.4     100    164    -23    193    195  31.4  -6.9  34112  288.75 0854.43
2009/04/23 17:04:16.5     338    -35   -220    340    404  96.0 -40.3  34172  289.76 0854.43
2009/04/23 17:04:16.6     343   -137   -203    370    422 111.9 -35.7  34172  289.77 0854.43
2009/04/23 17:04:16.7     417   -118   -168    434    465 105.9 -26.7  34158  289.55 0854.43
2009/04/23 17:04:16.8     382   -242   -148    453    477 122.4 -18.2  34124  288.95 0854.43
2009/04/23 17:04:16.9     279   -178   -115    332    351 122.5 -23.9  34120  288.88 0854.43
2009/04/23 17:04:17.0     294    -79    -84    305    317 105.1 -15.5  34114  288.78 0854.43
2009/04/23 17:04:17.1     256    -64    -74    264    274 104.1 -20.4  34110  288.71 0854.43
2009/04/23 17:04:17.2     238    -48   -214    243    323 101.5 -50.2  34122  288.93 0854.43
2009/04/23 17:04:17.3     278   -125   -188    305    358 114.2 -39.0  34116  288.84 0854.43
2009/04/23 17:04:17.4     295    -18   -210    296    362  93.5 -43.4  34106  288.66 0854.43
2009/04/23 17:04:17.5     172     13   -188    173    255  85.6 -57.1  34122  288.92 0854.43
2009/04/23 17:04:17.6     171     -1   -138    172    220  90.4 -47.7  34128  289.04 0854.43
2009/04/23 17:04:17.7     178     81     57    196    205  65.4  16.3  34126  289.01 0854.43
2009/04/23 17:04:17.8     166    -36    -49    171    177 102.4 -20.7  34120  288.91 0854.43
2009/04/23 17:04:17.9     148     61    -52    161    170  67.6 -18.1  34108  288.70 0854.43
2009/04/23 17:04:18.0     174    -82    -30    193    196 115.4  -8.8  34106  288.65 0854.43
2009/04/23 17:04:18.1     175    -54   -146    184    234 107.1 -47.1  34100  288.55 0854.43
2009/04/23 17:04:18.2     273    130     20    303    304  64.5   3.8  34110  288.71 0854.43
2009/04/23 17:04:18.3     212    204     86    295    308  46.2  16.3  34114  288.80 0854.43
2009/04/23 17:04:18.4     225    127     90    259    275  60.5  19.2  34104  288.61 0854.43
2009/04/23 17:04:18.5     181    129    130    223    258  54.5  32.9  34110  288.73 0854.43
2009/04/23 17:04:18.6     155    107     68    189    200  55.4  20.4  34110  288.74 0854.43
2009/04/23 17:04:18.7      80     49     76     95    121  58.5  42.7  34114  288.79 0854.43
2009/04/23 17:04:18.8      38     46     94     60    111  39.6  64.6  34132  289.11 0854.43
2009/04/23 17:04:18.9      12     49     93     51    106  14.3  68.8  34142  289.28 0854.43
2009/04/23 17:04:19.0      36     86    130     94    160  22.7  60.5  34140  289.23 0854.43
2009/04/23 17:04:19.1      30    -15     89     34     95 117.1  79.2  34154  289.48 0854.43
2009/04/23 17:04:19.2       1    -40     80     41     89 177.3  71.4  34146  289.35 0854.43
2009/04/23 17:04:19.3      23    -50     74     56     92 154.7  58.5  34148  289.38 0854.43
2009/04/23 17:04:19.4      63    -40     58     75     94 122.4  41.7  34140  289.23 0854.43
2009/04/23 17:04:19.5      35    -30     76     47     89 130.4  65.1  34130  289.06 0854.43
2009/04/23 17:04:19.6      17    -64     72     67     98 164.9  52.2  34130  289.08 0854.44
2009/04/23 17:04:19.7     -32    -36    118     49    127 221.4  76.6  34128  289.04 0854.44
2009/04/23 17:04:19.8     -35    -29     95     46    105 229.6  72.8  34140  289.23 0854.44
2009/04/23 17:04:19.9     -38    -60     67     72     98 212.5  47.9  34124  288.97 0854.44
2009/04/23 17:04:20.0     -43    -43     77     61     98 225.0  56.9  34128  289.04 0854.44
2009/04/23 17:04:20.1     -62    -59     54     86    101 226.4  35.5  34128  289.02 0854.44
2009/04/23 17:04:20.2     -74    -78     57    108    122 223.3  29.8  34126  288.99 0854.44
2009/04/23 17:04:20.3     -70    -86     65    111    128 219.2  33.5  34134  289.13 0854.44
2009/04/23 17:04:20.4     -77   -100     61    127    140 217.4  27.3  34154  289.46 0854.44
2009/04/23 17:04:20.5     -89    -64     79    110    135 234.0  39.1  34150  289.40 0854.44
2009/04/23 17:04:20.6    -103    -80     45    131    139 232.2  18.9  34154  289.48 0854.44
2009/04/23 17:04:20.7     -75    -98     19    124    126 217.8   8.9  34158  289.53 0854.44
2009/04/23 17:04:20.8     -55    -96     38    111    118 209.9  18.9  34156  289.52 0854.44
2009/04/23 17:04:20.9     -11   -106     14    107    108 186.2   7.5  34160  289.57 0854.44
2009/04/23 17:04:21.0      -5    -93     -7     94     95 183.6  -4.6  34158  289.55 0854.44
2009/04/23 17:04:21.1     -47    -80     36     93     99 210.7  22.0  34150  289.40 0854.44
2009/04/23 17:04:21.2     -69    -94     65    117    133 216.5  31.4  34156  289.50 0854.44
2009/04/23 17:04:21.3     -72   -106     71    129    147 214.3  31.3  34154  289.46 0854.44
2009/04/23 17:04:21.4    -103    -94     15    140    141 227.8   6.5  34154  289.46 0854.44
2009/04/23 17:04:21.5     -93   -101    -13    138    139 222.8  -5.6  34152  289.43 0854.44
2009/04/23 17:04:21.6     -64   -109    -19    127    129 210.3  -8.8  34154  289.46 0854.44
2009/04/23 17:04:21.7      -2   -137    -16    138    139 180.9  -6.7  34154  289.48 0854.44
2009/04/23 17:04:21.8     -61    -36   -128     72    146 239.3 -73.2  34182  289.96 0854.44
2009/04/23 17:04:21.9    -103      0    -20    104    106 270.4 -10.9  34182  289.96 0854.44
2009/04/23 17:04:22.0    -101    -64     21    120    122 237.6  10.1  34172  289.77 0854.44
2009/04/23 17:04:22.1     -99   -152     40    182    187 213.2  12.4  34174  289.82 0854.44
2009/04/23 17:04:22.2     -82    -99     30    129    133 219.7  13.2  34170  289.74 0854.44
2009/04/23 17:04:22.3     -13    -95      4     96     97 188.0   2.8  34174  289.80 0854.44
2009/04/23 17:04:22.4      43   -130     10    138    139 161.5   4.4  34174  289.80 0854.44
2009/04/23 17:04:22.5      29    -64     66     71     96 155.5  48.5  34186  290.02 0854.44
2009/04/23 17:04:22.6     -13   -124     55    125    136 186.2  25.2  34188  290.06 0854.44
2009/04/23 17:04:22.7      16   -147     17    148    150 173.7   6.9  34186  290.02 0854.44
2009/04/23 17:04:22.8      18   -147     55    149    158 172.9  21.3  34184  289.97 0854.44
2009/04/23 17:04:22.9     -18   -131     36    133    138 188.1  15.2  34184  289.99 0854.44
2009/04/23 17:04:23.0     -48   -173     49    180    187 195.6  15.3  34182  289.96 0854.44
2009/04/23 17:04:23.1     -38   -210     25    214    216 190.5   6.7  34180  289.92 0854.44
2009/04/23 17:04:23.2     -66   -248     24    257    259 194.9   5.4  34184  289.98 0854.44
2009/04/23 17:04:23.3     -74   -275    -47    286    290 195.2  -9.3  34174  289.80 0854.44
2009/04/23 17:04:23.4      -2   -283     13    284    285 180.5   2.8  34160  289.56 0854.44
2009/04/23 17:04:23.5     -18   -179    140    180    228 185.8  41.7  34144  289.30 0854.44
2009/04/23 17:04:23.6     -88   -190    152    210    259 204.9  39.7  34160  289.58 0854.43
2009/04/23 17:04:23.7     -67   -202    131    214    250 198.5  34.5  34170  289.73 0854.43
2009/04/23 17:04:23.8    -101   -165     60    194    204 211.4  17.3  34170  289.74 0854.43
2009/04/23 17:04:23.9    -112   -140    101    180    206 218.7  31.4  34182  289.96 0854.43
2009/04/23 17:04:24.0    -100   -163    135    192    234 211.6  38.6  34188  290.06 0854.43
2009/04/23 17:04:24.1     -43   -205     78    210    224 192.0  21.0  34126  288.99 0854.43
2009/04/23 17:04:24.2    -141   -231     96    271    287 211.4  20.2  34148  289.37 0854.43
2009/04/23 17:04:24.3     -84   -177    128    197    234 205.5  36.3  34170  289.75 0854.43
2009/04/23 17:04:24.4     -70   -179     96    193    215 201.4  28.2  34142  289.26 0854.43
2009/04/23 17:04:24.5    -105   -149     18    183    184 215.4   5.7  34148  289.36 0854.43
2009/04/23 17:04:24.6     -51   -212     86    219    235 193.6  22.5  34140  289.23 0854.43
2009/04/23 17:04:24.7    -102   -255     51    275    280 201.8  10.6  34142  289.27 0854.43
2009/04/23 17:04:24.8    -159   -250     35    297    300 212.5   6.9  34144  289.31 0854.43
2009/04/23 17:04:24.9    -216   -119   -121    247    275 241.2 -32.6  34150  289.41 0854.43
2009/04/23 17:04:25.0     -80   -278    -91    290    303 196.0 -22.8  34140  289.22 0854.43
2009/04/23 17:04:25.1    -122   -285   -101    311    328 203.2 -18.0  34146  289.34 0854.43
2009/04/23 17:04:25.2    -150   -330   -108    363    378 204.4 -21.5  34122  288.94 0854.43
2009/04/23 17:04:25.3    -365   -256   -156    447    473 234.9 -24.4  34136  289.18 0854.43
2009/04/23 17:04:25.4    -381   -237   -108    449    462 238.1 -13.6  34146  289.34 0854.43
2009/04/23 17:04:25.5    -361   -262   -128    447    464 234.0 -20.7  34174  289.80 0854.43
2009/04/23 17:04:25.6    -453   -387   -193    597    628 229.5 -17.9  34114  288.79 0854.47
2009/04/23 17:04:25.7    -348   -275    -37    444    446 231.7  -4.9  34124  288.97 0854.47
2009/04/23 17:04:25.8    -166   -385     43    420    423 203.3   6.0  34156  289.51 0854.47
2009/04/23 17:04:25.9    -249   -514     63    572    576 205.9   6.4  34144  289.30 0854.47
2009/04/23 17:04:26.0    -219   -428    -21    481    482 207.1  -2.6  34134  289.12 0854.47
2009/04/23 17:04:26.1    -209   -347   -110    406    421 211.0 -15.2  34116  288.82 0854.47
2009/04/23 17:04:26.2    -366   -479    139    604    620 217.4  13.0  34114  288.79 0854.47
2009/04/23 17:04:26.3    -431   -547     59    697    700 218.2   4.9  34130  289.08 0854.47
2009/04/23 17:04:26.4    -335   -535     30    632    633 212.0   2.8  34106  288.67 0854.47
2009/04/23 17:04:26.5    -373   -468     18    599    600 218.6   1.8  34062  287.90 0854.47
2009/04/23 17:04:26.6    -423   -365     11    560    561 229.2   1.2  34046  287.64 0854.47
2009/04/23 17:04:26.7    -389   -301     21    492    493 232.3   2.5  34090  288.39 0854.47
2009/04/23 17:04:26.8    -277   -276     26    392    393 225.1   3.8  34116  288.82 0854.47
2009/04/23 17:04:26.9    -272   -270     18    384    385 225.2   2.8  34106  288.67 0854.47
2009/04/23 17:04:27.0    -261   -189     52    323    328 234.1   9.2  34104  288.63 0854.47
2009/04/23 17:04:27.1    -357    -79     56    366    371 257.4   8.8  34114  288.79 0854.47
2009/04/23 17:04:27.2    -266   -135    -22    299    300 243.1  -4.4  34112  288.76 0854.47
2009/04/23 17:04:27.3    -351      6   -107    352    367 271.0 -21.8  34094  288.44 0854.47
2009/04/23 17:04:27.4    -152    -96   -128    180    220 237.8 -43.7  34128  289.02 0854.47
2009/04/23 17:04:27.5    -259   -140    -62    295    302 241.6 -11.9  34124  288.97 0854.47
2009/04/23 17:04:27.6    -186    -88   -163    206    262 244.6 -46.8  34116  288.83 0854.48
2009/04/23 17:04:27.7    -135      8    -89    136    162 273.5 -40.4  34124  288.96 0854.48
2009/04/23 17:04:27.8     -17   -193    -77    194    208 185.3 -27.2  34124  288.97 0854.48
2009/04/23 17:04:27.9     120   -263    -37    290    293 155.5  -7.3  34120  288.88 0854.48
2009/04/23 17:04:28.0      74   -310    -73    319    328 166.4 -12.9  34112  288.76 0854.48
2009/04/23 17:04:28.1     330   -209      2    391    392 122.4   0.4  34110  288.71 0854.48
2009/04/23 17:04:28.2     416   -253     76    488    495 121.3   8.9  34104  288.61 0854.48
2009/04/23 17:04:28.3     383   -101    137    397    421 104.8  19.1  34090  288.39 0854.48
2009/04/23 17:04:28.4     565    -43    171    567    593  94.4  16.8  34088  288.34 0854.48
2009/04/23 17:04:28.5     439     45    440    442    623  84.1  50.0  34090  288.37 0854.48
2009/04/23 17:04:28.6     443     96    216    454    502  77.7  27.3  34104  288.62 0854.48
2009/04/23 17:04:28.7     328    -17    230    329    401  93.0  38.5  34102  288.60 0854.48
2009/04/23 17:04:28.8     161    -55    197    171    260 109.1  54.6  34112  288.75 0854.48
2009/04/23 17:04:28.9      48    -48    147     69    162 135.0  73.2  34116  288.82 0854.48
2009/04/23 17:04:29.0     -57      7    100     58    115 277.9  66.8  34116  288.82 0854.48
2009/04/23 17:04:29.1     -80    -74    111    110    156 227.3  50.1  34114  288.79 0854.48
2009/04/23 17:04:29.2    -153   -120    101    195    219 232.0  29.5  34088  288.36 0854.48
2009/04/23 17:04:29.3    -104   -176    211    205    294 210.7  50.9  34094  288.46 0854.48
2009/04/23 17:04:29.4    -105   -173    255    203    325 211.2  57.6  34102  288.58 0854.48
2009/04/23 17:04:29.5     -61   -115     24    131    134 208.1  10.6  34094  288.45 0854.48
2009/04/23 17:04:29.6      51    -76     41     92    100 145.7  25.7  34100  288.55 0854.46
2009/04/23 17:04:29.7     -12   -268     42    269    273 182.7   9.0  34094  288.46 0854.46
2009/04/23 17:04:29.8    -282   -467     75    546    552 211.1   7.9  34070  288.04 0854.46
2009/04/23 17:04:29.9    -269   -424     56    503    507 212.4   6.4  34074  288.13 0854.46
2009/04/23 17:04:30.0    -214   -315     45    381    384 214.2   6.9  34084  288.28 0854.46
2009/04/23 17:04:30.1     -83   -478     89    486    495 189.9  10.4  34090  288.40 0854.46
2009/04/23 17:04:30.2       8   -573    245    574    624 179.2  24.5  34084  288.29 0854.46
2009/04/23 17:04:30.3     -61   -508    125    512    528 186.9  13.8  34076  288.16 0854.46
2009/04/23 17:04:30.4    -230   -373    222    439    491 211.6  28.8  34088  288.34 0854.46
2009/04/23 17:04:30.5      22   -379    231    380    444 176.6  34.2  34076  288.14 0854.46
2009/04/23 17:04:30.6     -71   -321    189    329    379 192.5  32.6  34090  288.40 0854.46
2009/04/23 17:04:30.7    -160   -472    123    499    515 198.8  13.9  34088  288.35 0854.46
2009/04/23 17:04:30.8    -160   -469    111    496    509 198.9  12.6  34078  288.17 0854.46
2009/04/23 17:04:30.9     -88   -401    183    411    449 192.5  25.6  34080  288.21 0854.46
2009/04/23 17:04:31.0     -37   -341    181    344    388 186.2  30.0  34074  288.13 0854.46
2009/04/23 17:04:31.1     -52   -248    206    254    327 192.0  43.3  34074  288.10 0854.46
2009/04/23 17:04:31.2      -1   -360    183    361    404 180.2  29.1  34072  288.08 0854.46
2009/04/23 17:04:31.3      -3   -231     97    232    251 180.9  24.1  34066  287.99 0854.46
2009/04/23 17:04:31.4    -180   -282    143    335    364 212.6  24.8  34066  287.98 0854.46
2009/04/23 17:04:31.5     137    -71     62    155    166 117.5  23.0  34080  288.23 0854.46
2009/04/23 17:04:31.6     217   -224     -2    312    313 135.9  -0.5  34082  288.24 0854.44
2009/04/23 17:04:31.7     223   -209    140    306    336 133.2  26.3  34076  288.14 0854.44
2009/04/23 17:04:31.8     182   -160    180    243    302 131.4  39.9  34060  287.87 0854.44
2009/04/23 17:04:31.9     181    -97     71    206    219 118.4  19.2  34074  288.13 0854.44
2009/04/23 17:04:32.0     164    -66     58    177    187 112.0  18.1  34074  288.13 0854.44
2009/04/23 17:04:32.1     171    -68    -65    185    197 111.8 -19.4  34070  288.06 0854.44
2009/04/23 17:04:32.2     119   -132    -12    178    179 137.9  -4.1  34074  288.11 0854.44
2009/04/23 17:04:32.3      52    -43    115     68    133 129.5  66.7  34076  288.16 0854.44
2009/04/23 17:04:32.4      29     88    126     93    156  18.7  59.8  34090  288.38 0854.44
2009/04/23 17:04:32.5      -3    121     50    122    131 358.2  23.1  34084  288.30 0854.44
2009/04/23 17:04:32.6     -20     12     56     24     60 302.4  76.1  34078  288.20 0854.44
2009/04/23 17:04:32.7      84    -24     72     88    113 105.9  43.7  34082  288.26 0854.44
2009/04/23 17:04:32.8     157    -16    189    158    246  96.1  56.1  34088  288.36 0854.44
2009/04/23 17:04:32.9    -108     36    188    114    219 288.4  66.0  34086  288.31 0854.44
2009/04/23 17:04:33.0     -21      7    144     23    145 288.4  90.0  34088  288.36 0854.44
2009/04/23 17:04:33.1    -108     64     93    126    156 300.6  40.4  34082  288.26 0854.44
2009/04/23 17:04:33.2    -341    -23     61    342    348 266.1  10.2  34084  288.27 0854.44
2009/04/23 17:04:33.3    -317   -200     -3    375    376 237.7  -0.6  34076  288.15 0854.44
2009/04/23 17:04:33.4    -305     13     38    306    309 272.6   7.1  34084  288.29 0854.44
2009/04/23 17:04:33.5    -327     57     -6    332    333 279.9  -1.1  34090  288.37 0854.44
2009/04/23 17:04:33.6    -270    108     79    291    302 291.8  15.3  34088  288.36 0854.44
2009/04/23 17:04:33.7    -260    115    -36    285    288 294.0  -7.3  34086  288.32 0854.44
2009/04/23 17:04:33.8     -24     -1    -12     25     27 265.6 -31.6  34086  288.31 0854.44
2009/04/23 17:04:33.9       6    -18    178     19    179 161.5  90.0  34086  288.31 0854.44
2009/04/23 17:04:34.0      12    -73    209     75    222 170.2  79.5  34086  288.33 0854.44
2009/04/23 17:04:34.1    -177   -126     96    218    238 234.7  25.2  34088  288.36 0854.44
2009/04/23 17:04:34.2    -276     74    108    286    305 285.1  21.7  34094  288.44 0854.44
2009/04/23 17:04:34.3    -110    106    115    153    191 314.0  40.9  34088  288.36 0854.44
2009/04/23 17:04:34.4     -52   -255    123    261    288 191.6  27.1  34074  288.10 0854.44
2009/04/23 17:04:34.5    -178   -178     -3    253    254 225.0  -0.7  34066  287.99 0854.44
2009/04/23 17:04:34.6     -46   -193    144    199    245 193.6  39.7  34076  288.14 0854.44
2009/04/23 17:04:34.7      16    -96    -13     98     99 170.2  -7.7  34074  288.13 0854.44
2009/04/23 17:04:34.8     120      9     75    121    142  85.6  35.5  34084  288.28 0854.44
2009/04/23 17:04:34.9     -60    -26    140     66    154 246.5  72.9  34108  288.70 0854.44
2009/04/23 17:04:35.0    -107   -131     88    170    191 219.2  29.5  34082  288.26 0854.44
2009/04/23 17:04:35.1      62      4    122     63    137  85.6  70.8  34112  288.77 0854.44
2009/04/23 17:04:35.2     -15   -237    283    238    369 183.8  55.8  34110  288.72 0854.44
2009/04/23 17:04:35.3      14   -188    183    189    263 175.5  49.2  34096  288.49 0854.44
2009/04/23 17:04:35.4     190   -190    271    269    381 135.0  50.2  34110  288.72 0854.44
2009/04/23 17:04:35.5      74    -24    177     78    193 108.4  75.0  34114  288.80 0854.44
2009/04/23 17:04:35.6     287   -237    256    373    452 129.5  37.7  34114  288.80 0854.44
2009/04/23 17:04:35.7     173   -244    213    300    367 144.6  38.8  34082  288.25 0854.44
2009/04/23 17:04:35.8     -87   -612    200    619    651 188.1  17.9  34078  288.20 0854.44
2009/04/23 17:04:35.9     -88   -430    305    440    535 191.6  38.0  34088  288.34 0854.44
2009/04/23 17:04:36.0    -155   -355    127    388    409 203.6  18.1  34080  288.22 0854.44
2009/04/23 17:04:36.1    -278   -675    172    731    751 202.4  13.3  34076  288.14 0854.44
2009/04/23 17:04:36.2    -266   -628    134    683    697 202.9  11.1  34072  288.07 0854.44
2009/04/23 17:04:36.3    -264   -422    120    498    513 212.0  13.6  34064  287.96 0854.44
2009/04/23 17:04:36.4     -28   -220    204    222    301 187.3  47.9  34074  288.12 0854.44
2009/04/23 17:04:36.5     114   -273    208    296    361 157.3  38.6  34090  288.37 0854.44
2009/04/23 17:04:36.6      72    -94     42    119    127 142.6  19.4  34066  287.99 0854.45
2009/04/23 17:04:36.7      71      5     60     72     93  85.7  44.3  34090  288.38 0854.45
2009/04/23 17:04:36.8     236     28    182    238    299  83.2  41.4  34094  288.46 0854.45
2009/04/23 17:04:36.9     107     -1    254    108    276  90.9  75.5  34126  289.00 0854.45
2009/04/23 17:04:37.0     -36    117    264    123    291 343.0  73.2  34154  289.47 0854.45
2009/04/23 17:04:37.1    -341   -104    272    357    448 253.0  41.1  34114  288.80 0854.45
2009/04/23 17:04:37.2    -219   -128    201    254    323 239.6  42.4  34132  289.10 0854.45
2009/04/23 17:04:37.3     -38   -152    173    157    233 194.3  53.0  34130  289.06 0854.45
2009/04/23 17:04:37.4    -111    111    183    158    241 314.9  54.8  34124  288.97 0854.45
2009/04/23 17:04:37.5      16    197     83    198    214   4.9  23.8  34096  288.50 0854.45
2009/04/23 17:04:37.6      32      7     65     33     72  76.7  71.9  34122  288.94 0854.45
2009/04/23 17:04:37.7      96     93     55    134    144  46.0  23.0  34144  289.30 0854.45
2009/04/23 17:04:37.8     -44    -44     36     63     72 225.0  31.4  34144  289.31 0854.45
2009/04/23 17:04:37.9    -107      0     43    108    116 269.6  23.0  34134  289.14 0854.45
2009/04/23 17:04:38.0       8     87    114     88    144   5.8  58.5  34160  289.57 0854.45
2009/04/23 17:04:38.1      -5     69    121     70    139 355.6  67.7  34162  289.60 0854.45
2009/04/23 17:04:38.2      10      6    137     13    137  57.6  90.0  34152  289.45 0854.45
2009/04/23 17:04:38.3     -53   -122    135    134    190 203.7  49.9  34118  288.86 0854.45
2009/04/23 17:04:38.4     -39   -214    198    218    294 190.5  47.0  34114  288.80 0854.45
2009/04/23 17:04:38.5     -34   -171    -13    175    176 191.5  -4.4  34104  288.62 0854.45
2009/04/23 17:04:38.6    -134   -137    118    192    225 224.3  35.0  34100  288.57 0854.45
2009/04/23 17:04:38.7    -169   -155    122    230    260 227.6  30.3  34104  288.61 0854.45
2009/04/23 17:04:38.8    -197    -92     96    218    238 244.8  25.2  34112  288.75 0854.45
2009/04/23 17:04:38.9    -243   -115     13    269    270 244.7   2.9  34108  288.70 0854.45
2009/04/23 17:04:39.0    -192    -75    -98    207    229 248.7 -31.6  34116  288.84 0854.45
2009/04/23 17:04:39.1    -273    -48   -163    278    322 259.9 -37.5  34118  288.85 0854.45
2009/04/23 17:04:39.2    -211   -116    -84    241    255 241.1 -24.3  34112  288.76 0854.45
2009/04/23 17:04:39.3    -158    -63      8    171    172 248.3   2.8  34124  288.97 0854.45
2009/04/23 17:04:39.4    -420   -140      9    443    444 251.5   1.2  34122  288.94 0854.45
2009/04/23 17:04:39.5    -260   -395    -72    474    480 213.4  -8.7  34128  289.03 0854.45
2009/04/23 17:04:39.6    -117   -576    -22    588    589 191.5  -2.2  34116  288.83 0854.45
2009/04/23 17:04:39.7    -262   -511   -204    575    611 207.2 -19.6  34088  288.36 0854.45
2009/04/23 17:04:39.8    -178   -384     -6    424    425 204.9  -0.9  34104  288.61 0854.45
2009/04/23 17:04:39.9    -268   -365     -4    453    454 216.3  -0.6  34100  288.56 0854.45
2009/04/23 17:04:40.0    -219   -538     64    582    586 202.2   6.4  34096  288.49 0854.45
2009/04/23 17:04:40.1    -302   -609   -195    680    708 206.4 -16.0  34062  287.91 0854.45
2009/04/23 17:04:40.2    -111   -638   -100    648    656 189.9  -8.8  34066  287.98 0854.45
2009/04/23 17:04:40.3    -315   -631    -89    706    712 206.5  -7.2  34078  288.17 0854.45
2009/04/23 17:04:40.4    -395   -607     67    725    729 213.1   5.3  34094  288.44 0854.45
2009/04/23 17:04:40.5    -259   -422    -90    496    505 211.5 -10.3  34086  288.32 0854.45
2009/04/23 17:04:40.6     -68   -357    216    364    423 190.9  33.5  34104  288.61 0854.47
2009/04/23 17:04:40.7    -284   -301    168    414    446 223.3  23.2  34106  288.67 0854.47
2009/04/23 17:04:40.8    -345   -176     70    388    395 242.9  10.2  34122  288.94 0854.47
2009/04/23 17:04:40.9    -218   -217     48    308    312 225.2   9.0  34100  288.56 0854.47
2009/04/23 17:04:41.0    -287    -31    103    289    306 263.8  20.2  34108  288.68 0854.47
2009/04/23 17:04:41.1    -399   -100     45    412    415 255.9   6.4  34134  289.14 0854.47
2009/04/23 17:04:41.2    -456   -136    152    476    500 253.4  17.8  34126  288.98 0854.47
2009/04/23 17:04:41.3    -229   -357      6    425    426 212.8   0.9  34104  288.63 0854.47
2009/04/23 17:04:41.4    -303   -284    -74    416    423 226.9 -10.1  34112  288.75 0854.47
2009/04/23 17:04:41.5    -243   -262     27    358    359 222.8   4.4  34100  288.54 0854.47
2009/04/23 17:04:41.6    -199   -310    135    369    392 212.7  21.0  34110  288.74 0854.47
2009/04/23 17:04:41.7    -303   -322     95    443    454 223.3  12.2  34100  288.55 0854.47
2009/04/23 17:04:41.8    -388    -25     -9    389    390 266.2  -1.4  34076  288.15 0854.47
2009/04/23 17:04:41.9    -520    -51     26    523    524 264.3   2.9  34108  288.70 0854.47
2009/04/23 17:04:42.0    -398    -80    -27    406    407 258.5  -3.9  34116  288.83 0854.47
2009/04/23 17:04:42.1    -343   -198    -94    397    409 240.0 -13.4  34082  288.24 0854.47
2009/04/23 17:04:42.3    -365    -85    181    375    416 256.8  27.7  34108  288.70 0854.47
2009/04/23 17:04:42.3    -491     78     60    498    502 279.1   6.9  34116  288.81 0854.47
2009/04/23 17:04:42.4    -822   -171    -32    840    841 258.2  -2.2  34124  288.95 0854.47
2009/04/23 17:04:42.6    -445   -264     60    518    522 239.3   6.7  34110  288.74 0854.47
2009/04/23 17:04:42.7    -465   -333    -53    572    575 234.4  -5.3  34102  288.58 0854.48
2009/04/23 17:04:42.8    -389   -169    198    425    468 246.5  26.6  34128  289.02 0854.48
2009/04/23 17:04:42.8    -461    -56    140    465    486 263.0  16.8  34134  289.12 0854.48
2009/04/23 17:04:43.0    -400    -99     20    413    414 256.1   2.9  34146  289.33 0854.48
2009/04/23 17:04:43.1    -302    -24     15    304    305 265.4   2.9  34136  289.15 0854.48
2009/04/23 17:04:43.2    -238    -40    -67    242    252 260.4 -15.5  34138  289.20 0854.48
2009/04/23 17:04:43.3    -245   -121    -74    274    284 243.6 -15.2  34140  289.22 0854.48
2009/04/23 17:04:43.4    -377     17   -117    378    395 272.6 -22.2  34140  289.23 0854.48
2009/04/23 17:04:43.5    -439    147   -292    464    548 288.6 -39.6  34126  289.01 0854.48
2009/04/23 17:04:43.6    -536     74   -342    542    640 277.9 -39.7  34136  289.17 0854.48
2009/04/23 17:04:43.7    -600     84   -345    607    698 278.0 -36.6  34102  288.58 0854.48
2009/04/23 17:04:43.8    -427     64   -400    432    588 278.6 -52.0  34114  288.79 0854.48
2009/04/23 17:04:43.9    -272    375   -235    464    520 324.1 -33.3  34102  288.59 0854.48
2009/04/23 17:04:44.0     -94    -26   -173     98    198 254.1 -72.7  34110  288.72 0854.48
2009/04/23 17:04:44.1     168     18   -131    170    214  83.6 -46.0  34104  288.62 0854.48
2009/04/23 17:04:44.2     101     78   -114    128    171  52.3 -50.8  34122  288.92 0854.48
2009/04/23 17:04:44.3     143     -3   -102    144    176  91.3 -43.7  34116  288.82 0854.48
2009/04/23 17:04:44.4     160    -62   -148    172    226 111.3 -49.5  34116  288.84 0854.48
2009/04/23 17:04:44.5     204    -13   -109    205    232  93.7 -35.0  34106  288.67 0854.48
2009/04/23 17:04:44.6     248     16    -47    249    254  86.1 -10.9  34104  288.61 0854.48
2009/04/23 17:04:44.7     123    364    180    385    425  18.7  27.1  34092  288.41 0854.48
2009/04/23 17:04:44.8     236    276    269    364    452  40.6  40.0  34094  288.46 0854.48
2009/04/23 17:04:44.9    -227    390    108    452    465 329.8  13.5  34106  288.65 0854.48
2009/04/23 17:04:45.0      87    239    319    255    408  20.1  57.3  34102  288.60 0854.48
2009/04/23 17:04:45.1     -11     95    277     96    293 353.3  80.3  34126  288.98 0854.48
2009/04/23 17:04:45.2     228    -69    100    239    259 106.8  23.8  34100  288.54 0854.48
2009/04/23 17:04:45.3     111    -22    222    114    249 101.5  70.8  34118  288.86 0854.48
2009/04/23 17:04:45.4     137    166     18    216    217  39.4   4.9  34092  288.43 0854.48
2009/04/23 17:04:45.5      -1    -14    148     15    148 184.4  90.0  34114  288.79 0854.48
2009/04/23 17:04:45.6      63    -68    247     93    263 137.2  78.4  34112  288.75 0854.48
2009/04/23 17:04:45.7      29   -114    256    118    281 165.3  73.8  34126  288.98 0854.48
2009/04/23 17:04:45.8      -4   -104    219    105    242 182.2  72.7  34112  288.77 0854.48
2009/04/23 17:04:45.9     -17     54    174     57    183 341.7  81.0  34108  288.69 0854.48
2009/04/23 17:04:46.0     -21   -103    240    106    262 191.5  74.9  34110  288.74 0854.48
2009/04/23 17:04:46.1    -212   -128    203    248    320 238.9  43.5  34102  288.58 0854.48
2009/04/23 17:04:46.2    -191    167    112    254    277 311.1  25.2  34106  288.65 0854.48
2009/04/23 17:04:46.3    -309    243    148    394    420 308.1  21.6  34106  288.67 0854.48
2009/04/23 17:04:46.4    -344    146    156    374    405 293.1  24.1  34100  288.54 0854.48
2009/04/23 17:04:46.5    -234    139    146    273    309 300.7  30.3  34100  288.54 0854.48
2009/04/23 17:04:46.6    -184    222    131    289    317 320.3  26.2  34096  288.49 0854.48
2009/04/23 17:04:46.7    -226    135     92    264    279 300.9  20.0  34098  288.53 0854.49
2009/04/23 17:04:46.8    -211    383    141    438    461 331.2  17.8  34122  288.92 0854.49
2009/04/23 17:04:46.9    -317    377   -153    493    516 319.9 -22.3  34094  288.47 0854.49
2009/04/23 17:04:47.0    -173    595    106    620    629 343.7   9.7  34132  289.09 0854.49
2009/04/23 17:04:47.1     -90    536      9    544    545 350.4   1.0  34128  289.02 0854.49
2009/04/23 17:04:47.2     -32    412    139    414    437 355.5  18.6  34136  289.17 0854.49
2009/04/23 17:04:47.3    -109    599     67    609    613 349.7   6.4  34084  288.27 0854.49
2009/04/23 17:04:47.4    -148    446    202    470    511 341.6  24.8  34116  288.84 0854.49
2009/04/23 17:04:47.5    -164    312    265    353    441 332.3  40.7  34132  289.09 0854.49
2009/04/23 17:04:47.6    -144    381    262    408    484 339.2  35.7  34132  289.09 0854.49
2009/04/23 17:04:47.7     -32    423    242    425    489 355.6  32.3  34138  289.20 0854.49
2009/04/23 17:04:47.8      81    569    295    575    646   8.1  29.4  34152  289.43 0854.49
2009/04/23 17:04:47.9      25    581    399    582    705   2.5  37.8  34156  289.49 0854.49
2009/04/23 17:04:48.0    -103    485      7    496    497 348.0   0.9  34190  290.08 0854.49
2009/04/23 17:04:48.1      46    651   -215    653    687   4.1 -23.3  34236  290.87 0854.49
2009/04/23 17:04:48.2     409    504   -371    650    748  39.1 -36.7  34212  290.47 0854.49
2009/04/23 17:04:48.3     655    323   -438    731    852  63.7 -38.1  34196  290.18 0854.49
2009/04/23 17:04:48.4     545   -280   -445    613    757 117.2 -43.9  34148  289.37 0854.49
2009/04/23 17:04:48.5     292   -247   -498    383    628 130.2 -63.1  34092  288.41 0854.49
2009/04/23 17:04:48.6     145   -271   -197    308    365 151.7 -40.0  34086  288.33 0854.49
2009/04/23 17:04:48.7      59    790    215    793    822   4.3  15.2  34090  288.38 0854.50
2009/04/23 17:04:48.8    -378    480    187    612    641 321.8  17.0  34090  288.37 0854.50
2009/04/23 17:04:48.9    -352    433    206    559    595 320.9  21.0  34074  288.12 0854.50
2009/04/23 17:04:49.0    -824     43    -59    826    828 273.0  -4.1  34070  288.06 0854.50
2009/04/23 17:04:49.1    -823    -81   -228    828    859 264.3 -15.4  34100  288.56 0854.50
2009/04/23 17:04:49.2    -418   -189    137    459    479 245.7  16.6  34090  288.39 0854.50
2009/04/23 17:04:49.3    -108   -128    218    168    275 220.3  58.5  34100  288.54 0854.50
2009/04/23 17:04:49.4    -550   -710    260    899    936 217.8  16.1  34100  288.55 0854.50
2009/04/23 17:04:49.5    -499   -584    280    769    818 220.5  20.9  34118  288.85 0854.50
2009/04/23 17:04:49.6    -444   -422    124    613    626 226.4  11.5  34104  288.62 0854.50
2009/04/23 17:04:49.7    -412   -644    205    765    792 212.6  15.0  34144  289.29 0854.50
2009/04/23 17:04:49.8    -340   -364    223    499    546 223.0  25.7  34080  288.23 0854.50
2009/04/23 17:04:49.9    -142    -84    109    165    197 239.4  36.7  34110  288.72 0854.50
2009/04/23 17:04:50.0    -369    -12    128    370    392 268.0  19.2  34100  288.57 0854.50
2009/04/23 17:04:50.1    -399   -192    166    443    473 244.3  21.5  34116  288.83 0854.50
2009/04/23 17:04:50.2    -113    138    350    179    393 320.6  71.0  34132  289.11 0854.50
2009/04/23 17:04:50.3    -366    522    361    638    733 324.9  32.1  34116  288.84 0854.50
2009/04/23 17:04:50.4    -679     87    363    685    775 277.4  30.2  34122  288.92 0854.50
2009/04/23 17:04:50.5    -291    -84    263    304    401 253.8  45.4  34128  289.03 0854.50
2009/04/23 17:04:50.6    -298    252    187    391    433 310.2  27.3  34120  288.90 0854.50
2009/04/23 17:04:50.7    -223    260     84    343    354 319.4  13.8  34126  288.98 0854.51
2009/04/23 17:04:50.8    -232    461    -66    517    522 333.3  -7.3  34120  288.91 0854.51
2009/04/23 17:04:50.9    -263    756    -81    801    806 340.8  -5.8  34096  288.50 0854.51
2009/04/23 17:04:51.0    -123    677     45    689    691 349.7   3.8  34096  288.50 0854.51
2009/04/23 17:04:51.1    -275    499    -27    570    571 331.1  -2.8  34104  288.63 0854.51
2009/04/23 17:04:51.2    -107    418     37    432    434 345.6   5.0  34104  288.61 0854.51
2009/04/23 17:04:51.3     -80    398     86    406    416 348.5  12.0  34104  288.63 0854.51
2009/04/23 17:04:51.4      71    515    116    520    533   7.9  12.6  34132  289.11 0854.51
2009/04/23 17:04:51.5     -75    599    179    604    631 352.8  16.5  34136  289.15 0854.51
2009/04/23 17:04:51.6    -265    427    175    503    533 328.1  19.2  34134  289.13 0854.51
2009/04/23 17:04:51.7    -246    460    213    522    563 331.9  23.5  34132  289.09 0854.51
2009/04/23 17:04:51.8    -303    365    166    475    503 320.4  20.0  34124  288.96 0854.51
2009/04/23 17:04:51.9    -253    507    101    567    577 333.5  10.1  34124  288.95 0854.51
2009/04/23 17:04:52.0    -235    450    106    508    520 332.4  11.8  34136  289.17 0854.51
2009/04/23 17:04:52.1    -136    416    177    438    472 341.9  23.2  34152  289.44 0854.51
2009/04/23 17:04:52.2     -27    482     67    483    488 356.8   8.0  34198  290.23 0854.51
2009/04/23 17:04:52.3    -127    442    -58    460    464 344.0  -7.2  34154  289.46 0854.51
2009/04/23 17:04:52.4     -77    379    189    387    430 348.5  28.1  34140  289.22 0854.51
2009/04/23 17:04:52.5      59    409    144    414    439   8.2  19.2  34172  289.77 0854.51
2009/04/23 17:04:52.6     112    548    180    560    589  11.6  17.8  34170  289.73 0854.51
2009/04/23 17:04:52.7     227    762    -37    796    798  16.6  -2.7  34162  289.59 0854.52
2009/04/23 17:04:52.8     155    642    -30    661    662  13.6  -2.6  34114  288.78 0854.52
2009/04/23 17:04:52.9     390    340    -80    518    525  48.9  -8.8  34212  290.45 0854.52
2009/04/23 17:04:53.0     735    468    244    872    906  57.5  15.7  34212  290.44 0854.52
2009/04/23 17:04:53.1     876    337    123    939    947  68.9   7.5  34170  289.73 0854.52
2009/04/23 17:04:53.2     819    573    243   1000   1030  55.0  13.7  34100  288.55 0854.52
2009/04/23 17:04:53.3     635    594   -305    870    921  46.9 -24.5  34134  289.12 0854.52
2009/04/23 17:04:53.4     545    517   -260    752    796  46.5 -19.1  34130  289.07 0854.52
2009/04/23 17:04:53.5     626    444   -116    768    777  54.6  -8.6  34110  288.71 0854.52
2009/04/23 17:04:53.6     627    445     65    770    774  54.6   4.9  34086  288.31 0854.52
2009/04/23 17:04:53.7     379    528    -60    651    655  35.7  -5.3  34096  288.49 0854.53
2009/04/23 17:04:53.8     116    705     -7    715    716   9.4  -0.6  34076  288.15 0854.53
2009/04/23 17:04:53.9     547    646     64    847    850  40.3   4.4  34066  287.97 0854.53
2009/04/23 17:04:54.0     641    650     11    913    914  44.6   0.7  34090  288.38 0854.53
2009/04/23 17:04:54.1     685    366     82    777    782  61.9   6.1  34078  288.19 0854.53
2009/04/23 17:04:54.2     740    302    192    800    823  67.8  13.5  34082  288.25 0854.53
2009/04/23 17:04:54.3     552    258    146    610    628  64.9  13.5  34084  288.28 0854.53
2009/04/23 17:04:54.4     457    454     65    645    649  45.2   5.8  34084  288.28 0854.53
2009/04/23 17:04:54.5     601    207     -7    636    637  70.9  -0.7  34078  288.20 0854.53
2009/04/23 17:04:54.6     454     48     -2    457    458  83.9  -0.3  34088  288.34 0854.53
2009/04/23 17:04:54.7     464    -97    212    475    520 101.9  25.7  34078  288.20 0854.53
2009/04/23 17:04:54.8     213    142     32    257    260  56.3   7.1  34072  288.07 0854.53
2009/04/23 17:04:54.9     179    157    252    239    347  48.7  51.9  34088  288.36 0854.53
2009/04/23 17:04:55.0     322    148    118    355    375  65.3  18.4  34086  288.33 0854.53
2009/04/23 17:04:55.1     365      6    251    366    443  89.0  37.6  34090  288.39 0854.53
2009/04/23 17:04:55.2     361     41    193    364    412  83.5  30.2  34090  288.40 0854.53
2009/04/23 17:04:55.3     512    141    115    532    545  74.6  12.3  34086  288.33 0854.53
2009/04/23 17:04:55.4     411    202    183    459    494  63.8  23.0  34082  288.25 0854.53
2009/04/23 17:04:55.5     378    243    296    450    538  57.2  36.5  34076  288.15 0854.53
2009/04/23 17:04:55.6     563    106    157    574    596  79.3  15.3  34096  288.48 0854.53
2009/04/23 17:04:55.7     669     27    -26    670    671  87.7  -2.3  34102  288.60 0854.54
2009/04/23 17:04:55.8     483    161     32    510    512  71.6   3.6  34116  288.84 0854.54
2009/04/23 17:04:55.9     461    -64     63    466    471  98.0   7.8  34136  289.18 0854.54
2009/04/23 17:04:56.0     416    -24     93    417    428  93.4  12.6  34142  289.27 0854.54
2009/04/23 17:04:56.1     481    -56    230    485    536  96.7  27.2  34138  289.19 0854.54
2009/04/23 17:04:56.2     271     20     31    272    274  85.6   6.7  34144  289.31 0854.54
2009/04/23 17:04:56.3     369    -32    313    371    485  95.1  44.3  34140  289.24 0854.54
2009/04/23 17:04:56.4     195    -22    297    197    356  96.6  63.4  34152  289.44 0854.54
2009/04/23 17:04:56.5      84      0    264     85    277  90.0  81.7  34172  289.77 0854.54
2009/04/23 17:04:56.6     -47    127    182    136    227 339.5  59.8  34158  289.55 0854.54
2009/04/23 17:04:56.7    -186    207    189    279    336 318.1  37.4  34142  289.27 0854.54
2009/04/23 17:04:56.8    -340    -93    109    353    370 254.7  17.2  34138  289.20 0854.54
2009/04/23 17:04:56.9    -369   -424    226    563    606 221.0  23.1  34144  289.30 0854.54
2009/04/23 17:04:57.0    -288   -456     61    540    544 212.3   6.5  34140  289.24 0854.54
2009/04/23 17:04:57.1    -166    -21    235    168    288 262.8  61.1  34154  289.46 0854.54
2009/04/23 17:04:57.2    -244    106    246    267    363 293.6  47.6  34132  289.10 0854.54
2009/04/23 17:04:57.3    -306    166    107    349    366 298.5  17.0  34130  289.06 0854.54
2009/04/23 17:04:57.4    -370    164    188    405    446 294.0  26.9  34124  288.95 0854.54
2009/04/23 17:04:57.5    -146    193    144    243    282 322.8  33.5  34120  288.90 0854.54
2009/04/23 17:04:57.6    -234    283    -31    368    370 320.4  -4.9  34120  288.88 0854.54
2009/04/23 17:04:57.7     -77   -110   -136    135    191 215.2 -54.3  34098  288.52 0854.56
2009/04/23 17:04:57.8    -186     42     37    191    195 283.0  11.0  34072  288.08 0854.56
2009/04/23 17:04:57.9    -242    394    -71    463    469 328.4  -8.8  34126  289.01 0854.56
2009/04/23 17:04:58.0     -14    128     98    129    162 353.7  41.2  34116  288.84 0854.56
2009/04/23 17:04:58.1    -218    -57     98    226    246 255.4  25.1  34130  289.05 0854.56
2009/04/23 17:04:58.2    -283     49    -58    288    294 279.9 -11.5  34114  288.78 0854.56
2009/04/23 17:04:58.3    -460    -38   -156    462    488 265.2 -18.7  34118  288.86 0854.56
2009/04/23 17:04:58.4    -560   -320    -23    646    647 240.3  -2.1  34122  288.93 0854.56
2009/04/23 17:04:58.5    -860   -272   -203    903    926 252.4 -12.7  34082  288.26 0854.56
2009/04/23 17:04:58.6    -769   -404   -260    869    908 242.3 -16.7  34054  287.79 0854.56
2009/04/23 17:04:58.7    -732   -315   -251    797    836 246.7 -17.5  34054  287.79 0854.56
2009/04/23 17:04:58.8    -797   -221   -310    828    884 254.5 -26.0  34054  287.77 0854.56
2009/04/23 17:04:58.9    -616   -303   -287    687    744 243.8 -28.5  34102  288.59 0854.56
2009/04/23 17:04:59.0    -485   -397   -176    628    652 230.7 -20.3  34116  288.84 0854.56
2009/04/23 17:04:59.1    -527   -248   -189    583    612 244.8 -23.2  34152  289.42 0854.56
2009/04/23 17:04:59.2    -480   -162   -241    507    561 251.3 -31.7  34138  289.21 0854.56
2009/04/23 17:04:59.3    -370   -241   -156    442    468 236.9 -24.7  34136  289.17 0854.56
2009/04/23 17:04:59.4    -392    -79   -126    400    420 258.5 -17.5  34132  289.11 0854.56
2009/04/23 17:04:59.5    -285    -88    -97    299    315 252.7 -18.0  34098  288.53 0854.56
2009/04/23 17:04:59.6    -292   -148    -91    328    341 243.0 -15.5  34122  288.93 0854.56
2009/04/23 17:04:59.7    -356     22    -58    357    362 273.6  -9.3  34110  288.74 0854.56
2009/04/23 17:04:59.8    -472   -293    -18    556    557 238.1  -1.9  34120  288.91 0854.56
2009/04/23 17:04:59.9    -764   -228   -188    798    820 253.4 -13.3  34078  288.18 0854.56
2009/04/23 17:05:00.0    -930   -358   -314    997   1046 248.9 -17.5  34068  288.03 0854.56
2009/04/23 17:05:00.1   -1012   -114   -131   1019   1028 263.5  -7.4  34084  288.28 0854.56
2009/04/23 17:05:00.2    -491   -534    193    726    752 222.6  14.9  34104  288.63 0854.56
2009/04/23 17:05:00.3    -633   -492     40    802    804 232.2   2.9  34086  288.31 0854.56
2009/04/23 17:05:00.4    -672   -369   -422    767    875 241.2 -35.7  34074  288.12 0854.56
2009/04/23 17:05:00.5    -637   -344   -429    724    841 241.6 -37.8  34080  288.21 0854.56
2009/04/23 17:05:00.6    -504   -629   -235    807    840 218.7 -21.1  34092  288.43 0854.56
2009/04/23 17:05:00.7    -421   -575   -304    713    775 216.2 -28.9  34062  287.92 0854.56
2009/04/23 17:05:00.8    -733   -731    -40   1036   1037 225.1  -2.2  34088  288.35 0854.56
2009/04/23 17:05:00.9    -625   -750    127    977    986 219.8   7.4  34112  288.77 0854.56
2009/04/23 17:05:01.0    -676   -526     77    857    861 232.1   5.2  34098  288.53 0854.56
2009/04/23 17:05:01.1    -524   -451    144    692    707 229.3  11.8  34120  288.88 0854.56
2009/04/23 17:05:01.2    -381   -642    188    747    771 210.7  14.2  34106  288.67 0854.56
2009/04/23 17:05:01.3    -251   -538    165    594    617 205.0  15.6  34106  288.66 0854.56
2009/04/23 17:05:01.4    -242   -514     96    569    578 205.2   9.6  34094  288.44 0854.56
2009/04/23 17:05:01.5    -159   -294    291    335    443 208.4  45.5  34104  288.61 0854.56
2009/04/23 17:05:01.6    -104   -211    159    236    284 206.3  37.4  34114  288.78 0854.56
2009/04/23 17:05:01.7    -231   -471     28    525    526 206.1   3.1  34116  288.82 0854.55
2009/04/23 17:05:01.8    -196   -584     18    617    618 198.6   1.7  34102  288.59 0854.55
2009/04/23 17:05:01.9    -214   -591     -4    629    630 200.0  -0.4  34108  288.69 0854.55
2009/04/23 17:05:02.0    -370   -500    192    623    653 216.5  17.2  34106  288.67 0854.55
2009/04/23 17:05:02.1    -187   -187    165    265    312 225.0  35.5  34112  288.75 0854.55
2009/04/23 17:05:02.2    -157   -371     87    403    413 202.9  12.3  34104  288.63 0854.55
2009/04/23 17:05:02.3     -93   -589     85    597    604 189.0   8.1  34098  288.53 0854.55
2009/04/23 17:05:02.4    -209   -770    -57    798    800 195.2  -4.1  34104  288.63 0854.55
2009/04/23 17:05:02.5    -316   -666   -145    738    753 205.4 -11.1  34102  288.58 0854.55
2009/04/23 17:05:02.6     -75   -656   -179    661    686 186.6 -15.2  34124  288.95 0854.55
2009/04/23 17:05:02.7     -76   -694    -80    699    704 186.3  -6.6  34130  289.06 0854.55
2009/04/23 17:05:02.8     -78   -628     38    633    635 187.1   3.5  34136  289.16 0854.55
2009/04/23 17:05:02.9    -110   -551     87    562    569 191.3   8.8  34134  289.14 0854.55
2009/04/23 17:05:03.0     -13   -494     90    495    504 181.6  10.4  34136  289.17 0854.55
2009/04/23 17:05:03.1     103   -329    170    345    384 162.5  28.0  34142  289.25 0854.55
2009/04/23 17:05:03.2     -31   -512     29    513    514 183.5   3.3  34126  289.01 0854.55
2009/04/23 17:05:03.3    -136   -455     33    476    478 196.7   4.0  34126  288.98 0854.55
2009/04/23 17:05:03.4      -5   -272    182    273    328 181.1  36.7  34132  289.09 0854.55
2009/04/23 17:05:03.5      27   -164    136    167    215 170.4  43.7  34134  289.13 0854.55
2009/04/23 17:05:03.6      23   -319    277    320    423 175.8  45.2  34154  289.48 0854.55
2009/04/23 17:05:03.7     180   -411     72    449    455 156.3   9.2  34148  289.36 0854.54
2009/04/23 17:05:03.8      42   -405    -39    408    411 174.0  -5.6  34138  289.19 0854.54
2009/04/23 17:05:03.9      57   -225     -6    233    234 165.7  -1.6  34140  289.22 0854.54
2009/04/23 17:05:04.0     -18    -61    -99     64    117 196.9 -69.0  34138  289.19 0854.54
2009/04/23 17:05:04.1      69     73    -34    101    107  43.3 -19.1  34146  289.35 0854.54
2009/04/23 17:05:04.2     145    -63     35    159    163 113.5  12.6  34152  289.43 0854.54
2009/04/23 17:05:04.3     292    -68    116    300    321 103.2  22.2  34146  289.32 0854.54
2009/04/23 17:05:04.4     280    -93     46    296    300 108.4   9.0  34150  289.39 0854.54
2009/04/23 17:05:04.5     291   -116     -6    314    315 111.8  -1.2  34128  289.03 0854.54
2009/04/23 17:05:04.6     339   -117    163    359    394 109.1  26.2  34134  289.13 0854.54
2009/04/23 17:05:04.7     268     44    219    272    349  80.5  43.1  34156  289.49 0854.54
2009/04/23 17:05:04.8     149     62    199    162    256  67.2  56.4  34158  289.53 0854.54
2009/04/23 17:05:04.9     129    -42    196    136    238 108.2  61.8  34184  289.99 0854.54
2009/04/23 17:05:05.0      41     57    149     71    165  36.1  72.7  34184  289.97 0854.54
2009/04/23 17:05:05.1     -42     45     45     62     76 316.7  39.7  34156  289.50 0854.54
2009/04/23 17:05:05.2    -188   -120    150    224    269 237.4  37.0  34120  288.90 0854.54
2009/04/23 17:05:05.3    -381     98     91    394    405 284.5  13.1  34112  288.77 0854.54
2009/04/23 17:05:05.4     -38    272    181    275    329 352.0  36.4  34118  288.85 0854.54
2009/04/23 17:05:05.5     394     18    371    395    541  87.3  48.0  34116  288.81 0854.54
2009/04/23 17:05:05.6     208     86    277    226    357  67.6  56.8  34122  288.92 0854.54
2009/04/23 17:05:05.7     444    169    233    476    529  69.2  28.0  34094  288.46 0854.49
2009/04/23 17:05:05.8     488    207    292    531    605  67.0  31.3  34084  288.27 0854.49
2009/04/23 17:05:05.9     503    143    198    524    560  74.1  21.7  34102  288.60 0854.49
2009/04/23 17:05:06.0     829    228     10    860    861  74.6   0.7  34096  288.48 0854.49
2009/04/23 17:05:06.1     754    247    110    794    802  71.9   7.9  34084  288.27 0854.49
2009/04/23 17:05:06.2     112    339    346    358    497  18.3  49.0  34118  288.87 0854.49
2009/04/23 17:05:06.3     351    509    338    619    705  34.6  31.0  34124  288.97 0854.49
2009/04/23 17:05:06.4     576    511    165    771    789  48.4  12.1  34108  288.68 0854.49
2009/04/23 17:05:06.5      73    176    392    191    436  22.5  72.1  34130  289.06 0854.49
2009/04/23 17:05:06.6     520    246     49    576    579  64.6   4.9  34068  288.00 0854.49
2009/04/23 17:05:06.7     639    386    -87    747    753  58.8  -6.7  34060  287.89 0854.49
2009/04/23 17:05:06.8     786    373     16    870    871  64.6   1.1  34088  288.34 0854.49
2009/04/23 17:05:06.9     701    403   -133    809    821  60.1  -9.4  34122  288.92 0854.49
2009/04/23 17:05:07.0      98     57    239    114    264  59.8  72.8  34184  289.97 0854.49
2009/04/23 17:05:07.1    -242    455    411    516    659 332.0  42.7  34140  289.23 0854.49
2009/04/23 17:05:07.2     439    213    128    488    505  64.1  14.7  34188  290.06 0854.49
2009/04/23 17:05:07.3     247    136     55    283    289  61.2  11.0  34186  290.00 0854.49
2009/04/23 17:05:07.4     383    139     92    408    419  70.0  12.8  34108  288.68 0854.49
2009/04/23 17:05:07.5     519    244     32    574    575  64.8   3.2  34102  288.58 0854.49
2009/04/23 17:05:07.6     492    136     63    511    515  74.5   7.1  34090  288.37 0854.49
2009/04/23 17:05:07.7     380    116     92    398    409  73.0  13.1  34074  288.12 0854.50
2009/04/23 17:05:07.9     490    189     65    526    531  68.9   7.1  34110  288.72 0854.50
2009/04/23 17:05:07.9     377    165    124    412    431  66.3  16.8  34140  289.22 0854.50
2009/04/23 17:05:08.0     291     68      3    299    300  76.7   0.7  34096  288.49 0854.50
2009/04/23 17:05:08.1     178    143    110    229    254  51.1  27.3  34106  288.65 0854.50
2009/04/23 17:05:08.2     168    266     45    315    319  32.3   8.2  34168  289.70 0854.50
2009/04/23 17:05:08.4      17    129     78    131    152   7.6  33.5  34148  289.38 0854.50
2009/04/23 17:05:08.5       1    113     40    114    120   0.9  20.0  34154  289.48 0854.50
2009/04/23 17:05:08.6     -32     54     97     63    115 329.3  64.6  34176  289.85 0854.50
2009/04/23 17:05:08.6      -7    138    -78    139    159 356.9 -36.3  34140  289.24 0854.50
2009/04/23 17:05:08.7     145    111    -60    183    193  52.5 -18.3  34162  289.62 0854.50
2009/04/23 17:05:08.9     281    211   -109    352    369  53.1 -17.2  34172  289.76 0854.50
2009/04/23 17:05:09.0     198    239      6    311    312  39.6   1.1  34178  289.88 0854.50
2009/04/23 17:05:09.1     258    117     42    284    288  65.6   8.5  34192  290.10 0854.50
2009/04/23 17:05:09.2     141    156     18    211    212  42.1   5.0  34168  289.70 0854.50
2009/04/23 17:05:09.3     124    197    -30    233    235  32.3  -7.5  34176  289.85 0854.50
2009/04/23 17:05:09.4      94    179    -59    203    212  27.9 -16.4  34182  289.96 0854.50
2009/04/23 17:05:09.5      70    162     51    177    185  23.4  16.3  34184  289.99 0854.50
2009/04/23 17:05:09.6     257    320     80    411    419  38.8  11.1  34152  289.43 0854.50
2009/04/23 17:05:09.7     227    358    176    424    459  32.4  23.9  34162  289.60 0854.50
2009/04/23 17:05:09.8     140    295    195    327    380  25.5  33.6  34152  289.42 0854.53
2009/04/23 17:05:09.9     216    203    227    297    373  46.9  41.4  34162  289.60 0854.53
2009/04/23 17:05:10.0     257    264    324    369    491  44.3  45.8  34164  289.63 0854.53
2009/04/23 17:05:10.1     414    177    302    451    542  66.8  37.0  34172  289.76 0854.53
2009/04/23 17:05:10.2     122    172    259    211    334  35.4  56.6  34174  289.80 0854.53
2009/04/23 17:05:10.3      35    111    214    117    243  17.4  68.9  34174  289.80 0854.53
2009/04/23 17:05:10.4      75    -24    246     79    258 108.2  81.7  34168  289.70 0854.53
2009/04/23 17:05:10.5     273    -15    266    274    381  93.3  49.1  34168  289.71 0854.53
2009/04/23 17:05:10.6     -63     35    238     73    248 298.8  82.5  34178  289.89 0854.53
2009/04/23 17:05:10.7     317     84    174    328    371  75.1  30.3  34184  289.98 0854.53
2009/04/23 17:05:10.8     337     71    298    345    455  78.1  45.4  34172  289.78 0854.53
2009/04/23 17:05:10.9     347     59    227    352    418  80.3  35.6  34204  290.33 0854.53
2009/04/23 17:05:11.0     302    218    226    373    436  54.1  34.0  34234  290.82 0854.53
2009/04/23 17:05:11.1     413     32    469    415    626  85.5  54.1  34174  289.82 0854.53
2009/04/23 17:05:11.2     585    -82    448    591    741  98.0  40.9  34120  288.90 0854.53
2009/04/23 17:05:11.3     499    -84    333    507    606  99.6  36.5  34150  289.41 0854.53
2009/04/23 17:05:11.4     639    -48    296    641    706  94.4  26.5  34132  289.09 0854.53
2009/04/23 17:05:11.5     533   -170    275    560    623 107.7  28.1  34118  288.86 0854.53
2009/04/23 17:05:11.6     436   -143    160    459    487 108.2  19.2  34140  289.23 0854.53
2009/04/23 17:05:11.7     512   -190    204    547    583 110.4  21.5  34126  289.00 0854.53
2009/04/23 17:05:11.8     371   -246    244    446    508 123.6  31.3  34138  289.20 0854.51
2009/04/23 17:05:11.9     326   -347    361    477    598 136.8  40.9  34114  288.79 0854.51
2009/04/23 17:05:12.0     223   -399    343    458    572 150.8  40.6  34144  289.29 0854.51
2009/04/23 17:05:12.1      98   -480    178    491    523 168.4  19.9  34176  289.84 0854.51
2009/04/23 17:05:12.2     268   -377    290    463    546 144.5  35.1  34132  289.09 0854.51
2009/04/23 17:05:12.3      43   -462    187    465    501 174.6  23.1  34152  289.45 0854.51
2009/04/23 17:05:12.4      19   -422    288    423    511 177.4  37.6  34116  288.81 0854.51
2009/04/23 17:05:12.5       0   -388    288    389    484 180.0  40.2  34116  288.82 0854.51
2009/04/23 17:05:12.6      26   -348    244    349    425 175.6  38.5  34124  288.97 0854.51
2009/04/23 17:05:12.7      72   -371    194    378    424 169.0  29.3  34114  288.78 0854.51
2009/04/23 17:05:12.8      17   -223    110    224    249 175.5  28.2  34110  288.71 0854.51
2009/04/23 17:05:12.9     160   -292    145    333    363 151.3  25.1  34122  288.93 0854.51
2009/04/23 17:05:13.0      -7   -421    195    422    464 181.0  26.6  34116  288.82 0854.51
2009/04/23 17:05:13.1     -36   -434    124    436    454 184.9  15.9  34112  288.75 0854.51
2009/04/23 17:05:13.2      29   -413     80    414    422 175.9  11.0  34114  288.78 0854.51
2009/04/23 17:05:13.3     -27   -496     28    497    498 183.2   3.3  34096  288.49 0854.51
2009/04/23 17:05:13.4     103   -412     28    425    426 165.9   3.8  34100  288.55 0854.51
2009/04/23 17:05:13.5       9   -457      1    458    459 178.8   0.2  34102  288.60 0854.51
2009/04/23 17:05:13.6     -15   -442     38    443    445 182.0   5.0  34112  288.77 0854.51
2009/04/23 17:05:13.7      23   -419     96    420    431 176.8  12.9  34104  288.63 0854.51
2009/04/23 17:05:13.8     -21   -484    122    485    501 182.5  14.2  34110  288.73 0854.46
2009/04/23 17:05:13.9     -68   -440    119    446    462 188.9  15.0  34118  288.87 0854.46
2009/04/23 17:05:14.0    -129   -448    145    467    490 196.1  17.3  34116  288.81 0854.46
2009/04/23 17:05:14.1    -127   -396     71    416    422 197.8   9.7  34112  288.75 0854.46
2009/04/23 17:05:14.2     -74   -327    -98    336    350 192.8 -21.2  34102  288.59 0854.46
2009/04/23 17:05:14.3    -125   -303   -110    328    345 202.5 -23.5  34120  288.88 0854.46
2009/04/23 17:05:14.4      66   -315   -116    322    343 168.1 -19.8  34110  288.71 0854.46
2009/04/23 17:05:14.5     152   -323     55    357    362 154.8   8.9  34106  288.66 0854.46
2009/04/23 17:05:14.6      88   -401    132    411    432 167.5  17.9  34102  288.58 0854.46
2009/04/23 17:05:14.7       1   -334     53    335    340 179.8   9.0  34104  288.64 0854.46
2009/04/23 17:05:14.8    -115   -236     90    263    279 206.1  18.9  34108  288.70 0854.42
2009/04/23 17:05:14.9      85   -213    112    230    255 158.1  27.8  34100  288.56 0854.42
2009/04/23 17:05:15.0     168   -196    130    259    289 139.5  28.5  34100  288.56 0854.42
2009/04/23 17:05:15.1     168   -186     20    251    252 137.9   4.6  34102  288.59 0854.42
2009/04/23 17:05:15.2     251   -173     11    306    307 124.6   2.1  34100  288.56 0854.42
2009/04/23 17:05:15.3     272   -266     32    381    383 134.4   4.9  34100  288.57 0854.42
2009/04/23 17:05:15.4     275   -356     25    450    451 142.3   3.3  34100  288.56 0854.42
2009/04/23 17:05:15.5     287   -284    114    404    420 134.7  15.8  34098  288.51 0854.42
2009/04/23 17:05:15.6     178   -277    129    330    354 147.3  22.5  34094  288.45 0854.42
2009/04/23 17:05:15.7      89   -294    108    308    326 163.1  20.0  34104  288.61 0854.42
2009/04/23 17:05:15.8     140   -230     26    270    272 148.6   5.7  34104  288.61 0854.42
2009/04/23 17:05:15.9     197   -209     72    288    297 136.7  14.2  34104  288.61 0854.42
2009/04/23 17:05:16.0     112   -183    172    215    275 148.6  42.7  34102  288.59 0854.42
2009/04/23 17:05:16.1     113   -308    222    329    396 159.8  37.3  34110  288.71 0854.42
2009/04/23 17:05:16.2      64   -292    264    300    399 167.5  45.9  34100  288.54 0854.42
2009/04/23 17:05:16.3      40   -260    129    264    293 171.1  27.8  34090  288.37 0854.42
2009/04/23 17:05:16.4      92   -266    116    282    304 160.9  23.6  34092  288.43 0854.42
2009/04/23 17:05:16.5     186   -269     16    328    329 145.3   2.9  34092  288.43 0854.42
2009/04/23 17:05:16.6     133   -337     52    363    367 158.4   8.2  34094  288.47 0854.42
2009/04/23 17:05:16.7      66   -443     96    448    459 171.5  12.2  34100  288.55 0854.42
2009/04/23 17:05:16.8      52   -530    156    533    556 174.3  16.3  34100  288.57 0854.39
2009/04/23 17:05:16.9      29   -473    239    474    530 176.4  28.8  34100  288.56 0854.39
2009/04/23 17:05:17.0     162   -452    106    481    493 160.3  12.5  34094  288.46 0854.39
2009/04/23 17:05:17.1     175   -464    112    497    510 159.3  12.8  34098  288.52 0854.39
2009/04/23 17:05:17.2      23   -586    144    587    605 177.7  13.8  34100  288.54 0854.39
2009/04/23 17:05:17.3      -2   -619    207    620    654 180.3  18.5  34104  288.62 0854.39
2009/04/23 17:05:17.4      71   -700     93    704    711 174.2   7.6  34110  288.73 0854.39
2009/04/23 17:05:17.5      21   -691    200    692    721 178.2  16.1  34114  288.78 0854.39
2009/04/23 17:05:17.6     -44   -574    189    576    607 184.4  18.2  34114  288.78 0854.39
2009/04/23 17:05:17.7     164   -625     45    647    649 165.3   4.0  34076  288.16 0854.39
2009/04/23 17:05:17.8     263   -583     32    640    641 155.7   2.9  34066  287.99 0854.39
2009/04/23 17:05:17.9     273   -520    118    588    600 152.3  11.4  34074  288.12 0854.39
2009/04/23 17:05:18.0     399   -638    -67    753    757 148.0  -5.1  34074  288.13 0854.39
2009/04/23 17:05:18.1     279   -514   -154    585    605 151.5 -14.8  34086  288.32 0854.39
2009/04/23 17:05:18.2     187   -744    -91    768    774 165.9  -6.8  34088  288.34 0854.39
2009/04/23 17:05:18.3     210   -682    -82    714    719 162.8  -6.6  34102  288.59 0854.39
2009/04/23 17:05:18.4     274   -618    -20    677    678 156.1  -1.7  34102  288.58 0854.39
2009/04/23 17:05:18.5     320   -602     46    682    684 152.0   3.9  34096  288.48 0854.39
2009/04/23 17:05:18.6     310   -592     18    669    670 152.4   1.6  34070  288.06 0854.39
2009/04/23 17:05:18.7     271   -575    -57    636    639 154.7  -5.2  34106  288.65 0854.39
2009/04/23 17:05:18.8     251   -585    -12    637    638 156.8  -1.2  34070  288.06 0854.37
2009/04/23 17:05:18.9     233   -649      8    690    691 160.2   0.7  34006  286.97 0854.37
2009/04/23 17:05:19.0     165   -680    115    700    710 166.3   9.3  34036  287.49 0854.37
2009/04/23 17:05:19.1     137   -567     61    584    588 166.4   6.0  34040  287.55 0854.37
2009/04/23 17:05:19.2      38   -413    -22    415    416 174.7  -3.1  34056  287.80 0854.37
2009/04/23 17:05:19.3     202   -484     -2    525    526 157.3  -0.3  34080  288.23 0854.37
2009/04/23 17:05:19.4     244   -614    -43    661    663 158.3  -3.7  34094  288.44 0854.37
2009/04/23 17:05:19.5     149   -585     30    604    605 165.7   2.9  34084  288.29 0854.37
2009/04/23 17:05:19.6      11   -577     49    578    581 178.9   4.9  34084  288.27 0854.37
2009/04/23 17:05:19.7     -36   -569     88    571    578 183.6   8.8  34078  288.17 0854.37
2009/04/23 17:05:19.8      58   -619    120    622    634 174.6  11.0  34068  288.01 0854.37
2009/04/23 17:05:19.9      25   -565    111    566    577 177.4  11.1  34072  288.09 0854.37
2009/04/23 17:05:20.0      77   -524     27    530    531 171.6   3.0  34074  288.13 0854.37
2009/04/23 17:05:20.1      20   -607     10    608    609 178.1   1.0  34060  287.87 0854.37
2009/04/23 17:05:20.2     190   -701     14    727    728 164.8   1.1  34022  287.22 0854.37
2009/04/23 17:05:20.3     190   -686     68    712    716 164.5   5.5  34026  287.32 0854.37
2009/04/23 17:05:20.4     164   -606    175    628    652 164.8  15.6  34032  287.42 0854.37
2009/04/23 17:05:20.5     146   -745    175    760    780 168.9  13.0  34020  287.19 0854.37
2009/04/23 17:05:20.6     139   -814    219    826    855 170.3  14.9  34044  287.62 0854.37
2009/04/23 17:05:20.7     160   -936    212    950    974 170.3  12.6  34026  287.30 0854.37
2009/04/23 17:05:20.8     112   -857    177    865    884 172.5  11.6  34048  287.66 0854.34
2009/04/23 17:05:20.9     187   -771     99    794    801 166.3   7.1  34020  287.19 0854.34
2009/04/23 17:05:21.0     389   -630    138    741    754 148.3  10.6  34034  287.43 0854.34
2009/04/23 17:05:21.1     309   -768     88    828    833 158.1   6.1  34048  287.69 0854.34
2009/04/23 17:05:21.2      77   -759     95    763    769 174.2   7.1  34038  287.50 0854.34
2009/04/23 17:05:21.3     -32   -835    213    836    863 182.2  14.3  34052  287.75 0854.34
2009/04/23 17:05:21.4      11   -767    131    768    780 179.1   9.7  34068  288.00 0854.34
2009/04/23 17:05:21.5      -1   -735    147    736    751 180.1  11.3  34046  287.65 0854.34
2009/04/23 17:05:21.6       1   -659    144    660    676 179.9  12.4  34050  287.70 0854.34
2009/04/23 17:05:21.7    -192   -743    -98    768    775 194.5  -7.3  34052  287.75 0854.34
2009/04/23 17:05:21.8     -43   -684      5    686    687 183.6   0.5  34054  287.77 0854.34
2009/04/23 17:05:21.9     144   -559    -65    578    582 165.5  -6.5  34054  287.78 0854.34
2009/04/23 17:05:22.0     272   -454     99    530    540 149.1  10.6  34050  287.70 0854.34
2009/04/23 17:05:22.1     305   -533   -107    615    625 150.2  -9.9  34058  287.86 0854.34
2009/04/23 17:05:22.2     443   -307    127    540    555 124.8  13.3  34062  287.91 0854.34
2009/04/23 17:05:22.3     210   -421    165    471    500 153.4  19.3  34062  287.90 0854.34
2009/04/23 17:05:22.4     211   -497    146    541    561 157.0  15.2  34054  287.79 0854.34
2009/04/23 17:05:22.5    -108   -252    -22    275    276 203.2  -4.6  34068  288.02 0854.34
2009/04/23 17:05:22.6      -6   -188    121    189    224 182.0  35.6  34062  287.91 0854.34
2009/04/23 17:05:22.7     -29   -182    161    185    245 189.1  45.6  34050  287.72 0854.34
2009/04/23 17:05:22.8     154   -260     15    303    304 149.3   2.9  34056  287.80 0854.33
2009/04/23 17:05:22.9     105   -445     39    458    460 166.7   4.9  34064  287.94 0854.33
2009/04/23 17:05:23.0      98   -359     72    373    380 164.7  11.0  34060  287.89 0854.33
2009/04/23 17:05:23.1     243   -339    331    418    533 144.4  42.3  34052  287.74 0854.33
2009/04/23 17:05:23.2      98   -297    374    313    487 161.7  56.0  34050  287.72 0854.33
2009/04/23 17:05:23.3      83   -348    235    358    428 166.6  36.3  34066  287.97 0854.33
2009/04/23 17:05:23.4      72   -717    182    721    744 174.2  14.2  34054  287.77 0854.33
2009/04/23 17:05:23.5      54   -534    273    537    602 174.2  29.2  34052  287.73 0854.33
2009/04/23 17:05:23.6    -244   -462    -11    523    524 207.9  -1.3  34046  287.64 0854.33
2009/04/23 17:05:23.7    -148   -237   -291    280    403 211.9 -55.6  34064  287.94 0854.33
2009/04/23 17:05:23.8     292   -171   -198    339    392 120.4 -37.3  34060  287.89 0854.33
2009/04/23 17:05:23.9     185   -176   -164    256    304 133.6 -40.0  34060  287.87 0854.33
2009/04/23 17:05:24.0      93   -301    -95    316    329 162.8 -21.7  34050  287.71 0854.33
2009/04/23 17:05:24.1     165   -367   -104    403    417 155.8 -14.5  34052  287.75 0854.33
2009/04/23 17:05:24.2     183   -172    -88    252    266 133.1 -24.3  34056  287.82 0854.33
2009/04/23 17:05:24.3     115      7   -101    116    153  86.1 -50.2  34064  287.96 0854.33
2009/04/23 17:05:24.4     181     92    -98    204    226  63.1 -31.7  34058  287.84 0854.33
2009/04/23 17:05:24.5     258    245   -115    356    374  46.5 -22.9  34050  287.72 0854.33
2009/04/23 17:05:24.6     244    160    -92    292    307  56.7 -17.6  34058  287.85 0854.33
2009/04/23 17:05:24.7     365    262   -129    450    469  54.3 -16.0  34058  287.84 0854.33
2009/04/23 17:05:24.8     369    195      7    418    419  62.1   1.0  34050  287.72 0854.31
2009/04/23 17:05:24.9     304      9    -11    305    306  88.3  -2.2  34058  287.83 0854.31
2009/04/23 17:05:25.0     383     82     44    392    395  77.9   6.5  34056  287.81 0854.31
2009/04/23 17:05:25.1     431     57    186    435    473  82.4  24.6  34040  287.53 0854.31
2009/04/23 17:05:25.2     406    148    215    433    483  70.0  28.2  34052  287.76 0854.31
2009/04/23 17:05:25.3     450    124    211    467    512  74.5  26.0  34040  287.54 0854.31
2009/04/23 17:05:25.4     444     89    190    453    491  78.6  24.1  34048  287.69 0854.31
2009/04/23 17:05:25.5     300     50    203    305    366  80.5  36.9  34048  287.66 0854.31
2009/04/23 17:05:25.6     487     92     36    496    498  79.3   4.2  34048  287.68 0854.31
2009/04/23 17:05:25.7     428     86     91    437    447  78.6  11.8  34054  287.77 0854.31
2009/04/23 17:05:25.8     308    -66    171    316    359 102.2  30.8  34054  287.78 0854.31
2009/04/23 17:05:25.9     269    -86    121    283    307 107.8  24.6  34048  287.68 0854.31
2009/04/23 17:05:26.0      42   -116    136    124    184 159.9  52.5  34048  287.69 0854.31
2009/04/23 17:05:26.1      27     22    112     35    117  50.5  82.3  34050  287.72 0854.31
2009/04/23 17:05:26.2     442     97    394    453    600  77.6  45.5  34054  287.77 0854.31
2009/04/23 17:05:26.3     465    117    271    480    551  75.8  32.0  34050  287.72 0854.31
2009/04/23 17:05:26.4     249   -246    338    351    487 134.6  49.0  34060  287.87 0854.31
2009/04/23 17:05:26.5       8   -127    253    128    283 176.0  71.1  34068  288.02 0854.31
2009/04/23 17:05:26.6     255   -382    372    460    591 146.2  43.1  34050  287.70 0854.31
2009/04/23 17:05:26.7     244   -308    259    393    470 141.6  36.6  34056  287.80 0854.31
2009/04/23 17:05:26.8      13   -444    243    445    507 178.3  31.3  34056  287.80 0854.33
2009/04/23 17:05:26.9     113   -343    349    362    502 161.7  49.0  34068  288.01 0854.33
2009/04/23 17:05:27.0     241   -189    199    307    365 128.0  35.9  34068  288.00 0854.33
2009/04/23 17:05:27.1     355   -254    223    437    490 125.6  29.2  34056  287.81 0854.33
2009/04/23 17:05:27.2     206    -65     42    217    222 107.5  11.0  34064  287.96 0854.33
2009/04/23 17:05:27.3      10   -134    140    135    194 175.5  50.9  34070  288.04 0854.33
2009/04/23 17:05:27.4      -9   -121    112    122    165 184.4  47.7  34070  288.06 0854.33
2009/04/23 17:05:27.5     -12   -163     -2    164    165 184.2  -0.7  34070  288.06 0854.33
2009/04/23 17:05:27.6     -81   -155   -263    176    316 207.6 -67.6  34072  288.07 0854.33
2009/04/23 17:05:27.7      26   -185   -191    187    267 171.9 -55.1  34070  288.04 0854.33
2009/04/23 17:05:27.8      27   -216   -259    218    338 172.7 -60.2  34078  288.17 0854.33
2009/04/23 17:05:27.9      65   -144   -224    159    274 155.5 -65.5  34074  288.12 0854.33
2009/04/23 17:05:28.0     158   -193   -190    250    314 140.8 -45.6  34072  288.09 0854.33
2009/04/23 17:05:28.1     241    -53     34    247    250 102.6   8.0  34068  288.02 0854.33
2009/04/23 17:05:28.2     267   -161    145    312    344 121.1  26.9  34068  288.03 0854.33
2009/04/23 17:05:28.3     245   -200    130    317    342 129.3  23.5  34078  288.18 0854.33
2009/04/23 17:05:28.4      99   -407    370    419    558 166.3  45.9  34084  288.29 0854.33
2009/04/23 17:05:28.5     203   -684    408    714    822 163.5  32.3  34078  288.19 0854.33
2009/04/23 17:05:28.6     350   -367    354    508    619 136.3  38.4  34078  288.17 0854.33
2009/04/23 17:05:28.7     558   -223    140    602    619 111.8  13.1  34074  288.12 0854.33
2009/04/23 17:05:28.8     359   -470    345    592    685 142.6  32.8  34066  287.98 0854.38
2009/04/23 17:05:28.9      87   -509    173    517    546 170.3  18.6  34076  288.16 0854.38
2009/04/23 17:05:29.0      81   -292   -128    304    329 164.4 -28.6  34078  288.19 0854.38
2009/04/23 17:05:29.1     161   -252   -139    300    330 147.4 -31.0  34080  288.22 0854.38
2009/04/23 17:05:29.2     170   -219   -126    278    305 142.2 -30.6  34078  288.17 0854.38
2009/04/23 17:05:29.3     178   -152    -88    235    250 130.4 -25.4  34080  288.22 0854.38
2009/04/23 17:05:29.4     245    -93    -87    263    277 110.9 -23.8  34084  288.29 0854.38
2009/04/23 17:05:29.5     230    -40     -1    234    235  99.9  -0.3  34074  288.12 0854.38
2009/04/23 17:05:29.6     284    -14     -1    285    286  93.0  -0.3  34082  288.24 0854.38
2009/04/23 17:05:29.7     250     -3     26    251    253  90.8   6.0  34080  288.21 0854.38
2009/04/23 17:05:29.8     307    -92    123    321    343 106.8  22.2  34070  288.06 0854.38
2009/04/23 17:05:29.9     319     44    123    322    344  82.1  21.8  34076  288.16 0854.38
2009/04/23 17:05:30.0     141     86    197    166    257  58.7  55.6  34082  288.26 0854.38
2009/04/23 17:05:30.1      48   -259    216    264    341 169.4  43.6  34084  288.29 0854.38
2009/04/23 17:05:30.2     -16     60    160     63    171 344.9  77.6  34084  288.30 0854.38
2009/04/23 17:05:30.3     -86    131    190    157    246 326.6  56.3  34104  288.62 0854.38
2009/04/23 17:05:30.4      27      2    257     28    258  85.6  90.0  34096  288.48 0854.38
2009/04/23 17:05:30.5     -11    148    216    149    262 355.5  62.4  34092  288.42 0854.38
2009/04/23 17:05:30.6     -68    286    321    295    435 346.6  52.7  34098  288.52 0854.38
2009/04/23 17:05:30.7     -11    146    220    147    264 355.6  63.4  34100  288.57 0854.38
2009/04/23 17:05:30.8     165    101    352    194    401  58.5  68.9  34100  288.55 0854.39
2009/04/23 17:05:30.9     148    151    277    212    348  44.3  58.9  34088  288.36 0854.39
2009/04/23 17:05:31.0     275    274    219    389    446  45.1  31.9  34144  289.31 0854.39
2009/04/23 17:05:31.1     390    294    185    489    522  52.9  21.7  34170  289.73 0854.39
2009/04/23 17:05:31.2     452     76    204    459    502  80.4  25.7  34208  290.39 0854.39
2009/04/23 17:05:31.3     204      1    243    205    317  89.6  55.6  34160  289.56 0854.39
2009/04/23 17:05:31.4     275    -43    257    279    379  99.0  47.7  34162  289.60 0854.39
2009/04/23 17:05:31.5     334    -75    167    343    381 102.8  27.8  34156  289.50 0854.39
2009/04/23 17:05:31.6     131   -405    373    426    566 162.0  45.8  34056  287.82 0854.39
2009/04/23 17:05:31.7      13   -786    592    787    984 179.0  40.7  34050  287.72 0854.39
2009/04/23 17:05:31.8     305   -381    494    489    695 141.3  50.4  34034  287.45 0854.39
2009/04/23 17:05:31.9     188   -340    223    389    448 151.0  32.4  34046  287.65 0854.39
2009/04/23 17:05:32.0     260   -533    147    594    612 154.0  13.9  34048  287.68 0854.39
2009/04/23 17:05:32.1     216   -506     82    551    558 156.9   8.5  34054  287.79 0854.39
2009/04/23 17:05:32.2     452   -331    102    561    571 126.2  10.4  34110  288.72 0854.39
2009/04/23 17:05:32.3     442   -112    -75    457    464 104.3  -9.4  34108  288.68 0854.39
2009/04/23 17:05:32.4     496     -6   -176    497    528  90.7 -19.6  34110  288.74 0854.39
2009/04/23 17:05:32.5     393    -30     11    395    396  94.4   1.7  34156  289.52 0854.39
2009/04/23 17:05:32.6      62    -10     40     63     74  99.7  35.5  34098  288.52 0854.39
2009/04/23 17:05:32.7     124    -37    -26    130    133 106.9 -11.3  34098  288.52 0854.39
2009/04/23 17:05:32.8     171    -82     45    190    196 115.8  13.5  34104  288.64 0854.40
2009/04/23 17:05:32.9     188    -68    107    200    226 110.0  30.6  34100  288.55 0854.40
2009/04/23 17:05:33.0     163   -143     28    217    219 131.3   7.5  34088  288.36 0854.40
2009/04/23 17:05:33.1     412   -488    219    639    676 139.8  18.9  34046  287.63 0854.40
2009/04/23 17:05:33.3     398   -298    292    498    577 126.9  33.0  34042  287.57 0854.40
2009/04/23 17:05:33.3     656   -190   -107    684    693 106.2  -8.9  34064  287.95 0854.40
2009/04/23 17:05:33.4     613   -392   -143    728    743 122.6 -11.1  34036  287.47 0854.40
2009/04/23 17:05:33.5     248   -575    110    627    637 156.7  10.0  34048  287.66 0854.40
2009/04/23 17:05:33.6     200   -355    148    408    434 150.6  20.9  34036  287.46 0854.40
2009/04/23 17:05:33.7      96   -409    259    421    494 166.7  34.5  34054  287.78 0854.40
2009/04/23 17:05:33.8      80   -594    215    600    637 172.3  20.6  34052  287.76 0854.40
2009/04/23 17:05:34.0     -69   -535    158    540    563 187.4  16.4  34044  287.62 0854.40
2009/04/23 17:05:34.0    -207   -532    -45    571    573 201.3  -4.6  34044  287.60 0854.40
2009/04/23 17:05:34.1    -112   -458    -20    472    473 193.8  -2.5  34052  287.76 0854.40
2009/04/23 17:05:34.2    -101   -527   -188    537    568 190.9 -24.4  34058  287.86 0854.40
2009/04/23 17:05:34.3     -25   -563   -193    564    597 182.6 -18.9  34050  287.71 0854.40
2009/04/23 17:05:34.4     412   -378   -194    560    592 132.6 -24.3  34056  287.80 0854.40
2009/04/23 17:05:34.5     614   -344   -217    705    737 119.3 -22.1  34048  287.66 0854.40
2009/04/23 17:05:34.6     700   -563    171    899    916 128.8  10.8  34050  287.72 0854.40
2009/04/23 17:05:34.7     421   -439    317    609    686 136.2  29.6  34044  287.62 0854.40
2009/04/23 17:05:34.8     361   -259    300    445    536 125.7  37.2  34050  287.71 0854.39
2009/04/23 17:05:34.9     437   -258   -100    508    518 120.6 -11.2  34056  287.81 0854.39
2009/04/23 17:05:35.1     546    -66   -201    551    586  97.0 -25.4  34064  287.95 0854.39
2009/04/23 17:05:35.1     390   -315   -114    502    515 129.0 -12.9  34062  287.91 0854.39
2009/04/23 17:05:35.3     436   -316    -21    539    540 126.0  -2.2  34058  287.86 0854.39
2009/04/23 17:05:35.4     208   -223    143    306    337 137.0  27.0  34056  287.82 0854.39
2009/04/23 17:05:35.4     206   -270    175    340    382 142.6  29.3  34060  287.89 0854.39
2009/04/23 17:05:35.6     142   -158    184    213    281 138.1  45.6  34062  287.90 0854.39
2009/04/23 17:05:35.7      44   -527    267    530    593 175.1  28.8  34058  287.85 0854.39
2009/04/23 17:05:35.8     117   -502    161    516    541 166.9  17.4  34058  287.84 0854.39
2009/04/23 17:05:35.9    -158   -548    144    571    589 196.1  14.2  34052  287.73 0854.37
2009/04/23 17:05:36.0    -307   -218     98    377    390 234.6  14.7  34058  287.83 0854.37
2009/04/23 17:05:36.1    -297     55    -38    303    306 280.6  -7.3  34060  287.88 0854.37
2009/04/23 17:05:36.2    -106     52    -46    119    127 296.2 -26.4  34066  287.98 0854.37
2009/04/23 17:05:36.3      62     38    -23     73     77  58.5 -17.6  34070  288.06 0854.37
2009/04/23 17:05:36.4     130    -31    -32    134    138 103.7 -13.4  34070  288.04 0854.37
2009/04/23 17:05:36.5     203   -123     34    238    241 121.1   8.2  34072  288.07 0854.37
2009/04/23 17:05:36.6     284      2    115    285    307  89.4  23.1  34070  288.04 0854.37
2009/04/23 17:05:36.7     406   -226    194    465    503 119.1  24.1  34068  288.00 0854.37
2009/04/23 17:05:36.8     357    -55    183    362    405  98.8  28.9  34074  288.13 0854.37
2009/04/23 17:05:36.9     455     27    103    456    468  86.5  12.8  34076  288.14 0854.37
2009/04/23 17:05:37.0     432   -129    148    451    475 106.6  18.2  34072  288.07 0854.37
2009/04/23 17:05:37.1     230   -321    250    396    468 144.4  35.3  34076  288.16 0854.37
2009/04/23 17:05:37.2     392   -241      2    461    462 121.6   0.4  34068  288.01 0854.37
2009/04/23 17:05:37.3     366     33     21    368    369  84.8   3.3  34074  288.13 0854.37
2009/04/23 17:05:37.4     394     60    195    399    444  81.3  27.9  34080  288.23 0854.37
2009/04/23 17:05:37.5     299    100     57    316    322  71.4  10.3  34076  288.14 0854.37
2009/04/23 17:05:37.6     107    171    -60    203    211  32.1 -21.5  34076  288.14 0854.37
2009/04/23 17:05:37.7     294   -106    -93    313    327 110.0 -16.7  34080  288.21 0854.37
2009/04/23 17:05:37.8     204   -322    190    382    426 147.7  28.2  34080  288.23 0854.37
2009/04/23 17:05:37.9     275   -251    127    373    395 132.4  18.8  34078  288.18 0854.39
2009/04/23 17:05:38.0     314   -151     35    349    351 115.8   5.8  34082  288.25 0854.39
2009/04/23 17:05:38.1     199   -124     41    235    239 122.0  10.1  34076  288.15 0854.39
2009/04/23 17:05:38.2     171    -42    114    177    210 103.9  35.6  34084  288.30 0854.39
2009/04/23 17:05:38.3     134    -31     82    138    160 103.3  33.5  34086  288.33 0854.39
2009/04/23 17:05:38.4      72    -61     63     95    113 130.4  36.0  34086  288.33 0854.39
2009/04/23 17:05:38.5      93    -62    -69    112    131 123.7 -39.4  34086  288.33 0854.39
2009/04/23 17:05:38.6      70   -223    -81    234    248 162.4 -19.1  34090  288.39 0854.39
2009/04/23 17:05:38.7      87   -304     84    317    328 164.0  14.9  34084  288.29 0854.39
2009/04/23 17:05:38.8      83   -205    110    222    247 157.9  28.2  34088  288.36 0854.39
2009/04/23 17:05:38.9     178   -181     61    254    262 135.5  13.7  34088  288.36 0854.39
2009/04/23 17:05:39.0     115   -244    137    270    302 154.7  29.1  34084  288.29 0854.39
2009/04/23 17:05:39.1     231   -311    183    388    428 143.4  27.1  34082  288.24 0854.39
2009/04/23 17:05:39.2     302   -432    176    528    557 145.0  18.5  34084  288.30 0854.39
2009/04/23 17:05:39.3     404   -356    115    539    552 131.4  12.1  34084  288.28 0854.39
2009/04/23 17:05:39.4     335   -390    153    515    538 139.4  16.5  34072  288.09 0854.39
2009/04/23 17:05:39.5     141   -447    195    469    507 162.4  23.9  34078  288.18 0854.39
2009/04/23 17:05:39.6     167   -471    262    500    564 160.4  29.9  34080  288.23 0854.39
2009/04/23 17:05:39.7      71   -472    287    478    557 171.4  33.8  34082  288.25 0854.39
2009/04/23 17:05:39.8     -49   -486    288    489    567 185.8  33.3  34080  288.23 0854.39
2009/04/23 17:05:39.9    -149   -386   -100    415    427 201.2 -13.6  34084  288.28 0854.41
2009/04/23 17:05:40.0    -178   -265     53    320    325 213.8   9.4  34078  288.17 0854.41
2009/04/23 17:05:40.1    -232   -508    108    559    570 204.6  11.0  34082  288.25 0854.41
2009/04/23 17:05:40.2    -146   -465    101    488    499 197.4  11.8  34088  288.35 0854.41
2009/04/23 17:05:40.3    -240   -250     76    347    356 223.8  12.4  34086  288.33 0854.41
2009/04/23 17:05:40.4    -242   -349     -9    425    426 214.7  -1.3  34086  288.33 0854.41
2009/04/23 17:05:40.5    -176    -97     49    201    208 241.1  13.9  34088  288.36 0854.41
2009/04/23 17:05:40.6    -179    147    -31    232    235 309.5  -7.7  34098  288.51 0854.41
2009/04/23 17:05:40.7    -146    187    135    238    273 321.9  32.1  34098  288.51 0854.41
2009/04/23 17:05:40.8    -213    100    271    236    359 295.1  54.6  34108  288.68 0854.41
2009/04/23 17:05:40.9    -272     84    230    285    366 287.3  43.1  34116  288.81 0854.41
2009/04/23 17:05:41.0    -241    132     77    275    286 298.8  15.8  34114  288.78 0854.41
2009/04/23 17:05:41.1    -165    106    -20    197    199 302.9  -6.0  34120  288.91 0854.41
2009/04/23 17:05:41.2    -176     -3     55    177    186 268.7  17.3  34120  288.89 0854.41
2009/04/23 17:05:41.3    -165     22    168    167    236 277.9  50.1  34128  289.04 0854.41
2009/04/23 17:05:41.4    -173    -77     27    190    193 245.8   8.2  34128  289.02 0854.41
2009/04/23 17:05:41.5    -246    -14     19    247    248 266.6   4.6  34126  288.98 0854.41
2009/04/23 17:05:41.6      70     84    -41    110    117  39.7 -25.4  34122  288.92 0854.41
2009/04/23 17:05:41.7      42    121    116    129    173  19.2  46.9  34122  288.94 0854.41
2009/04/23 17:05:41.8    -181    128   -133    222    258 305.3 -38.1  34098  288.51 0854.41
2009/04/23 17:05:41.9    -333    170   -131    375    398 297.1 -19.3  34040  287.54 0854.41
2009/04/23 17:05:42.0    -408    285   -157    498    523 305.0 -17.6  34050  287.71 0854.41
2009/04/23 17:05:42.1    -375    367    -90    525    533 314.4  -9.8  34048  287.67 0854.41
2009/04/23 17:05:42.2    -584    385    -73    700    704 303.4  -6.0  34042  287.56 0854.41
2009/04/23 17:05:42.3    -545    299   -112    622    633 298.8 -10.2  34040  287.54 0854.41
2009/04/23 17:05:42.4    -470    226   -236    522    572 295.7 -30.6  34034  287.43 0854.41
2009/04/23 17:05:42.5    -509    237   -165    562    585 295.0 -21.2  34040  287.53 0854.41
2009/04/23 17:05:42.6    -446    161   -293    475    558 289.9 -39.0  34012  287.06 0854.41
2009/04/23 17:05:42.7    -505     49   -295    508    587 275.6 -37.2  34040  287.55 0854.41
2009/04/23 17:05:42.8    -133     73   -280    152    318 298.9 -73.7  34074  288.10 0854.41
2009/04/23 17:05:42.9     -54    166   -161    175    237 341.7 -52.1  34060  287.87 0854.41
2009/04/23 17:05:43.0     197    275     92    339    352  35.6  15.3  34060  287.89 0854.41
2009/04/23 17:05:43.1     -22    219    174    221    281 354.0  42.2  34066  287.99 0854.41
2009/04/23 17:05:43.2     -48    238    190    243    308 348.5  42.0  34078  288.17 0854.41
2009/04/23 17:05:43.3    -117     66     87    135    160 299.3  36.0  34070  288.06 0854.41
2009/04/23 17:05:43.4    -207     16    -50    208    215 274.6 -13.7  34066  287.98 0854.41
2009/04/23 17:05:43.5    -184    182   -111    260    282 314.7 -28.7  34060  287.88 0854.41
2009/04/23 17:05:43.6    -183     86    -25    203    205 295.2  -7.2  34068  288.01 0854.41
2009/04/23 17:05:43.7    -215     65    -62    225    234 286.9 -15.5  34072  288.09 0854.41
2009/04/23 17:05:43.8    -202    103    -79    227    240 297.1 -24.3  34080  288.22 0854.41
2009/04/23 17:05:43.9    -222      9   -140    223    263 272.4 -39.9  34076  288.14 0854.36
2009/04/23 17:05:44.0    -101    -10   -161    102    190 263.9 -69.1  34082  288.26 0854.36
2009/04/23 17:05:44.1      68     33     19     76     79  63.8  14.3  34082  288.26 0854.36
2009/04/23 17:05:44.2      77    182     13    198    199  22.9   3.8  34078  288.20 0854.36
2009/04/23 17:05:44.3     352    296    -67    461    466  49.9  -8.4  34088  288.34 0854.36
2009/04/23 17:05:44.4     500    258    -50    563    566  62.7  -5.1  34092  288.41 0854.36
2009/04/23 17:05:44.5     546    193    -95    580    588  70.5  -9.3  34090  288.37 0854.36
2009/04/23 17:05:44.6     394    374   -172    544    571  46.5 -17.6  34072  288.08 0854.36
2009/04/23 17:05:44.7     493    447   -188    666    692  47.8 -20.4  34088  288.36 0854.36
2009/04/23 17:05:44.8     583    548   -220    801    831  46.8 -15.4  34070  288.06 0854.36
2009/04/23 17:05:44.9     653    566   -263    865    905  49.1 -16.9  34030  287.37 0854.36
2009/04/23 17:05:45.0     687    595    -80    910    914  49.1  -5.1  34018  287.18 0854.36
2009/04/23 17:05:45.1     880    252   -142    916    927  74.0  -8.8  34024  287.28 0854.36
2009/04/23 17:05:45.2     707    137   -230    721    757  79.0 -17.7  34066  287.99 0854.36
2009/04/23 17:05:45.3     346    595   -335    689    766  30.2 -32.3  34082  288.26 0854.36
2009/04/23 17:05:45.4     345    684   -225    767    800  26.8 -16.4  34094  288.44 0854.36
2009/04/23 17:05:45.5     401    586   -117    711    721  34.4  -9.4  34084  288.30 0854.36
2009/04/23 17:05:45.6     280    591     49    655    657  25.4   4.3  34092  288.42 0854.36
2009/04/23 17:05:45.7     364    487     25    609    610  36.8   2.4  34100  288.56 0854.36
2009/04/23 17:05:45.8     486    569      4    749    750  40.5   0.4  34096  288.50 0854.36
2009/04/23 17:05:45.9     324    605    219    687    721  28.2  17.7  34074  288.10 0854.40
2009/04/23 17:05:46.0     366    621    359    721    805  30.5  28.5  34070  288.05 0854.40
2009/04/23 17:05:46.1    -178    458    -98    492    502 338.7 -11.3  34082  288.25 0854.40
2009/04/23 17:05:46.2    -241    113   -428    267    504 295.2 -69.5  34082  288.26 0854.40
2009/04/23 17:05:46.3    -334    349   -159    484    510 316.3 -18.2  34078  288.18 0854.40
2009/04/23 17:05:46.4    -384    551   -212    672    705 325.1 -17.6  34086  288.31 0854.40
2009/04/23 17:05:46.5    -429    528   -236    681    720 320.9 -24.3  34080  288.22 0854.40
2009/04/23 17:05:46.6    -291    506   -436    584    728 330.1 -44.9  34080  288.21 0854.40
2009/04/23 17:05:46.7    -306    136   -305    335    453 294.0 -51.5  34104  288.61 0854.40
2009/04/23 17:05:46.8     110     56   -260    124    288  62.9 -77.2  34132  289.09 0854.40
2009/04/23 17:05:46.9     182    386   -198    427    470  25.3 -31.0  34116  288.82 0854.40
2009/04/23 17:05:47.0     372    160    -62    406    411  66.7  -8.8  34102  288.60 0854.40
2009/04/23 17:05:47.1     261    -64     14    269    270 103.9   3.1  34082  288.26 0854.40
2009/04/23 17:05:47.2     124   -209    -52    244    250 149.3 -12.2  34100  288.54 0854.40
2009/04/23 17:05:47.3     -39   -320    -85    323    335 187.1 -14.8  34112  288.77 0854.40
2009/04/23 17:05:47.4      46   -298   -275    302    408 171.1 -51.4  34100  288.55 0854.40
2009/04/23 17:05:47.5      -5   -565   -261    566    623 180.6 -30.9  34108  288.70 0854.40
2009/04/23 17:05:47.6     328   -279   -249    432    498 130.4 -37.0  34062  287.90 0854.40
2009/04/23 17:05:47.7      -2   -149   -286    150    322 181.0 -74.8  34102  288.59 0854.40
2009/04/23 17:05:47.8     -58   -189   -120    198    231 197.2 -38.8  34084  288.30 0854.40
2009/04/23 17:05:47.9      25   -575   -161    576    599 177.5 -15.7  34084  288.27 0854.43
2009/04/23 17:05:48.0      13   -551   -291    552    624 178.6 -34.5  34094  288.46 0854.43
2009/04/23 17:05:48.1       9   -631   -507    632    810 179.1 -47.2  34080  288.23 0854.43
2009/04/23 17:05:48.2     313   -245   -285    398    489 128.1 -43.6  34094  288.46 0854.43
2009/04/23 17:05:48.3     589   -395   -252    710    754 123.9 -19.6  34118  288.87 0854.43
2009/04/23 17:05:48.4     458   -121   -131    474    492 104.8 -15.5  34108  288.68 0854.43
2009/04/23 17:05:48.5     275   -310   -275    415    497 138.5 -40.9  34094  288.44 0854.43
2009/04/23 17:05:48.6     222   -105   -169    246    298 115.4 -42.0  34082  288.26 0854.43
2009/04/23 17:05:48.7     187    218   -269    288    394  40.6 -52.3  34100  288.54 0854.43
2009/04/23 17:05:48.8     301    470   -193    559    592  32.6 -19.1  34076  288.14 0854.43
2009/04/23 17:05:48.9       2    240   -384    241    453   0.5 -69.3  34090  288.38 0854.43
2009/04/23 17:05:49.0     104      0   -337    105    352  89.6 -86.8  34090  288.37 0854.43
2009/04/23 17:05:49.1     199     74   -361    213    419  69.4 -71.2  34088  288.35 0854.43
2009/04/23 17:05:49.2      78    -66   -244    103    264 130.0 -80.4  34086  288.31 0854.43
2009/04/23 17:05:49.3     212   -117   -289    243    377 118.9 -60.2  34058  287.84 0854.43
2009/04/23 17:05:49.4     189     -6   -224    190    293  92.1 -59.8  34064  287.95 0854.43
2009/04/23 17:05:49.5      68    116   -241    135    276  30.3 -72.9  34070  288.05 0854.43
2009/04/23 17:05:49.6      13     43   -297     45    300  16.9 -90.0  34090  288.37 0854.43
2009/04/23 17:05:49.7     294     84   -256    306    398  74.0 -48.7  34064  287.93 0854.43
2009/04/23 17:05:49.8     293     35   -152    296    332  83.0 -33.7  34066  287.99 0854.43
2009/04/23 17:05:49.9     335     98   -138    350    376  73.6 -27.3  34088  288.35 0854.45
2009/04/23 17:05:50.0     155     74   -112    172    205  64.5 -40.4  34100  288.55 0854.45
2009/04/23 17:05:50.1     286     93    -27    301    303  71.8  -5.2  34068  288.02 0854.45
2009/04/23 17:05:50.2      65    -54     35     85     91 129.5  23.6  34076  288.14 0854.45
2009/04/23 17:05:50.3     137     50     31    146    150  70.0  12.2  34092  288.42 0854.45
2009/04/23 17:05:50.4     159     49    224    167    279  72.7  59.6  34078  288.17 0854.45
2009/04/23 17:05:50.5     154    -92    256    180    312 120.9  61.4  34084  288.29 0854.45
2009/04/23 17:05:50.6     203    -77    295    218    366 110.8  60.0  34070  288.04 0854.45
2009/04/23 17:05:50.7     -60   -225    155    233    279 195.1  36.7  34082  288.24 0854.45
2009/04/23 17:05:50.8     -77    -92     84    121    147 220.1  38.6  34078  288.18 0854.45
2009/04/23 17:05:50.9     138   -249    156    285    324 151.0  30.9  34070  288.05 0854.45
2009/04/23 17:05:51.0    -107     72    144    130    194 304.1  53.0  34082  288.26 0854.45
2009/04/23 17:05:51.1      19   -127    230    129    263 171.1  68.5  34088  288.36 0854.45
2009/04/23 17:05:51.2     -43    -69    170     82    188 212.1  72.8  34092  288.43 0854.45
2009/04/23 17:05:51.3      78    -90    267    120    292 139.0  74.5  34092  288.43 0854.45
2009/04/23 17:05:51.4    -146   -346    256    376    454 202.9  37.6  34106  288.67 0854.45
2009/04/23 17:05:51.5    -248   -221     80    333    343 228.2  13.6  34102  288.59 0854.45
2009/04/23 17:05:51.6    -191   -413    197    455    495 204.8  24.9  34106  288.66 0854.45
2009/04/23 17:05:51.7     -77   -408    201    416    462 190.7  27.3  34090  288.38 0854.45
2009/04/23 17:05:51.8      26   -279    153    281    319 174.7  31.0  34094  288.44 0854.45
2009/04/23 17:05:51.9    -137   -182    192    229    298 217.0  44.1  34104  288.61 0854.45
2009/04/23 17:05:52.0    -132   -230    180    266    321 209.9  37.3  34100  288.56 0854.45
2009/04/23 17:05:52.1     -83   -416    161    425    454 191.4  21.8  34112  288.75 0854.45
2009/04/23 17:05:52.2    -114   -464    143    478    500 193.8  16.7  34090  288.40 0854.45
2009/04/23 17:05:52.3     -75   -490    221    496    543 188.7  25.7  34078  288.18 0854.45
2009/04/23 17:05:52.4    -105   -563    365    573    679 190.6  35.6  34076  288.15 0854.45
2009/04/23 17:05:52.5     -82   -555    221    562    603 188.5  22.7  34076  288.14 0854.45
2009/04/23 17:05:52.6      50   -506    153    509    532 174.3  16.8  34068  288.01 0854.45
2009/04/23 17:05:52.7     -13   -555    233    556    602 181.4  24.1  34088  288.34 0854.45
2009/04/23 17:05:52.8    -108   -517    228    529    576 191.9  24.9  34084  288.30 0854.45
2009/04/23 17:05:52.9    -156   -518    246    541    594 196.8  26.2  34092  288.42 0854.45
2009/04/23 17:05:53.0    -219   -554    227    596    637 201.6  22.0  34104  288.62 0854.45
2009/04/23 17:05:53.1    -347   -485     41    597    599 215.6   4.0  34088  288.36 0854.45
2009/04/23 17:05:53.2    -304   -417     61    517    521 216.1   6.8  34094  288.45 0854.45
2009/04/23 17:05:53.3    -144   -394    163    420    450 200.1  22.4  34074  288.11 0854.45
2009/04/23 17:05:53.4    -161   -384    153    417    444 202.7  21.0  34080  288.21 0854.45
2009/04/23 17:05:53.5    -184   -407    146    447    471 204.3  18.2  34108  288.68 0854.45
2009/04/23 17:05:53.6    -198   -441    169    484    513 204.2  19.3  34110  288.73 0854.45
2009/04/23 17:05:53.7    -178   -355    138    398    422 206.7  19.2  34096  288.50 0854.45
2009/04/23 17:05:53.8    -276   -285    109    397    412 224.1  15.4  34102  288.60 0854.45
2009/04/23 17:05:53.9    -226   -332    143    402    426 214.3  20.2  34102  288.58 0854.46
2009/04/23 17:05:54.0    -268   -361    103    451    463 216.6  12.9  34078  288.17 0854.46
2009/04/23 17:05:54.1    -272   -340     52    436    440 218.7   6.8  34096  288.50 0854.46
2009/04/23 17:05:54.2    -197   -333     54    387    391 210.6   8.0  34086  288.33 0854.46
2009/04/23 17:05:54.3    -196   -332     59    386    391 210.7   8.7  34078  288.18 0854.46
2009/04/23 17:05:54.4    -154   -333     93    367    379 204.8  14.3  34064  287.93 0854.46
2009/04/23 17:05:54.5    -166   -351    122    389    408 205.3  17.4  34056  287.81 0854.46
2009/04/23 17:05:54.6    -226   -353     38    420    422 212.6   5.2  34074  288.11 0854.46
2009/04/23 17:05:54.7    -242   -356    103    431    444 214.3  13.5  34066  287.99 0854.46
2009/04/23 17:05:54.8    -194   -205     33    283    285 223.4   6.7  34068  288.02 0854.46
2009/04/23 17:05:54.9    -291   -144    149    325    357 243.6  26.4  34064  287.93 0854.46
2009/04/23 17:05:55.0    -458   -124    -60    475    479 254.9  -7.2  34082  288.25 0854.46
2009/04/23 17:05:55.1    -506   -162    -38    532    534 252.2  -4.1  34082  288.25 0854.46
2009/04/23 17:05:55.2    -424   -293    -72    516    522 235.4  -8.0  34064  287.96 0854.46
2009/04/23 17:05:55.3    -573   -168    -92    598    606 253.6  -8.8  34066  287.98 0854.46
2009/04/23 17:05:55.4    -532   -183   -134    563    579 251.0 -13.4  34060  287.87 0854.46
2009/04/23 17:05:55.5    -569   -133     17    585    586 256.8   1.7  34068  288.00 0854.46
2009/04/23 17:05:55.6    -378    107      6    394    395 285.9   0.9  34076  288.16 0854.46
2009/04/23 17:05:55.7    -322    -14    166    323    363 267.5  29.3  34076  288.16 0854.46
2009/04/23 17:05:55.8     -60   -128     87    142    166 205.3  34.4  34088  288.36 0854.46
2009/04/23 17:05:55.9    -381   -180   -181    422    459 244.6 -29.3  34074  288.12 0854.46
2009/04/23 17:05:56.0    -499   -150   -293    522    598 253.2 -36.1  34074  288.10 0854.46
2009/04/23 17:05:56.1    -606    -45   -184    608    635 265.7 -21.8  34086  288.33 0854.46
2009/04/23 17:05:56.2    -448   -211    -81    496    503 244.8  -9.3  34084  288.27 0854.46
2009/04/23 17:05:56.3    -657   -280   -219    715    747 246.9 -21.9  34066  287.97 0854.46
2009/04/23 17:05:56.4    -575   -356   -178    677    701 238.3 -14.8  34074  288.11 0854.46
2009/04/23 17:05:56.5    -461   -201   -169    504    531 246.4 -23.5  34080  288.21 0854.46
2009/04/23 17:05:56.6    -437   -257   -165    508    534 239.5 -23.2  34086  288.31 0854.46
2009/04/23 17:05:56.7    -341   -253   -104    425    438 233.4 -13.8  34084  288.28 0854.46
2009/04/23 17:05:56.8    -235   -350   -185    422    460 213.9 -29.6  34092  288.41 0854.46
2009/04/23 17:05:56.9    -318   -346   -278    470    546 222.6 -37.8  34076  288.14 0854.47
2009/04/23 17:05:57.0    -126   -276   -181    304    353 204.5 -37.9  34068  288.01 0854.47
2009/04/23 17:05:57.1    -110   -185     43    216    221 210.7  11.4  34076  288.16 0854.47
2009/04/23 17:05:57.2      34   -145     97    150    178 166.6  35.7  34096  288.48 0854.47
2009/04/23 17:05:57.3     -29   -403   -126    404    423 184.1 -22.4  34068  288.02 0854.47
2009/04/23 17:05:57.4     -76   -401   -168    409    442 190.8 -28.0  34082  288.26 0854.47
2009/04/23 17:05:57.5     139   -406   -167    430    461 161.1 -26.8  34078  288.19 0854.47
2009/04/23 17:05:57.6     225   -397   -118    457    473 150.4 -14.5  34074  288.12 0854.47
2009/04/23 17:05:57.7     212   -459    114    506    519 155.2  12.8  34064  287.96 0854.47
2009/04/23 17:05:57.8     207   -527    166    567    591 158.5  16.4  34070  288.04 0854.47
2009/04/23 17:05:57.9     337   -475    247    583    633 144.7  24.4  34068  288.01 0854.47
2009/04/23 17:05:58.0     454   -357    202    578    613 128.2  19.3  34070  288.04 0854.47
2009/04/23 17:05:58.1     471   -444    151    648    666 133.3  13.1  34062  287.90 0854.47
2009/04/23 17:05:58.2     514   -361    -20    629    630 125.1  -1.9  34062  287.91 0854.47
2009/04/23 17:05:58.3     457   -338     68    569    574 126.5   6.9  34064  287.93 0854.47
2009/04/23 17:05:58.4     484   -393    -42    624    626 129.1  -3.9  34070  288.06 0854.47
2009/04/23 17:05:58.5     505   -390     21    639    640 127.7   1.9  34064  287.94 0854.47
2009/04/23 17:05:58.6     481   -396    127    624    638 129.5  11.6  34054  287.79 0854.47
2009/04/23 17:05:58.7     266   -418     37    496    498 147.5   4.3  34058  287.85 0854.47
2009/04/23 17:05:58.8     271   -327    -16    425    426 140.4  -2.2  34068  288.02 0854.47
2009/04/23 17:05:58.9     262   -333     67    425    431 141.8   9.0  34068  288.01 0854.49
2009/04/23 17:05:59.0     128   -290     86    318    330 156.2  15.1  34072  288.09 0854.49
2009/04/23 17:05:59.1     126   -277     59    305    311 155.5  11.0  34068  288.02 0854.49
2009/04/23 17:05:59.2      67   -237    131    247    279 164.2  30.2  34070  288.05 0854.49
2009/04/23 17:05:59.3      47   -340    136    344    369 172.0  22.9  34068  288.00 0854.49
2009/04/23 17:05:59.4      62   -311    112    318    337 168.7  20.1  34072  288.08 0854.49
2009/04/23 17:05:59.5      93   -270     61    286    293 160.8  12.2  34082  288.26 0854.49
2009/04/23 17:05:59.6      64   -295     62    303    310 167.6  11.6  34076  288.15 0854.49
2009/04/23 17:05:59.7      67   -384    145    391    417 170.0  21.4  34062  287.92 0854.49
2009/04/23 17:05:59.8      44   -316    155    320    355 172.0  27.7  34056  287.81 0854.49
2009/04/23 17:05:59.9     119   -336    162    357    392 160.4  26.2  34070  288.05 0854.49
2009/04/23 17:06:00.0      23   -330    172    331    373 176.0  29.5  34064  287.96 0854.49
2009/04/23 17:06:00.1       0   -317    167    318    359 180.0  29.8  34070  288.05 0854.49
2009/04/23 17:06:00.3      73   -313    117    322    342 166.9  20.7  34080  288.22 0854.49
2009/04/23 17:06:00.3     165   -349    108    387    402 154.7  15.7  34084  288.30 0854.49
2009/04/23 17:06:00.4      66   -370    148    377    405 169.8  22.5  34084  288.30 0854.49
2009/04/23 17:06:00.5      48   -460    189    463    500 173.9  23.5  34068  288.03 0854.49
2009/04/23 17:06:00.6      55   -490    250    494    553 173.5  29.1  34046  287.65 0854.49
2009/04/23 17:06:00.7     -10   -537    296    538    614 181.2  31.3  34050  287.71 0854.49
2009/04/23 17:06:00.8     -27   -489    209    490    532 183.2  24.6  34062  287.91 0854.49
2009/04/23 17:06:00.9      53   -540    337    543    639 174.3  34.9  34064  287.93 0854.44
2009/04/23 17:06:01.0       2   -515    251    516    573 179.7  27.9  34060  287.89 0854.44
2009/04/23 17:06:01.1     -57   -424    292    428    518 187.7  37.6  34078  288.17 0854.44
